     2.11           OBSERVATION DATA    G (GPS)             RINEX VERSION / TYPE
teqc 2010Oct21 OPUS Account 20111027 14:02:28UTC            PGM / RUN BY / DATE
N 856 RESET                                                 MARKER NAME
1064                                                        MARKER NUMBER
CSMIDDLETON NGS                                             OBSERVER / AGENCY
0220316069 TRIMBLE 5700 1.30                                REC # / TYPE / VERS
60183425 TRM41249.00 NONE                                   ANT # / TYPE
  -750798.4212 -5520213.2391  3095265.6268                  APPROX POSITION XYZ
        2.0010        0.0000        0.0000                  ANTENNA: DELTA H/E/N
     1     1                                                WAVELENGTH FACT L1/2
     5    L1    L2    C1    P1    P2                        # / TYPES OF OBSERV
    15                                                      LEAP SECONDS
  2011     8    13    15    51    0.0000000     GPS         TIME OF FIRST OBS
                                                            END OF HEADER
 11  8 13 15 51  0.0000000  0 10G03G06G07G10G13G16G19G20G23G32
  -1321490.98458  -1016874.93556  20936075.3054                   20936074.3954
   -980543.63357   -755717.79955  22132052.9144                   22132052.5234
  -1696135.13756  -1289737.97854  23227488.8834                   23227487.8284
  -1430371.33256  -1088428.67453  24077674.4144                   24077674.8014
  -1659373.11758  -1277495.20556  20639195.4774                   20639193.7704
   -313505.35258   -245335.46055  21791484.7664                   21791482.4574
  -1913369.21957  -1470435.27855  22226399.1414                   22226395.6214
   -205869.67256   -160246.84554  23582185.1484                   23582186.0514
  -1120761.50458   -863588.78857  20043987.5554                   20043983.5434
   -146440.26215                  24563029.344
 11  8 13 15 51 30.0000000  0 10G03G06G07G10G13G16G19G20G23G32
  -1448349.07848  -1115725.39246  20911934.9304                   20911933.8014
  -1074456.91847   -828896.98045  22114182.1174                   22114181.4104
  -1863777.02746  -1420367.97844  23195587.2814                   23195586.5664
  -1569492.53946  -1196834.76643  24051200.4534                   24051199.7624
  -1820423.19148  -1402988.77446  20608548.7504                   20608546.6604
   -344150.81248   -269215.05945  21785653.1564                   21785651.2464
  -2099557.88347  -1615517.31645  22190968.4384                   22190965.4454
   -227121.71946   -176806.99644  23578141.4144                   23578141.6254
  -1228480.85548   -947525.97347  20023489.2424                   20023485.4184
   -162746.85545   -130535.89552  24559926.5864                   24559930.8284
 11  8 13 15 52  0.0000000  0 10G03G06G07G10G13G16G19G20G23G32
  -1574788.98848  -1214250.00246  20887874.2114                   20887873.1524
  -1168008.79347   -901794.54045  22096379.4144                   22096379.0984
  -2031595.26246  -1551135.41144  23163653.1334                   23163651.7504
  -1708299.85246  -1304996.31043  24024786.0784                   24024785.1764
  -1981255.11348  -1528312.35346  20577943.5164                   20577941.2504
   -374756.69148   -293063.83645  21779828.9694                   21779826.9104
  -2285610.95747  -1760493.71245  22155563.6334                   22155560.2114
   -248523.97347   -193484.13044  23574069.3054                   23574068.5554
  -1335846.64848  -1031187.63447  20003058.1254                   20003054.0434
   -179310.67645   -143442.91442  24556773.6484                   24556778.2074
 11  8 13 15 52 30.0000000  0 10G03G06G07G10G13G16G19G20G23G32
  -1700794.10948  -1312435.80046  20863896.4384                   20863895.2194
  -1261183.69947   -974398.34945  22078649.5164                   22078648.7544
  -2199574.22747  -1682028.07944  23131687.6254                   23131686.3874
  -1846777.30145  -1412900.81543  23998434.1884                   23998433.6134
  -2141850.41048  -1653451.54846  20547382.9224                   20547380.8014
   -405309.96148   -316871.61045  21774015.1024                   21774012.8364
  -2471509.77347  -1905349.86945  22120188.0164                   22120185.3134
   -270063.89546   -210268.57144  23569969.7114                   23569969.8874
  -1442842.27748  -1114560.87947  19982697.5474                   19982693.4614
   -196118.75455   -156540.31252  24553576.1484                   24553578.6174
 11  8 13 15 53  0.0000000  0 10G03G06G07G10G13G16G19G20G23G32
  -1826351.84448  -1410272.99646  20840003.2194                   20840002.1884
  -1353970.87947  -1046700.03845  22060992.1484                   22060991.6804
  -2367703.04347  -1813037.49245  23099693.8594                   23099692.2934
  -1984913.98046  -1520539.73543  23972148.1094                   23972146.9264
  -2302196.13748  -1778396.25846  20516870.0634                   20516868.1374
   -435801.76648   -340631.48145  21768212.8444                   21768210.6764
  -2657239.83647  -2050074.53645  22084844.6334                   22084842.0514
   -291733.35946   -227153.94244  23565846.6174                   23565846.7234
  -1549455.87548  -1197636.42447  19962409.8284                   19962405.9614
   -213162.36346   -169821.18042  24550333.7974                   24550335.6764
 11  8 13 15 53 30.0000000  0 10G03G06G07G10G13G16G19G20G23G32
  -1951448.91048  -1507751.23046  20816198.6644                   20816197.1604
  -1446357.91847  -1118689.96345  22043411.5164                   22043411.0554
  -2535968.90647  -1944153.70545  23067673.9924                   23067672.4534
  -2122696.20346  -1627902.51843  23945928.9454                   23945929.0124
  -2462276.70348  -1903134.35646  20486407.9454                   20486405.7734
   -466222.32848   -364335.84645  21762423.8834                   21762421.9574
  -2842785.91447  -2194655.87645  22049536.4534                   22049533.7154
   -313522.73446   -244132.76943  23561700.2344                   23561700.7734
  -1655673.66848  -1280403.54547  19942197.1724                   19942193.4654
   -230431.59845   -183277.85542  24547046.7584                   24547048.9384
 11  8 13 15 54  0.0000000  0 10G03G06G07G10G13G16G19G20G23G32
  -2076074.32448  -1604861.93645  20792482.6954                   20792481.4384
  -1538335.40647  -1190360.70945  22025909.0084                   22025908.2774
  -2704362.44947  -2075369.40345  23035629.7344                   23035627.8204
  -2260114.23846  -1734981.47444  23919779.2894                   23919779.3094
  -2622080.49648  -2027656.80246  20455998.1254                   20455996.2304
   -496564.87948   -387979.41845  21756649.8054                   21756647.5274
  -3028134.68747  -2339083.45645  22014265.7114                   22014263.1094
   -335425.36746   -261199.83044  23557532.2424                   23557532.2974
  -1761485.50048  -1362854.33747  19922061.7664                   19922057.8634
   -247918.95746   -196904.57442  24543719.0394                   24543720.0084
 11  8 13 15 54 30.0000000  0 10G03G06G07G10G13G16G19G20G23G32
  -2200241.41448  -1701615.51446  20768854.5394                   20768853.3204
  -1629917.68047  -1261723.52345  22008481.5084                   22008480.7504
  -2872897.68447  -2206695.55045  23003558.7034                   23003556.8594
  -2397181.72346  -1841787.30343  23893695.7974                   23893696.2814
  -2781619.25848  -2151972.71646  20425638.8984                   20425636.9884
   -526845.91847   -411575.04945  21750887.5004                   21750885.4924
  -3213297.23447  -2483365.89945  21979030.3524                   21979027.5984
   -357457.75846   -278367.98744  23553339.8984                   23553339.2074
  -1866904.43048  -1444998.97447  19902001.2894                   19901997.4844
   -265641.14546   -210714.18042  24540346.7894                   24540348.4344
 11  8 13 15 55  0.0000000  0 10G03G06G07G10G13G16G19G20G23G32
  -2323954.11748  -1798015.02546  20745313.0164                   20745311.6334
  -1721110.05947  -1332782.54545  21991128.2194                   21991127.4024
  -3041579.48047  -2338135.89445  22971459.3754                   22971457.7814
  -2533903.22746  -1948323.51143  23867678.3594                   23867678.2304
  -2940895.35248  -2276083.95546  20395329.7664                   20395327.8134
   -557072.53948   -435128.28845  21745135.4064                   21745133.3134
  -3398275.64147  -2627504.81845  21943830.1644                   21943827.5864
   -379627.72746   -295643.41644  23549121.1094                   23549121.1604
  -1971934.84048  -1526840.86947  19882014.4454                   19882010.8134
   -283605.35246   -224712.44142  24536928.3134                   24536929.7424
 11  8 13 15 55 30.0000000  0 10G03G06G07G10G13G16G19G20G23G32
  -2447204.10548  -1894053.98746  20721859.4534                   20721857.9064
  -1811905.83647  -1403532.49445  21973850.2894                   21973850.1294
  -3210401.25447  -2469685.30345  22939333.2894                   22939332.2544
  -2670271.47746  -2054584.50443  23841728.4144                   23841728.2304
  -3099899.53948  -2399983.31646  20365072.2734                   20365070.2934
   -587240.87548   -458636.11745  21739395.0944                   21739392.7934
  -3583059.69147  -2771492.36645  21908667.1414                   21908664.4264
   -401931.39846   -313023.01943  23544876.4064                   23544877.0784
  -2076568.75848  -1608373.80047  19862103.4534                   19862099.4144
   -301807.26246   -238895.88742  24533464.4454                   24533466.7034
 11  8 13 15 56  0.0000000  0 10G03G06G07G10G13G16G19G20G23G32
  -2569991.02048  -1989732.08946  20698493.6334                   20698492.4304
  -1902305.70347  -1473973.95945  21956647.8444                   21956647.2344
  -3379363.25847  -2601344.00045  22907181.5234                   22907179.7194
  -2806286.38746  -2160570.13643  23815846.1644                   23815845.3444
  -3258629.67248  -2523669.13246  20334866.8364                   20334864.8634
   -617353.74648   -482100.71445  21733664.8594                   21733662.3834
  -3767646.73447  -2915326.35246  21873541.3204                   21873538.1454
   -424371.95346   -330509.22143  23540606.9534                   23540606.9534
  -2180805.80148  -1689597.49347  19842267.8444                   19842264.1954
   -320249.60946   -253266.75042  24529955.5084                   24529957.9104
 11  8 13 15 56 30.0000000  0 10G03G06G07G10G13G16G19G20G23G32
  -2692313.84048  -2085048.57346  20675216.3984                   20675215.1484
  -1992309.27347  -1544106.63045  21939520.8674                   21939520.2274
  -3548465.33647  -2733111.81045  22875001.9144                   22875000.8594
  -2941947.63346  -2266280.17444  23790030.3834                   23790030.2974
  -3417083.08248  -2647139.31946  20304714.0704                   20304712.2544
   -647413.03947   -505523.55445  21727944.4924                   21727942.2814
  -3952032.52747  -3059003.51846  21838453.3834                   21838450.0944
   -446951.68746   -348103.96843  23536310.3204                   23536310.2774
  -2284644.57448  -1770510.83847  19822508.2344                   19822504.1804
   -338933.98845   -267826.16842  24526400.3364                   24526402.4024
 11  8 13 15 57  0.0000000  0 10G03G06G07G10G13G16G19G20G23G32
  -1238728.15648   -952384.40146  20951824.3134                   20951823.6094
   -506475.02047   -386313.69945  22222265.6564                   22222265.0824
  -2142262.62147  -1637369.40345  23142594.0314                   23142591.8014
  -1501811.41846  -1144096.05844  24064078.9844                   24064079.4884
  -1999813.10948  -1542773.11246  20574411.7734                   20574409.7384
    898018.66847    698708.91345  22022030.5944                   22022028.3874
  -2560769.40647  -1974902.34145  22103202.1644                   22103199.1454
   1105766.53946    861806.28143  23831782.7974                   23831782.3014
   -812642.00848   -623495.86247  20102620.9534                   20102616.8634
   1217576.77345    945039.21542  24822594.7974                   24822595.9694
 11  8 13 15 57 30.0000000  0 10G03G06G07G10G13G16G19G20G23G32
  -1360071.03148  -1046937.29346  20928733.9224                   20928732.8874
   -595639.00447   -455792.12945  22205298.1644                   22205297.4694
  -2311595.95347  -1769317.41145  23110370.7194                   23110368.6844
  -1636716.28146  -1249216.67644  24038407.2734                   24038407.6884
  -2157657.50448  -1665768.73046  20544374.9454                   20544372.9844
    868107.30947    675401.32845  22016338.6254                   22016336.1884
  -2744695.60947  -2118221.41045  22068202.1024                   22068199.1134
   1082948.67246    844026.09043  23827440.9144                   23827440.0124
   -915633.77748   -703749.20947  20083022.2194                   20083018.2234
   1198449.43045    930134.62942  24818955.2734                   24818956.5124
 11  8 13 15 58  0.0000000  0 10G03G06G07G10G13G16G19G20G23G32
  -1480903.17647  -1141092.20646  20905740.0234                   20905738.7774
   -684364.43447   -524928.83645  22188414.3914                   22188413.4064
  -2481025.51647  -1901340.42245  23078128.8364                   23078128.1884
  -1771223.00046  -1354027.17644  24012811.4534                   24012811.8404
  -2315174.38748  -1788509.15346  20514400.4694                   20514398.2154
    838285.49247    652163.53245  22010664.0164                   22010661.5354
  -2928367.96948  -2261342.69646  22033250.4534                   22033247.4884
   1060027.03946    826164.97243  23823078.3524                   23823078.1764
  -1018181.53548   -783656.56847  20063507.9924                   20063504.4414
   1179116.43045    915069.84442  24815276.1884                   24815277.1804
 11  8 13 15 58 30.0000000  0 10G03G06G07G10G13G16G19G20G23G32
  -1601211.36748  -1234838.85346  20882846.2584                   20882844.6844
   -772639.18447   -593714.34645  22171616.4064                   22171615.0394
  -2650538.64147  -2033428.54745  23045871.5634                   23045870.3714
  -1905318.96146  -1458517.48243  23987294.5704                   23987293.7664
  -2472348.85548  -1910982.76446  20484491.1954                   20484488.8794
    808563.28547    629003.34845  22005007.8204                   22005005.4304
  -3111770.83247  -2404253.97645  21998349.8054                   21998347.1884
   1037011.07846    808230.33543  23818698.5474                   23818698.6644
  -1120272.05548   -863207.64347  20044080.9064                   20044077.0824
   1159587.984 5                  24811561.289
 11  8 13 15 59  0.0000000  0 10G03G06G07G10G13G16G19G20G23G32
  -1720986.58647  -1328170.17346  20860053.8134                   20860052.4884
   -860455.44947   -662142.61545  22154905.3914                   22154904.1024
  -2820127.30547  -2165575.51745  23013600.0704                   23013599.1484
  -2038995.73846  -1562681.18043  23961856.4694                   23961856.1954
  -2629170.31648  -2033181.29546  20454649.1804                   20454646.7464
    778946.44947    605925.27145  21999371.7974                   21999370.0664
  -3294892.80148  -2546946.36446  21963503.2114                   21963499.9614
   1013906.80946    790226.94143  23814302.4064                   23814301.8054
  -1221896.60248   -942395.61347  20024742.2274                   20024738.2584
   1139870.13715                  24807808.078
 11  8 13 15 59 30.0000000  0 10G03G06G07G10G13G16G19G20G23G32
  -1840218.44547  -1421078.11546  20837364.8284                   20837363.4694
   -947804.25847   -730206.62745  22138283.4694                   22138282.5744
  -2989781.77747  -2297773.78645  22981315.6884                   22981314.6454
  -2172243.60246  -1666510.72743  23936500.7274                   23936499.5124
  -2785626.96548  -2155095.56846  20424876.2814                   20424874.2384
    749442.55947    582935.19545  21993757.1334                   21993755.5274
  -3477721.26247  -2689410.07545  21928711.8914                   21928708.8634
    990720.59446    772159.62643  23809890.7664                   23809889.7894
  -1323044.98848  -1021212.56047  20005494.2584                   20005490.6994
   1119970.01655    868981.20353  24804023.3364                   24804023.6804
 11  8 13 16  0  0.0000000  0  9G03G06G07G10G13G16G19G20G23
  -1958912.44948  -1513566.94746  20814777.8914                   20814776.7114
  -1034692.23047   -797911.54545  22121749.0634                   22121748.5124
  -3159508.27347  -2430028.15745  22949017.6414                   22949016.3014
  -2305068.71546  -1770010.79343  23911224.4694                   23911224.1334
  -2941722.73448  -2276728.63046  20395172.4774                   20395170.4144
    720041.62547    560025.34345  21988162.7734                   21988160.5124
  -3660259.06648  -2831647.27746  21893975.8204                   21893973.3364
    967443.32846    754021.37243  23805461.1724                   23805461.2584
  -1423722.80548  -1099662.82547  19986336.1414                   19986332.5084
 11  8 13 16  0 30.0000000  0  9G03G06G07G10G13G16G19G20G23
  -2077026.37948  -1605603.77746  20792301.3594                   20792300.0904
  -1121078.41047   -865225.45945  22105310.1334                   22105309.6724
  -3329265.28147  -2562306.30345  22916714.0394                   22916712.8284
  -2437429.61346  -1873149.13843  23886036.9224                   23886037.4964
  -3097413.77348  -2398046.32346  20365545.1094                   20365543.2154
    690783.68847    537226.92545  21982595.1094                   21982593.2344
  -3842462.01648  -2973623.56945  21859304.4224                   21859300.7854
    944113.93446    735842.53343  23801021.9694                   23801021.8954
  -1523887.84448  -1177713.50547  19967275.1484                   19967271.1884
 11  8 13 16  1  0.0000000  0  9G03G06G07G10G13G16G19G20G23
  -2194547.56648  -1697178.71246  20769937.7504                   20769936.7774
  -1206951.17247   -932139.30445  22088969.4924                   22088968.5474
  -3499040.55147  -2694598.67545  22884407.0004                   22884405.8954
  -2569314.18746  -1975916.31543  23860939.7664                   23860940.1884
  -3252685.92248  -2519037.59746  20335997.9144                   20335995.7034
    661677.78147    514546.98045  21977056.2034                   21977054.3204
  -4024314.88747  -3115327.07445  21824698.1414                   21824695.1214
    920741.82046    717630.42143  23796574.2664                   23796573.9304
  -1623527.43448  -1255354.76647  19948314.5314                   19948310.8674
 11  8 13 16  1 30.0000000  0  9G03G06G07G10G13G16G19G20G23
  -2311472.41848  -1788288.99346  20747688.3284                   20747687.1884
  -1292308.60247   -998651.58645  22072726.6804                   22072725.5474
  -3668831.49247  -2826903.26845  22852096.6884                   22852095.4694
  -2700719.47347  -2078310.04243  23835934.3834                   23835933.6414
  -3407533.75048  -2639698.23246  20306531.5554                   20306529.2544
    632724.70747    491986.11045  21971547.1174                   21971544.5664
  -4205812.01647  -3256753.37046  21790160.1024                   21790157.5864
    897327.04346    699385.04743  23792118.5944                   23792117.9344
  -1722638.20348  -1332583.94947  19929454.4454                   19929450.4734
 11  8 13 16  2  0.0000000  0  9G03G06G07G10G13G16G19G20G23
  -2427804.24648  -1878937.17746  20725550.8204                   20725549.5984
  -1377154.75047  -1064765.45945  22056580.7424                   22056579.7074
  -3838641.85247  -2959223.02745  22819782.8364                   22819782.0554
  -2831649.16446  -2180333.14643  23811019.3914                   23811018.4774
  -3561958.92248  -2760029.53246  20277145.2664                   20277143.2274
    603917.93447    469539.25245  21966065.2504                   21966062.9454
  -4386953.95348  -3397902.89746  21755690.2034                   21755687.7544
    873863.09446    681101.33243  23787653.5234                   23787652.9964
  -1821223.60248  -1409403.74947  19910694.2894                   19910690.7424
 11  8 13 16  2 30.0000000  0 10G03G06G07G10G13G16G19G20G23G08
  -2543547.17248  -1969126.45246  20703525.4924                   20703524.2704
  -1461495.23047  -1130485.33645  22040530.8284                   22040530.0864
  -4008476.41447  -3091561.60245  22787464.1024                   22787463.6884
  -2962108.11746  -2281989.49443  23786193.5944                   23786194.0164
  -3715964.05948  -2880033.52446  20247838.7584                   20247836.9774
    575250.19148    447200.72745  21960610.1644                   21960607.7704
  -4567742.44147  -3538777.02946  21721287.4774                   21721284.8594
    850342.26646    662773.25043  23783177.6254                   23783177.2584
  -1919287.94548  -1485817.53647  19892033.0704                   19892029.5474
   1294685.78556   1017887.44952  24866520.6804                   24866520.5664
 11  8 13 16  3  0.0000000  0 10G03G06G07G10G13G16G19G20G23G08
  -2658717.67648  -2058869.69346  20681609.0704                   20681608.3404
  -1545347.52047  -1195824.79445  22024574.9774                   22024573.9414
  -4178351.58647  -3223931.82045  22755138.3674                   22755136.5354
  -3092113.44146  -2383292.36043  23761454.3444                   23761454.5554
  -3869563.81648  -2999721.66146  20218609.8914                   20218607.5394
    546702.35947    424955.64345  21955177.2974                   21955175.5274
  -4748191.21547  -3679386.41946  21686948.8674                   21686946.2504
    826744.81346    644385.57743  23778687.3054                   23778687.1374
  -2016847.48448  -1561837.97447  19873468.2664                   19873464.4924
   1118453.34046    880563.55542  24832985.7274                   24832986.4614
 11  8 13 16  3 30.0000000  0 10G03G06G07G10G13G16G19G20G23G08
  -2773323.90648  -2148173.25446  20659800.3134                   20659799.1294
  -1628720.70747  -1260790.91145  22008709.2584                   22008708.3284
  -4348276.09847  -3356340.51245  22722802.6254                   22722801.5204
  -3221673.51247  -2484248.18944  23736800.1884                   23736800.2894
  -4022764.43748  -3119098.76146  20189457.0474                   20189454.7814
    518263.56647    402795.51645  21949765.6094                   21949763.7624
  -4928305.91047  -3819735.52245  21652674.5234                   21652671.6054
    803059.99645    625929.75643  23774180.1094                   23774179.8914
  -2113910.31248  -1637471.35247  19854997.9304                   19854994.1604
    942112.96545    743155.51642  24799428.1254                   24799429.1454
 11  8 13 16  4  0.0000000  0 10G03G06G07G10G13G16G19G20G23G08
  -1311942.90248  -1009434.80646  20937892.3594                   20937891.1054
   -136194.32447    -97783.35745  22292727.2114                   22292726.2464
  -2942825.41847  -2261184.10745  22990251.1484                   22990249.7464
  -1775365.61747  -1357255.00844  24012023.4774                   24012024.4264
  -2600140.06248  -2010560.28646  20460173.2664                   20460171.2344
   2065350.59847   1608317.85645  22244166.4924                   22244164.8554
  -3532659.06647  -2732218.46545  21918257.3914                   21918254.3204
   2354704.00046   1835002.87043  24069448.0944                   24069448.8714
   -635054.77048   -485116.39447  20136414.5474                   20136410.5314
   2341088.53946   1833266.41042  25065645.2114                   25065645.9384
 11  8 13 16  4 30.0000000  0 10G03G06G07G10G13G16G19G20G23G08
  -1425421.46947  -1097859.65746  20916297.4144                   20916296.9304
   -218614.35247   -162006.73145  22277043.4614                   22277042.4774
  -3112850.69147  -2393671.30945  22957896.6414                   22957895.1724
  -1904038.22347  -1457519.37244  23987538.2194                   23987538.4804
  -2752538.18448  -2129312.06746  20431172.7274                   20431170.8714
   2037119.69547   1586319.71345  22238794.3364                   22238792.6334
  -3712099.40647  -2872042.06746  21884110.4924                   21884107.9924
   2330833.26646   1816402.16943  24064906.3524                   24064906.2664
   -731125.76248   -559976.92447  20118132.8284                   20118129.2774
   2164528.27346   1695687.00442  25032046.6484                   25032047.2814
 11  8 13 16  5  0.0000000  0 10G03G06G07G10G13G16G19G20G23G08
  -1538333.28148  -1185842.88346  20894811.3364                   20894810.5084
   -300556.61747   -225857.85145  22261450.3984                   22261449.9454
  -3282924.21547  -2526196.11545  22925532.5084                   22925531.5004
  -2032265.35247  -1557436.60544  23963137.5864                   23963137.3094
  -2904529.77348  -2247747.06046  20402249.7814                   20402247.6914
   2008990.91047   1564401.17345  22233441.8674                   22233439.9104
  -3891195.82047  -3011597.70345  21850029.6884                   21850027.0554
   2306867.45746   1797727.41143  24060346.1564                   24060345.5164
   -826698.15248   -634448.92847  20099946.1174                   20099942.4384
   1987859.89146   1558023.39842  24998428.4304                   24998426.5434
 11  8 13 16  5 30.0000000  0 10G03G06G07G10G13G16G19G20G23G08
  -1650679.18448  -1273385.14246  20873432.5474                   20873431.4574
   -382022.94547   -289338.12245  22245947.8134                   22245947.7344
  -3453046.71547  -2658759.09545  22893159.3364                   22893158.3754
  -2160047.80947  -1657007.36943  23938820.6564                   23938820.8834
  -3056113.50048  -2365864.24646  20373404.2424                   20373402.3204
   1980961.07047   1542559.71245  22228108.1724                   22228105.8914
  -4069946.38347  -3150883.82746  21816014.5394                   21816011.5234
   2282802.97746   1778975.79443  24055766.9384                   24055765.8094
   -921772.36348   -708532.74447  20081854.3364                   20081850.6174
   1811081.78945   1420274.27742  24964787.9694                   24964787.4494
 11  8 13 16  6  0.0000000  0 10G03G06G07G10G13G16G19G20G23G08
  -1762463.24648  -1360489.60446  20852160.9064                   20852160.0084
   -463018.75047   -352451.74145  22230534.7814                   22230534.2194
  -3623222.57047  -2791363.61745  22860775.8984                   22860774.6724
  -2287390.09046  -1756235.12143  23914588.5864                   23914588.2274
  -3207291.84048  -2483665.54446  20344636.0394                   20344634.1024
   1953023.28147   1520789.96745  22222791.3054                   22222789.4694
  -4248352.68047  -3289901.70146  21782065.1414                   21782062.3164
   2258632.85246   1760141.83143  24051167.0164                   24051166.3594
  -1016352.72748   -782231.74547  20063856.3134                   20063852.4454
   1634188.97746   1282435.78142  24931126.6024                   24931127.0234
 11  8 13 16  6 30.0000000  0 10G03G06G07G10G13G16G19G20G23G08
  -1873680.89148  -1447152.69646  20830996.9064                   20830995.5864
   -543540.63347   -415196.05745  22215212.5704                   22215211.1844
  -3793447.77347  -2924006.59945  22828383.0314                   22828381.1804
  -2414288.74247  -1855117.18343  23890440.5944                   23890439.9144
  -3358058.71948  -2601146.23046  20315946.0704                   20315944.2074
   1925179.23047   1499093.29245  22217493.2664                   22217491.1134
  -4426407.60548  -3428645.78546  21748182.5164                   21748179.2384
   2234358.31346   1741226.46043  24046547.8204                   24046547.3324
  -1110434.87148   -855542.52047  20045952.9064                   20045949.2234
   1457185.25846   1144510.84243  24897443.1254                   24897444.5704
 11  8 13 16  7  0.0000000  0 10G03G06G07G10G13G16G19G20G23G08
  -1984335.41848  -1533377.00346  20809940.2894                   20809939.0314
   -623592.80147   -477574.36945  22199978.6564                   22199977.6564
  -3963725.40247  -3056690.45345  22795980.0864                   22795978.7034
  -2540747.31646  -1953656.37043  23866375.5164                   23866375.8364
  -3508414.89848  -2718306.88046  20287334.3594                   20287332.3404
   1897423.35947   1477465.30145  22212211.2114                   22212209.0944
  -4604111.78147  -3567116.54346  21714366.0784                   21714363.6374
   2209973.18446   1722225.00843  24041908.0474                   24041907.0354
  -1204021.83248   -928467.43847  20028143.9924                   20028140.1334
   1280066.89545   1006496.56343  24863739.8984                   24863739.1254
 11  8 13 16  7 30.0000000  0 10G03G06G07G10G13G16G19G20G23G08
  -2094430.26247  -1619165.19646  20788989.6954                   20788988.6604
   -703180.02747   -539590.40245  22184833.8674                   22184832.6844
  -4134059.13347  -3189418.02645  22763566.5634                   22763565.4574
  -2666769.64147  -2051855.58943  23842394.5474                   23842394.7114
  -3658362.19548  -2835148.93046  20258800.2974                   20258798.2854
   1869749.47747   1455901.20645  22206944.9534                   22206942.7734
  -4781466.07047  -3705314.66746  21680616.5864                   21680614.3524
   2185471.17246   1703132.41043  24037245.7034                   24037244.9574
  -1297117.56248  -1001009.57647  20010428.5164                   20010424.4534
   1102829.67645    868389.79943  24830012.9064                   24830012.0904
 11  8 13 16  8  0.0000000  0 10G03G06G07G10G13G16G19G20G23G08
  -2203965.85948  -1704517.60446  20768145.9844                   20768144.9264
   -782304.00447   -601245.45245  22169776.8204                   22169775.9964
  -4304449.54347  -3322189.73745  22731142.5554                   22731141.4884
  -2792356.91847  -2149715.80243  23818496.3984                   23818496.3054
  -3807899.50448  -2951671.49846  20230344.4614                   20230342.3404
   1842153.97747   1434398.19345  22201694.0314                   22201691.3794
  -4958468.10947  -3843238.33846  21646934.6414                   21646931.8204
   2160849.02346   1683946.14443  24032559.9384                   24032559.6844
  -1389722.25448  -1073169.10647  19992806.2504                   19992802.6804
    925472.73045    730189.65243  24796261.6564                   24796263.9654
 11  8 13 16  8 30.0000000  0 10G03G06G07G10G13G16G19G20G23G08
  -2312944.83248  -1789436.27846  20747407.6804                   20747406.8444
   -860968.14547   -662542.18945  22154807.7814                   22154806.8954
  -4474899.44147  -3455007.78645  22698707.2114                   22698706.1914
  -2917512.21546  -2247239.43943  23794680.1334                   23794680.1374
  -3957027.05548  -3067874.79146  20201966.2114                   20201964.5164
   1814632.03947   1412952.48445  22196456.5784                   22196454.2854
  -5135118.12947  -3980887.68146  21613319.1094                   21613316.5004
   2136101.07046   1664661.87743  24027850.2194                   24027850.1294
  -1481838.48848  -1144948.00547  19975277.2344                   19975273.4844
    747992.51646    591893.42543  24762489.0234                   24762490.2974
 11  8 13 16  9  0.0000000  0 10G03G06G07G10G13G16G19G20G23G08
  -2421366.45348  -1873920.66946  20726775.8284                   20726774.7704
   -939172.95747   -723481.00945  22139925.8914                   22139925.0274
  -4645408.11747  -3587871.67945  22666260.2664                   22666259.6484
  -3042235.30947  -2344426.25944  23770946.0554                   23770945.9804
  -4105742.71148  -3183757.11946  20173666.4774                   20173664.6484
   1787181.54347   1391562.45045  22191232.9224                   22191230.4224
  -5311412.52047  -4118259.91946  21579771.3674                   21579768.6524
   2111225.12545   1645277.81443  24023116.8284                   24023116.5944
  -1573465.35948  -1216345.58147  19957841.2504                   19957837.1994
    570389.35946    453501.43143  24728692.5474                   24728692.6024
 11  8 13 16  9 30.0000000  0 10G03G06G07G10G13G16G19G20G23G08
  -2529232.89848  -1957972.44046  20706249.5164                   20706248.4384
  -1016921.75447   -784064.49945  22125130.6724                   22125129.7584
  -4815977.60247  -3720782.93345  22633801.9454                   22633801.0314
  -3166528.79347  -2441278.31344  23747293.5164                   23747293.4774
  -4254046.15248  -3299318.24646  20145445.5234                   20145443.5204
   1759798.17247   1370224.73145  22186022.4534                   22186020.0784
  -5487350.67247  -4255354.56746  21546291.5704                   21546288.1844
   2086216.46545   1625790.42543  24018358.6254                   24018357.3204
  -1664604.97748  -1287363.48447  19940497.8054                   19940494.2074
    392660.55146    315011.52343  24694871.2424                   24694871.3164
 11  8 13 16 10  0.0000000  0 10G03G06G07G10G13G16G19G20G23G08
  -2636542.95748  -2041590.66746  20685829.1484                   20685827.9924
  -1094214.39547   -844292.54445  22110422.5634                   22110421.6414
  -4986606.80147  -3853740.72745  22601332.8204                   22601331.0234
  -3290392.01247  -2537795.09844  23723723.6334                   23723723.8204
  -4401934.71148  -3414556.08546  20117303.0164                   20117301.0784
   1732480.43447   1348938.14145  22180824.0234                   22180821.4844
  -5662928.68447  -4392168.58546  21512880.1254                   21512877.6174
   2061073.45346   1606198.38743  24013573.4694                   24013573.1524
  -1755256.71148  -1358001.22247  19923247.2034                   19923243.6954
    214806.68846    176424.20543  24661027.0634                   24661026.8284
 11  8 13 16 10 30.0000000  0 10G03G06G07G10G13G16G19G20G23G08
  -2743301.02348  -2124778.78846  20665513.9454                   20665512.3444
  -1171056.48847   -904169.47745  22095799.9064                   22095799.1294
  -5157299.63747  -3986748.08745  22568850.6804                   22568849.2894
  -3413829.85247  -2633980.44244  23700233.9384                   23700233.9184
  -4549410.92248  -3529472.61146  20089239.3834                   20089237.4024
   1705221.56647   1327697.44045  22175636.1414                   22175634.5314
  -5838148.43747  -4528703.44946  21479537.3204                   21479534.1954
   2035788.92246   1586495.94543  24008762.7974                   24008761.9884
  -1845424.85948  -1428262.13147  19906088.9454                   19906085.4614
     36823.13746     37735.73943  24627157.0864                   24627158.3014
 11  8 13 16 11  0.0000000  0 10G03G06G07G10G13G16G19G20G23G08
  -1274084.75448   -979934.93846  20945096.2584                   20945094.9494
    327972.45747    263905.01745  22381055.7034                   22381054.5474
  -3752631.81247  -2892201.71745  22836150.3284                   22836148.2034
  -1961419.47347  -1502232.09344  23976618.0314                   23976617.7814
  -3121048.41048  -2416462.86146  20361047.6884                   20361045.4064
   3253439.17647   2534100.73745  22470252.4924                   22470250.2384
  -4437582.46947  -3437353.31446  21746055.8364                   21746053.1174
   3585779.92646   2794281.03943  24303716.1334                   24303715.4304
   -359687.11348   -270544.41247  20188815.5314                   20188811.8914
   1434134.29346   1126549.70443  24893056.6954                   24893058.4614
 11  8 13 16 11 30.0000000  0 10G03G06G07G10G13G16G19G20G23G08
  -1379742.89848  -1062265.96846  20924990.4694                   20924988.8164
    252024.34847    204724.67045  22366603.0704                   22366602.1054
  -3923456.36747  -3025311.73245  22803643.1954                   22803641.4534
  -2084011.67646  -1597758.52243  23953289.2814                   23953290.0314
  -3267697.22348  -2530734.66446  20333141.1804                   20333139.2774
   3226287.11747   2512943.27245  22465085.7974                   22465083.2464
  -4612081.39547  -3573326.48146  21712849.9384                   21712846.5904
   3560200.35246   2774348.79343  24298848.8914                   24298848.7624
   -448891.28548   -340054.17947  20171840.5864                   20171837.1294
   1255886.05546    987655.05343  24859137.4384                   24859138.4344
 11  8 13 16 12  0.0000000  0 10G03G06G07G10G13G16G19G20G23G08
  -1484849.89848  -1144167.53346  20904989.2974                   20904988.0704
    176522.94947    145892.39645  22352235.9614                   22352234.7424
  -4094345.08647  -3158471.76045  22771123.8754                   22771122.1764
  -2206180.56646  -1692955.02043  23930041.0634                   23930042.3404
  -3413928.56648  -2644681.17046  20305314.4534                   20305312.5164
   3199186.23847   2491825.67145  22459928.7194                   22459926.6294
  -4786214.12547  -3709014.32346  21679713.3364                   21679710.3634
   3534470.54346   2754299.47643  24293952.5234                   24293952.2424
   -537612.37148   -409187.51147  20154957.4144                   20154953.8874
   1077506.38746    848657.97543  24825193.1254                   24825193.6764
 11  8 13 16 12 30.0000000  0 10G03G06G07G10G13G16G19G20G23G08
  -1589404.06648  -1225638.31046  20885093.4224                   20885092.1484
    101468.56647     87408.45845  22337953.3524                   22337952.6844
  -4265296.26647  -3291680.46145  22738593.0234                   22738591.5744
  -2327925.28546  -1787821.03643  23906873.6884                   23906875.1414
  -3559738.84048  -2758299.55646  20277567.7504                   20277565.4734
   3172135.40247   2470747.05545  22454780.7504                   22454778.9694
  -4959976.80147  -3844413.79546  21646647.3914                   21646644.5234
   3508589.29346   2734132.14143  24289027.5784                   24289026.9884
   -625849.16848   -477943.46546  20138166.7894                   20138162.8094
    898996.35246    709559.33943  24791223.2194                   24791223.9224
 11  8 13 16 13  0.0000000  0 10G03G06G07G10G13G16G19G20G23G08
  -1693409.03948  -1306681.15246  20865301.6254                   20865300.0904
     26856.66447     29269.31145  22323755.1724                   22323754.6414
  -4436313.19547  -3424940.37445  22706049.5944                   22706048.6484
  -2449249.70746  -1882359.53743  23883786.8754                   23883786.8094
  -3705129.28947  -2871590.82746  20249900.6414                   20249898.6134
   3145129.12547   2449703.19945  22449641.9534                   22449639.8324
  -5133369.71147  -3979525.14146  21613652.0314                   21613648.9654
   3482550.62946   2713842.11143  24284072.7114                   24284071.3014
   -713604.78148   -546324.47246  20121467.2504                   20121463.5004
    720352.00446    570355.95943  24757228.6724                   24757229.1214
 11  8 13 16 13 30.0000000  0 10G03G06G07G10G13G16G19G20G23G08
  -1796865.34048  -1387296.45446  20845614.5474                   20845612.8674
    -47314.24247    -28526.21745  22309640.8984                   22309640.0594
  -4607396.10547  -3558251.69745  22673493.4924                   22673492.5984
  -2570154.35246  -1976570.95443  23860780.1174                   23860779.9454
  -3850098.29348  -2984553.67146  20222314.0864                   20222311.8404
   3118164.65247   2428691.87945  22444510.6254                   22444508.1564
  -5306390.93447  -4114346.85146  21580727.1484                   21580724.3324
   3456351.95746   2693427.42143  24279087.7424                   24279086.3674
   -800879.66048   -614330.87947  20104859.4614                   20104855.5004
    541572.49246    431047.37143  24723208.6334                   24723208.3594
 11  8 13 16 14  0.0000000  0 10G03G06G07G10G13G16G19G20G23G08
  -1899772.84448  -1467484.14146  20826031.7974                   20826030.6884
   -121045.28547    -85978.99445  22295610.2974                   22295609.7504
  -4778544.53147  -3691614.07245  22640924.7734                   22640923.6644
  -2690640.35946  -2070456.17943  23837852.1724                   23837852.3134
  -3994644.34848  -3097186.96446  20194808.0864                   20194806.0434
   3091239.86347   2407711.48945  22439387.4064                   22439385.0434
  -5479037.78547  -4248876.83946  21547873.4534                   21547870.1174
   3429990.39846   2672885.85443  24274070.8524                   24274069.7114
   -887673.83648   -681962.72747  20088343.1724                   20088339.3014
    362657.60246    291633.13143  24689161.4614                   24689162.4694
 11  8 13 16 14 30.0000000  0 10G03G06G07G10G13G16G19G20G23G08
  -2002130.93448  -1547243.68746  20806553.8364                   20806552.8524
   -194336.42247   -143088.98045  22281663.5084                   22281663.3794
  -4949756.92247  -3825026.29745  22608344.2504                   22608343.2114
  -2810707.03946  -2164014.66344  23815004.7114                   23815004.1024
  -4138763.93047  -3209487.94247  20167382.8754                   20167380.9384
   3064353.40247   2386760.97545  22434271.0474                   22434268.7194
  -5651305.99647  -4383111.80046  21515091.6094                   21515088.6994
   3403464.80946   2652216.41443  24269023.3054                   24269023.5434
   -973986.17248   -749219.10547  20071918.1484                   20071914.3324
    183608.38746    152114.29543  24655089.5944                   24655090.0004
 11  8 13 16 15  0.0000000  0 10G03G06G07G10G13G16G19G20G23G08
  -2103933.11348  -1626570.06946  20787181.5314                   20787180.2154
   -267182.26647   -199851.98345  22267801.2814                   22267801.1254
  -5121026.66047  -3958483.20345  22575752.3134                   22575751.8094
  -2930348.00046  -2257241.36944  23792237.9064                   23792238.4884
  -4282448.42247  -3321449.89047  20140040.7424                   20140038.8834
   3037509.86347   2365843.89545  22429162.7974                   22429160.8674
  -5823186.43447  -4517044.60746  21482384.1334                   21482381.3594
   3376779.00846   2631422.07143  24263945.6564                   24263945.4344
  -1059810.53548   -816095.24146  20055586.3834                   20055582.5084
      4430.81646     12495.45043  24620993.0084                   24620993.1884
 11  8 13 16 15 30.0000000  0 10G03G06G07G10G13G16G19G20G23G08
  -2205179.62548  -1705463.45046  20767915.0944                   20767913.5204
   -339584.56247   -256269.39545  22254023.9924                   22254022.5354
  -5292354.02047  -4091985.01945  22543149.7584                   22543148.8914
  -3049564.26647  -2350137.15944  23769551.6954                   23769552.0474
  -4425696.64147  -3433071.87846  20112781.6174                   20112779.6054
   3010706.39147   2344958.02945  22424062.3134                   22424060.9964
  -5994676.98047  -4650673.58646  21449750.0864                   21449747.6214
   3349930.31645   2610500.88342  24258836.3284                   24258835.7464
  -1145147.28948   -882591.42646  20039347.4144                   20039343.7034
   -174875.70746   -127223.78643  24586872.3204                   24586872.4414
 11  8 13 16 16  0.0000000  0 10G03G06G07G10G13G16G19G20G23G08
  -2305872.47748  -1783925.41246  20748753.5864                   20748752.2934
   -411545.92647   -312343.18745  22240330.0314                   22240329.2114
  -5463740.23047  -4225532.70945  22510536.3364                   22510535.3324
  -3168358.58646  -2442704.14244  23746945.9774                   23746945.8754
  -4568508.33647  -3544353.72947  20085605.2344                   20085603.0634
   2983939.05947   2324100.32245  22418968.6804                   22418966.7704
  -6165776.55547  -4783997.90546  21417191.0944                   21417188.5554
   3322914.37545   2589449.31342  24253695.1724                   24253695.3094
  -1229998.24648   -948709.07346  20023200.8054                   20023197.0434
   -354312.90646   -267044.91243  24552726.6724                   24552726.2274
 11  8 13 16 16 30.0000000  0 10G03G06G07G10G13G16G19G20G23G08
  -2406011.26648  -1861955.64646  20729697.9224                   20729696.6724
   -483066.96547   -368073.88245  22226720.4064                   22226719.3834
  -5635184.19547  -4359125.38145  22477911.4924                   22477910.6294
  -3286730.58646  -2534942.02043  23724420.1174                   23724419.9694
  -4710880.83647  -3655293.33747  20058512.6174                   20058510.7034
   2957206.63347   2303269.83245  22413881.7034                   22413879.6134
  -6336481.39847  -4917014.65346  21384707.1484                   21384704.2034
   3295729.26645   2568265.94142  24248521.8754                   24248521.1764
  -1314362.50848  -1014447.47946  20007146.7974                   20007143.0044
   -533880.25046   -406967.46943  24518555.4774                   24518555.0784
 11  8 13 16 17  0.0000000  0 10G03G06G07G10G13G16G19G20G23G08
  -2505591.51248  -1939550.65246  20710748.2664                   20710747.3324
   -554144.08647   -423458.65445  22213194.4224                   22213193.7584
  -5806680.73047  -4492759.02745  22445277.0234                   22445275.4344
  -3404675.99246  -2626847.55744  23701975.8134                   23701975.3404
  -4852807.45747  -3765885.52646  20031505.2664                   20031502.7584
   2930511.53547   2282468.41345  22408801.8444                   22408800.0944
  -6506784.23047  -5049718.14346  21352299.5944                   21352296.9734
   3268377.43045   2546952.70742  24243317.9774                   24243316.5664
  -1398235.83248  -1079803.32746  19991186.2114                   19991182.6524
   -713573.11746   -546987.76843  24484361.2894                   24484360.5904
 11  8 13 16 17 30.0000000  0 10G03G06G07G10G13G16G19G20G23G08
  -2604610.20748  -2016708.07546  20691905.9534                   20691904.9924
   -624775.49247   -478496.12545  22199753.6724                   22199752.7894
  -5978226.41447  -4626430.96345  22412632.9304                   22412631.8984
  -3522192.23846  -2718418.67043  23679612.9384                   23679613.8674
  -4994283.14847  -3876126.32847  20004583.0234                   20004581.1024
   2903854.97747   2261697.04845  22403728.8204                   22403727.2234
  -6676679.44947  -5182104.01546  21319969.3674                   21319966.7234
   3240859.469 5                  24238081.477
  -1481615.13748  -1144774.23947  19975319.8204                   19975316.4144
   -893388.92246   -687103.93643  24450143.6564                   24450142.6844
 11  8 13 16 18  0.0000000  0 10G03G06G07G10G13G16G19G20G23G08
  -1127643.02748   -865824.55846  20972963.1564                   20972962.4384
    880461.33247    694415.67345  22486190.9614                   22486189.5394
  -4574393.82847  -3532535.42445  22679773.4614                   22679772.4104
  -2063854.69146  -1582051.75044  23957125.6254                   23957125.1684
  -3559880.24648  -2758409.78246  20277540.7114                   20277538.9384
   4452657.02047   3468555.74845  22698456.7114                   22698454.8324
  -5270737.12547  -4086564.52546  21587511.7974                   21587508.5474
   4788595.516 5                  24532605.156
     10923.36748     18242.75846  20259340.3914                   20259337.0784
    502099.64546    400289.91543  24715695.8754                   24715695.4064
 11  8 13 16 18 30.0000000  0 10G03G06G07G10G13G16G19G20G23G08
  -1225536.38348   -942105.09446  20954334.6564                   20954334.0864
    810720.97747    640072.51745  22472919.5314                   22472918.5944
  -4746033.24247  -3666280.38545  22647111.7894                   22647110.3444
  -2180511.62946  -1672953.21744  23934927.1024                   23934926.9774
  -3700445.34047  -2867941.03746  20250792.1644                   20250790.0704
   4426074.08247   3447841.73545  22693398.6024                   22693396.2894
  -5439805.82047  -4218306.35646  21555338.6644                   21555336.0634
   4760741.570 5                  24527306.531
    -71465.59448    -45956.46146  20243662.3594                   20243658.5274
    322040.88746    259984.45843  24681432.2194                   24681430.5234
 11  8 13 16 19  0.0000000  0 10G03G06G07G10G13G16G19G20G23G08
  -1322867.20748  -1017947.29646  20935813.4304                   20935812.2704
    741424.60947    586075.35745  22459733.3754                   22459732.4494
  -4917719.01247  -3800061.49545  22614440.9614                   22614439.2814
  -2296739.69146  -1763520.60244  23912809.2424                   23912808.4844
  -3840552.09847  -2977115.13546  20224130.4144                   20224128.5514
   4399525.00847   3427154.13145  22688345.6724                   22688343.9844
  -5608456.65647  -4349722.58446  21523245.6954                   21523242.7624
   4732716.477 5                  24521972.406
   -153359.59048   -109769.98447  20228078.7274                   20228074.6804
    141860.90646    119584.55543  24647145.1484                   24647144.4104
 11  8 13 16 19 30.0000000  0 10G03G06G07G10G13G16G19G20G23G08
  -1419640.51648  -1093355.06546  20917397.9534                   20917397.3984
    672566.14547    532419.40645  22446629.7504                   22446629.2114
  -5089455.00847  -3933881.74545  22581760.5864                   22581758.6334
  -2412544.09846  -1853757.79544  23890772.7974                   23890772.6994
  -3980202.92647  -3085933.97446  20197556.0864                   20197554.3754
   4373003.44147   3406487.95345  22683299.3594                   22683296.6884
  -5776691.86348  -4480814.95046  21491231.4694                   21491228.4414
   4704513.08215                  24516605.938
   -234762.90248   -173201.15946  20212588.1804                   20212584.2274
    -38445.28946    -20913.65743  24612833.6334                   24612832.8874
 11  8 13 16 20  0.0000000  0 10G03G06G07G10G13G16G19G20G23G08
  -1515858.34848  -1168330.00246  20899088.3134                   20899087.7194
    604142.73447    479102.43445  22433608.9924                   22433608.4104
  -5261242.46947  -4067742.09945  22549070.7274                   22549068.7344
  -2527927.37146  -1943666.88044  23868816.2194                   23868816.1914
  -4119398.19147  -3194397.82046  20171067.9384                   20171065.8594
   4346505.16847   3385839.91645  22678256.8834                   22678254.4304
  -5944510.66448  -4611582.82846  21459296.7974                   21459293.7384
   4676127.18014                  24511203.742
   -315678.01648   -236251.91546  20197190.3524                   20197186.6174
   -218879.72346   -161511.91343  24578498.3674                   24578497.1024
 11  8 13 16 20 30.0000000  0 10G03G06G07G10G13G16G19G20G23G08
  -1611517.82048  -1242869.85946  20880884.7584                   20880884.1844
    536156.30947    426125.99745  22420671.4534                   22420670.9614
  -5433077.98047  -4201639.90545  22516371.1884                   22516369.4104
  -2642886.93746  -2033245.74544  23846940.0784                   23846940.6684
  -4258132.81648  -3302502.73046  20144667.6644                   20144665.6524
   4320031.60247   3365211.14045  22673218.8834                   22673216.7464
  -6111907.05547  -4742021.56346  21427442.2424                   21427439.5744
   4647559.56314                  24505766.438
   -396101.50048   -298919.59346  20181886.2424                   20181882.6024
   -399439.50046   -302207.79943  24544138.7504                   24544138.8054
 11  8 13 16 21  0.0000000  0 10G03G06G07G10G13G16G19G20G23G08
  -1706618.30948  -1316974.13446  20862787.6564                   20862786.9734
    468606.86747    373490.06145  22407817.4694                   22407816.8134
  -5604959.66047  -4335573.67545  22483663.0234                   22483661.2774
  -2757422.38346  -2122494.11144  23825143.7194                   23825145.2034
  -4396403.49647  -3410246.11846  20118355.9534                   20118354.1334
   4293581.92247   3344600.96345  22668185.9694                   22668183.4384
  -6278877.11348  -4872128.08046  21395668.8134                   21395666.3094
   4618809.488 5                  24500297.797
   -476032.71148   -361203.67546  20166676.1174                   20166672.3284
   -580123.31246   -443000.28843  24509755.9774                   24509755.8914
 11  8 13 16 21 30.0000000  0 10G03G06G07G10G13G16G19G20G23G08
  -1801159.57448  -1390642.68446  20844797.3284                   20844796.5354
    401493.47347    321193.88145  22395046.3284                   22395045.4694
  -5776886.68747  -4469542.75745  22450946.1174                   22450944.6604
  -2871533.67346  -2211412.09443  23803429.0704                   23803429.8554
  -4534208.16848  -3517626.39647  20092132.5004                   20092130.6884
   4267154.57447   3324008.19545  22663156.7114                   22663154.9804
  -6445417.88348  -5001900.11146  21363977.2814                   21363974.5084
   4589875.020 5                  24494791.711
   -555471.45348   -423104.01646  20151559.4774                   20151555.4884
   -760930.43046   -583888.85643  24475348.5084                   24475349.5394
 11  8 13 16 22  0.0000000  0 10G03G06G07G10G13G16G19G20G23G08
  -1895141.89848  -1463875.67346  20826912.9774                   20826911.9844
    334814.70347    269236.37845  22382357.9064                   22382356.8014
  -5948857.97347  -4603546.32945  22418221.3984                   22418220.1604
  -2985221.91446  -2300000.27443  23781794.8674                   23781795.0204
  -4671544.82047  -3624641.97146  20065998.2274                   20065995.8164
   4240747.62947   3303431.32444  22658131.4384                   22658129.7114
  -6611526.86748  -5131335.66846  21332367.7034                   21332364.5704
   4560753.73446   3553997.73852  24489250.9534                   24489250.6724
   -634418.19548   -484620.97346  20136536.4454                   20136532.6374
   -941861.24246   -724873.86843  24440918.7734                   24440918.8204
 11  8 13 16 22 30.0000000  0 10G03G06G07G10G13G16G19G20G23G08
  -1988568.84048  -1536675.91446  20809134.4534                   20809133.6374
    268566.55547    217614.43045  22369751.5314                   22369750.4694
  -6120876.08647  -4737586.39745  22385487.3594                   22385486.4614
  -3098490.29345  -2388261.35243  23760241.4064                   23760241.3204
  -4808414.57447  -3731293.72546  20039952.5704                   20039950.9384
   4214356.30547   3282866.61344  22653109.5084                   22653107.6914
  -6777203.90648  -5260434.64846  21300840.3054                   21300837.3554
   4531440.61745   3531156.19142  24483672.3444                   24483671.8134
   -712875.91448   -545756.88847  20121606.0944                   20121602.5394
  -1122918.52046   -865957.39943  24406464.7344                   24406465.7544
 11  8 13 16 23  0.0000000  0 10G03G06G07G10G13G16G19G20G23G08
  -2081440.89848  -1609043.75646  20791461.8134                   20791460.8054
    202747.23847    166326.64545  22357226.1414                   22357225.5594
  -6292940.95347  -4871662.89845  22352744.3754                   22352743.4414
  -3211340.37946  -2476196.50844  23738766.1884                   23738767.2234
  -4944815.84848  -3837580.42946  20013996.3594                   20013994.5234
   4187978.34847   3262312.34044  22648089.7974                   22648088.1724
  -6942446.82848  -5389195.34246  21269395.7344                   21269393.2544
   4501932.93845   3508163.11543  24478056.9144                   24478057.6804
   -790845.39148   -606512.34846  20106769.3914                   20106765.3794
  -1304102.72346  -1007139.79543  24371986.6804                   24371987.9144
 11  8 13 16 23 30.0000000  0 10G03G06G07G10G13G16G19G20G23G08
  -2173761.00848  -1680981.50246  20773893.3204                   20773892.9224
    137353.25047    115370.25945  22344782.2974                   22344781.5394
  -6465054.73447  -5005777.51045  22319992.2504                   22319991.4694
  -3323774.83647  -2563807.76444  23717370.6804                   23717371.4924
  -5080749.21947  -3943502.55147  19988129.4144                   19988127.0554
   4161609.32447   3241765.01644  22643072.1334                   22643070.6484
  -7107256.40247  -5517618.36446  21238033.6644                   21238030.9264
   4472226.27746   3485014.89643  24472404.4774                   24472404.9734
   -868329.22748   -666889.37746  20092024.5944                   20092020.6604
  -1485416.20746  -1148423.01343  24337484.1724                   24337484.1644
 11  8 13 16 24  0.0000000  0 10G03G06G07G10G13G16G19G20G23G08
  -2265536.76648  -1752495.10346  20756429.0864                   20756428.8634
     72376.16047     64738.74745  22332417.6254                   22332416.6294
  -6637223.13347  -5139934.68845  22287229.4454                   22287228.6294
  -3435801.57446  -2651101.35344  23696052.8444                   23696053.7894
  -5216220.44547  -4049064.55446  19962349.8594                   19962347.7974
   4135240.40247   3221217.75745  22638054.5704                   22638052.7814
  -7271635.86347  -5645706.22046  21206753.2814                   21206750.3164
   4442311.79346   3461704.72342  24466711.5944                   24466713.0234
   -945334.83648   -726893.77147  20077371.0554                   20077367.3284
  -1666865.91846  -1289812.33143  24302954.7034                   24302954.4344
 11  8 13 16 24 30.0000000  0 10G03G06G07G10G13G16G19G20G23G08
   -781349.85247   -595985.83846  21038860.5634                   21038860.0084
   1583232.65247   1242029.50745  22619923.9534                   22619923.3954
  -5234024.08247  -4046532.80845  22554250.0474                   22554248.3324
  -1972001.89146  -1510478.25944  23974604.5944                   23974604.3984
  -3775806.56247  -2926664.13446  20236451.6484                   20236449.5514
   5684286.56647   4428266.69945  22932827.8204                   22932827.0634
  -5860161.58247  -4545856.11846  21475347.4774                   21475344.7664
   5987603.85546   4665828.26242  24760770.8444                   24760772.1024
    553555.94948    441073.04746  20362600.5554                   20362596.5904
   -273029.60546   -203706.05643  24568192.6954                   24568192.5204
 11  8 13 16 25  0.0000000  0 10G03G06G07G10G13G16G19G20G23G08
   -872047.76648   -666659.54246  21021601.2734                   21021600.7074
   1519076.12147   1192037.37545  22607715.5164                   22607715.2234
  -5406309.19947  -4180780.93545  22521464.9064                   22521464.1134
  -2083224.86746  -1597145.54944  23953439.6484                   23953439.7934
  -3910356.28547  -3031508.07346  20210847.2894                   20210845.5314
   5657903.14147   4407708.12845  22927807.5784                   22927805.8914
  -6023683.00848  -4673275.38946  21444230.4144                   21444227.2624
   5957257.27746   4642181.46542  24754996.1024                   24754996.3094
    477496.64548    381806.03546  20348126.5394                   20348123.0664
   -454760.13346   -345314.19143  24533610.8364                   24533611.3914
 11  8 13 16 25 30.0000000  0 10G03G06G07G10G13G16G19G20G23G08
   -962212.57048   -736917.86046  21004443.6954                   21004442.6564
   1455322.86747   1142359.49945  22595583.0704                   22595583.4574
  -5578656.77347  -4315077.74045  22488668.2734                   22488666.7664
  -2194052.20346  -1683504.49744  23932350.1174                   23932350.4694
  -4044447.29347  -3135994.57646  20185330.9304                   20185328.9064
   5631504.83247   4387137.96245  22922783.8364                   22922782.5984
  -6186776.64848  -4800361.32346  21413194.7974                   21413191.8594
   5926686.39545   4618359.85242  24749178.3914                   24749177.4224
    401904.63748    322903.13946  20333742.1024                   20333738.3634
   -636636.36746   -487035.87143  24499000.9064                   24499001.5554
 11  8 13 16 26  0.0000000  0 10G03G06G07G10G13G16G19G20G23G08
  -1051848.52748   -806764.06245  20987386.5784                   20987385.4024
   1391967.38347   1092991.55545  22583527.4534                   22583526.9224
  -5751070.29347  -4449425.91245  22455858.9064                   22455857.5864
  -2304488.97746  -1769559.14043  23911334.9224                   23911335.0824
  -4178082.45747  -3240125.88346  20159900.9774                   20159898.8674
   5605085.63747   4366551.53144  22917756.6644                   22917754.5594
  -6349443.98047  -4927115.08446  21382240.3204                   21382237.2934
   5895885.35245   4594358.89842  24743317.6414                   24743315.9804
    326775.59048    264361.01346  20319445.3134                   20319441.6564
   -818662.32846   -628874.21443  24464362.9844                   24464363.5124
 11  8 13 16 26 30.0000000  0 10G03G06G07G10G13G16G19G20G23G08
  -1140959.08248   -876200.86046  20970429.0164                   20970428.3444
   1329006.02347   1043930.71745  22571546.0554                   22571545.6804
  -5923551.26247  -4583826.64345  22423037.0164                   22423035.4344
  -2414538.13346  -1855311.76844  23890392.6094                   23890393.1174
  -4311262.57847  -3343902.60847  20134557.7814                   20134555.7304
   5578641.75447   4345945.87444  22912724.5864                   22912722.5084
  -6511684.68447  -5053536.39346  21351366.7734                   21351363.8444
   5864849.320 5                  24737411.914
    252106.84448    206177.54846  20305236.4454                   20305232.5434
  -1000840.59046   -770831.29443  24429695.1564                   24429695.6524
 11  8 13 16 27  0.0000000  0 10G03G06G07G10G13G16G19G20G23G08
  -1229542.66048   -945227.04345  20953572.2194                   20953571.0044
   1266439.19147    995177.30945  22559640.1804                   22559639.7974
  -6096097.03947  -4718277.87945  22390202.6414                   22390201.5904
  -2524198.51646  -1940761.42843  23869524.7344                   23869525.2814
  -4443983.59047  -3447321.58246  20109301.5234                   20109299.4924
   5552173.00447   4325320.83045  22907687.8674                   22907685.7624
  -6673494.46548  -5179621.91746  21320575.3914                   21320572.3954
                                  24731460.648
    177899.98848    148354.00046  20291115.3834                   20291111.5354
  -1183169.05146   -912905.39043  24394998.6254                   24394999.2154
 11  8 13 16 27 30.0000000  0 10G03G06G07G10G13G16G19G20G23G08
  -1317606.07448  -1013847.89446  20936814.3984                   20936813.4494
   1204259.44547    946725.54945  22547807.6724                   22547807.4264
  -6268712.82447  -4852783.66245  22357354.5864                   22357353.5434
  -2633477.32046  -2025913.79643  23848729.5314                   23848730.5944
  -4576250.04347  -3550386.35847  20084132.0084                   20084130.1884
   5525671.46147   4304670.24345  22902645.4064                   22902642.9064
  -6834877.23048  -5305374.71446  21289865.3984                   21289862.7194
                                  24725463.523
    104148.38748     90885.20346  20277080.7584                   20277077.4494
  -1365653.08746  -1055100.69943  24360273.5084                   24360274.2464
 11  8 13 16 28  0.0000000  0  9G03G06G07G10G13G16G19G23G08
  -1405146.64147  -1082061.32546  20920156.0394                   20920155.4304
   1142468.48447    898576.72245  22536049.6484                   22536048.3364
  -6441394.93047  -4987341.12145  22324494.5314                   22324493.0744
  -2742372.25446  -2110766.96044  23828008.0784                   23828008.7584
  -4708057.02347  -3653093.10146  20059050.3524                   20059048.0474
   5499138.68047   4283995.32245  22897595.9144                   22897594.6684
  -6995827.18448  -5430790.23446  21259237.4844                   21259234.6684
     30854.32448     33772.92446  20263133.4694                   20263129.9774
  -1548289.58246  -1197414.76243  24325519.1334                   24325519.6024
 11  8 13 16 28 30.0000000  0  9G03G06G07G10G13G16G19G23G08
  -1492164.96547  -1149867.81046  20903597.4694                   20903596.0784
   1081065.16447    850729.95445  22524364.7814                   22524364.1684
  -6614142.50047  -5121949.59945  22291621.9304                   22291620.7974
  -2850884.19946  -2195321.76844  23807358.4304                   23807359.5864
  -4839402.71947  -3755440.40146  20034056.1254                   20034053.9064
   5472573.23447   4263294.92445  22892540.8364                   22892539.3874
  -7156341.66447  -5555866.43346  21228692.8054                   21228689.4534
    -41982.51648    -22983.07646  20249273.1954                   20249269.6334
  -1731078.28146  -1339847.50643  24290735.0784                   24290735.5864
 11  8 13 16 29  0.0000000  0 10G03G06G07G10G13G16G19G20G23G08
  -1578661.85548  -1217267.99046  20887137.4224                   20887136.5554
   1020048.05547    803184.12545  22512753.6954                   22512752.9024
  -6786954.60247  -5256608.36845  22258736.4844                   22258735.5434
  -2959013.85546  -2279578.68144  23786782.7894                   23786783.1054
  -4970285.32847  -3857426.87146  20009149.9064                   20009147.6134
   5445973.24647   4242567.61744  22887478.8984                   22887477.0124
  -7316417.96148  -5680601.20046  21198231.1804                   21198227.8794
   7866381.93815                  24707197.156
   -114362.14548    -79382.81446  20235499.8204                   20235496.2074
  -1914019.07846  -1482398.70843  24255922.3984                   24255923.6524
 11  8 13 16 29 30.0000000  0 10G03G06G07G10G13G16G19G20G23G08
  -1664640.14547  -1284264.05946  20870776.0314                   20870775.4384
    959413.28547    755936.24545  22501215.2344                   22501214.6484
  -6959832.74647  -5391318.61245  22225839.1174                   22225837.2544
  -3066764.36746  -2363540.15544  23766278.5634                   23766279.1564
  -5100705.85247  -3959053.26246  19984331.4774                   19984329.4734
   5419334.71147   4221810.29344  22882410.1414                   22882407.9344
  -7476056.05548  -5804994.50046  21167853.2344                   21167850.3524
   7833885.785 5                  24701012.570
   -186287.50848   -135428.57546  20221812.9844                   20221809.6994
  -2097114.18746  -1625070.15644  24221081.0474                   24221081.9884
 11  8 13 16 30  0.0000000  0  9G03G06G07G10G13G16G19G23G08
  -1750099.77047  -1350855.98845  20854513.7424                   20854512.8634
    899160.28147    708985.81545  22489749.4384                   22489748.7424
  -7132775.29348  -5526079.02445  22192929.3594                   22192927.4884
  -3174135.78546  -2447206.21043  23745846.4384                   23745846.9694
  -5230661.51647  -4060317.42147  19959602.0554                   19959599.7384
   5392656.85547   4201022.31344  22877333.2114                   22877331.0314
  -7635252.59847  -5929043.74046  21137558.8984                   21137556.0164
   -257758.52348   -191120.29446  20208212.4304                   20208209.1024
  -2280362.67246  -1767861.14643  24186209.8984                   24186209.9384
 11  8 13 16 30 30.0000000  0  9G03G06G07G10G13G16G19G23G08
  -1835047.48447  -1417049.02146  20838348.6884                   20838348.0044
    839281.65247    662327.13145  22478355.1094                   22478354.6174
  -7305787.49247  -5660893.71945  22160006.2034                   22160004.4184
  -3281135.38346  -2530582.54844  23725485.3524                   23725486.0164
  -5360156.78947  -4161222.84146  19934959.8754                   19934957.4964
   5365932.17247   4180197.87344  22872247.7034                   22872246.3404
  -7794011.59048  -6052752.04346  21107348.0164                   21107345.2934
   -328781.68748   -246463.03746  20194696.7894                   20194693.5354
  -2463770.17646  -1910776.01743  24151308.6024                   24151308.1334
 11  8 13 16 31  0.0000000  0  9G03G06G07G10G13G16G19G23G08
  -1919472.61747  -1482834.85745  20822283.1564                   20822282.5514
    779787.55947    615968.07745  22467033.6884                   22467033.3484
  -7478856.51247  -5795752.69145  22127072.1954                   22127070.2114
  -3387752.39146  -2613660.71844  23705196.9384                   23705197.9694
  -5489178.21547  -4261759.03546  19910407.7274                   19910406.0124
   5339170.59047   4159344.62944  22867154.7974                   22867153.8244
  -7952318.63347  -6176108.17046  21077223.2194                   21077220.4104
   -399346.10548   -301448.32546  20181269.3444                   20181265.5744
  -2647324.41446  -2053805.18543  24116379.0394                   24116379.1174
 11  8 13 16 31 30.0000000  0  9G03G06G07G10G13G16G19G23G08
   -427950.18447   -320609.59945  21106110.3984                   21106109.7074
   2296101.43047   1797511.31845  22755578.8444                   22755578.6294
  -6076553.03547  -4703048.66745  22393921.6414                   22393919.8244
  -1918560.90246  -1468836.22244  23984774.0634                   23984774.6414
  -4042297.23847  -3134319.32146  20185739.7504                   20185738.0164
   6887794.19547   5366064.27144  23161848.5784                   23161846.9454
  -6534743.10947  -5071503.87146  21346978.6804                   21346975.8674
   1105973.34048    871527.83246  20467722.0944                   20467718.4534
  -1255596.64846   -969341.97743  24381216.3284                   24381216.6134
 11  8 13 16 32  0.0000000  0  9G03G06G07G10G13G16G19G23G08
   -511327.99648   -385579.32145  21090244.3134                   21090243.0394
   2237375.97347   1751751.20145  22744403.5394                   22744402.8834
  -6249729.46147  -4837991.33945  22360967.5784                   22360966.0354
  -2024410.82846  -1551316.74343  23964632.0634                   23964632.2974
  -4170362.41047  -3234110.37247  20161370.0784                   20161367.9224
   6860957.90247   5345152.84744  23156741.7344                   23156740.3444
  -6692135.13747  -5194146.98846  21317028.2894                   21317025.2664
   1036329.11748    817259.59046  20454469.3594                   20454465.6954
  -1439440.37946  -1112596.79443  24346232.4614                   24346231.9924
 11  8 13 16 32 30.0000000  0  9G03G06G07G10G13G16G19G23G08
   -594195.18748   -450151.17545  21074475.1334                   21074473.9104
   2179020.54347   1706279.41745  22733299.0004                   22733298.1524
  -6422970.22347  -4972984.12645  22328000.3204                   22327999.0594
  -2129890.93446  -1633509.04043  23944559.4774                   23944560.5354
  -4297959.37547  -3333536.59346  20137089.1804                   20137087.2194
   6834069.80947   5324201.03045  23151624.7894                   23151624.0004
  -6849078.23847  -5316440.30846  21287162.6954                   21287159.8554
    967131.82848    763339.59546  20441301.2664                   20441297.7704
  -1623440.66447  -1255973.57743  24311218.0704                   24311218.4064
 11  8 13 16 33  0.0000000  0  9G03G06G07G10G13G16G19G23G08
   -676556.57448   -514328.88446  21058802.2194                   21058801.2074
   2121030.10947   1661092.02645  22722263.7114                   22722262.5984
  -6596277.93047  -5108029.08945  22295021.1254                   22295019.9884
  -2235006.03546  -1715416.92944  23924556.9224                   23924557.9804
  -4425090.04747  -3432599.46246  20112896.8674                   20112894.9144
   6807124.79347   5303204.88244  23146497.5634                   23146496.0864
  -7005573.82448  -5438384.92646  21257382.6564                   21257379.9574
    898377.37548    709764.67646  20428217.8594                   20428214.3954
  -1807601.04346  -1399475.10043  24276173.1724                   24276174.1644
 11  8 13 16 33 30.0000000  0  9G03G06G07G10G13G16G19G23G08
   -758411.43048   -578111.90846  21043225.7034                   21043225.0394
   2063404.52747   1616188.95044  22711297.6804                   22711296.3554
  -6769650.52347  -5243124.59845  22262029.4064                   22262028.4344
  -2339755.77347  -1797040.08744  23904622.9534                   23904624.2154
  -4551751.36348  -3531296.60846  20088794.5704                   20088792.2034
   6780122.82847   5282164.33044  23141359.1334                   23141357.8954
  -7161618.04748  -5559977.80946  21227688.3134                   21227685.6134
    830066.36748    656535.30246  20415218.0314                   20415215.2544
  -1991919.36346  -1543099.78143  24241097.9454                   24241099.1764
 11  8 13 16 34  0.0000000  0  9G03G06G07G10G13G16G19G23G08
   -839767.18748   -641506.01645  21027744.5704                   21027743.5474
   2006136.01247   1571564.12045  22700400.0004                   22700398.7074
  -6943093.18747  -5378274.71745  22229024.3284                   22229023.5594
  -2444147.40247  -1878384.24844  23884758.9454                   23884758.3324
  -4677948.18748  -3629631.80446  20064779.5704                   20064777.9064
   6753056.32847   5261073.51744  23136208.6334                   23136207.2304
  -7317214.53148  -5681221.80446  21198079.7894                   21198076.6524
    762192.12548    603646.25946  20402302.4614                   20402299.2814
  -2176401.75046  -1686852.24143  24205992.7274                   24205992.5944
 11  8 13 16 34 30.0000000  0  9G03G06G07G10G13G16G19G23G08
   -920620.84848   -704508.87445  21012358.1484                   21012357.0864
   1949226.62547   1527219.11045  22689570.8364                   22689570.0234
  -7116601.37948  -5513475.89345  22196007.3204                   22196005.7274
  -2548178.14147  -1959447.21744  23864962.7274                   23864963.2274
  -4803675.21548  -3727600.91547  20040854.4614                   20040852.8524
   6725927.03147   5239933.77044  23131046.1724                   23131045.0354
  -7472358.01248  -5802112.83046  21168556.6094                   21168553.6644
    694757.11748    551099.47746  20389470.2894                   20389466.5784
  -2361044.23046  -1830729.41743  24170856.8054                   24170855.9694
 11  8 13 16 35  0.0000000  0  9G03G06G07G10G13G16G19G23G08
  -1000978.20348   -767125.00845  20997066.9144                   20997065.6524
   1892670.00447   1483148.98045  22678808.4774                   22678808.3634
  -7290178.67648  -5648730.91946  22162976.1564                   22162974.5824
  -2651853.78547  -2040233.45644  23845233.9384                   23845234.0164
  -4928936.25047  -3825206.93946  20017018.4224                   20017016.3634
   6698728.62147   5218740.13544  23125871.0864                   23125869.0744
  -7627050.68048  -5922652.56246  21139119.6954                   21139116.2384
    627756.53548    498891.20546  20376720.3364                   20376716.8634
  -2545851.38746  -1974734.92244  24135688.7034                   24135688.3914
 11  8 13 16 35 30.0000000  0  9G03G06G07G10G13G16G19G23G08
  -1080840.16848   -829355.12645  20981869.4844                   20981868.5044
   1836464.83247   1439352.70745  22668113.0554                   22668112.7194
  -7463824.19948  -5784039.10345  22129932.6094                   22129931.2074
  -2755175.47747  -2120743.91044  23825572.3754                   23825572.3244
  -5053729.53548  -3922448.47246  19993271.0554                   19993269.0864
   6671459.93847   5197491.78844  23120682.2664                   23120679.9304
  -7781290.06647  -6042839.08746  21109768.4614                   21109765.6914
    561189.20348    447020.52646  20364053.3834                   20364049.5554
  -2730822.47346  -2118868.18044  24100489.9924                   24100490.0904
 11  8 13 16 36  0.0000000  0  9G03G06G07G10G13G16G19G23G08
  -1160199.60548   -891193.66146  20966767.9844                   20966767.3674
   1780617.30547   1395835.14445  22657484.8914                   22657484.9384
  -7637528.94548  -5919393.43445  22096877.4844                   22096876.2814
  -2858136.64146  -2200973.38744  23805979.4224                   23805980.0234
  -5178045.50048  -4019318.06446  19969614.6174                   19969612.8014
   6644127.38347   5176193.65244  23115480.2034                   23115478.4774
  -7935066.28947  -6162664.69946  21080505.9774                   21080503.3244
    495062.24648    395492.99946  20351469.6334                   20351465.9184
  -2915949.45746  -2263122.96643  24065260.9614                   24065261.8554
 11  8 13 16 36 30.0000000  0  9G03G06G07G10G13G16G19G23G08
  -1239056.28948   -952640.44445  20951762.0004                   20951761.6764
   1725127.03147   1352595.95345  22646926.4454                   22646925.2114
  -7811290.73047  -6054792.22345  22063811.6174                   22063810.4144
  -2960737.16046  -2280921.89144  23786455.2424                   23786456.2074
  -5301881.68448  -4115813.80247  19946049.3284                   19946047.1724
   6616730.72347   5154845.54544  23110267.0394                   23110265.9024
  -8088375.94548  -6282126.76246  21051332.2194                   21051329.7234
    429376.17648    344309.03346  20338969.8204                   20338966.3984
  -3101230.96946  -2407498.15443  24030003.1254                   24030003.0314
 11  8 13 16 37  0.0000000  0  9G03G06G07G10G13G16G19G23G08
  -1317411.35948  -1013696.35345  20936851.6024                   20936850.5204
   1669992.33247   1309633.82045  22636434.0704                   22636433.2114
  -7985108.64147  -6190234.73145  22030735.5394                   22030733.7774
  -3062978.05546  -2360590.14743  23766998.5474                   23767000.5044
  -5425236.71948  -4211934.62147  19922575.4614                   19922573.4804
   6589268.06647   5133446.01144  23105041.3754                   23105040.2034
  -8241216.86348  -6401223.56646  21022247.5084                   21022244.7074
    364130.21948    293467.99146  20326553.7504                   20326550.8014
  -3286666.56646  -2551993.36243  23994715.9844                   23994716.0204
 11  8 13 16 37 30.0000000  0  9G03G06G07G10G13G16G19G23G08
  -1395269.12148  -1074364.75046  20922035.8444                   20922034.6484
   1615209.01247   1266945.47144  22626009.0634                   22626008.0084
  -8158984.68747  -6325722.55045  21997647.9454                   21997646.4024
  -3164863.27747  -2439981.22444  23747611.1254                   23747611.9144
  -5548112.39148  -4307681.90746  19899193.2664                   19899191.1644
   6561735.73847   5111992.20444  23099801.9224                   23099799.6524
  -8393589.80148  -6519955.72246  20993251.8754                   20993249.1454
    299320.56348    242966.93646  20314221.1954                   20314217.7704
  -3472258.99246  -2696610.78043  23959399.0944                   23959398.7704
 11  8 13 16 38  0.0000000  0  9G03G06G07G10G13G16G19G23G08
    102794.05148     92957.19646  21207107.8284                   21207106.8754
   3136198.55547   2452132.11645  22915443.8594                   22915443.1254
  -6757490.17647  -5233648.88045  22264343.5474                   22264341.6174
  -1690969.10247  -1291492.31343  24028083.8284                   24028083.8984
  -4095081.50047  -3175450.05947  20175695.7664                   20175693.8594
   8109554.34047   6318084.55644  23394342.5084                   23394340.8954
  -6970065.73847  -5410716.18046  21264139.3914                   21264136.6804
   1810369.88748   1420407.93846  20601764.3054                   20601760.6644
  -2082579.41446  -1613743.55244  24223846.3284                   24223845.8754
 11  8 13 16 38 30.0000000  0  9G03G06G07G10G13G16G19G23G08
     25933.19148     33065.60445  21192481.8054                   21192480.7154
   3082117.37147   2409990.91345  22905153.0004                   22905151.9964
  -6931474.09047  -5369220.76646  22231235.2974                   22231234.2274
  -1792141.76646  -1370328.21444  24008831.6414                   24008831.3524
  -4216989.09848  -3270443.00746  20152497.6024                   20152495.3794
   8081882.43047   6296521.95544  23389076.1024                   23389075.1564
  -7121491.55548  -5528710.30346  21235324.2274                   21235321.2274
   1746434.99248   1370588.51446  20589597.9224                   20589594.3444
  -2268478.76246  -1758600.15544  24188470.7194                   24188470.5944
 11  8 13 16 39  0.0000000  0  9G03G06G07G10G13G16G19G23G08
    -50434.48448    -26441.69046  21177949.4774                   21177948.6214
   3028381.48047   2368118.75845  22894927.0314                   22894927.0434
  -7105513.79747  -5504836.09945  22198116.7664                   22198115.4224
  -1892963.71147  -1448890.82444  23989645.8754                   23989645.3914
  -4338414.27047  -3365060.03347  20129391.1094                   20129389.0084
   8054135.26247   6274900.75544  23383796.4304                   23383795.0554
  -7272443.96948  -5646335.54946  21206598.7894                   21206595.7934
   1682932.78148   1321106.24846  20577514.0234                   20577510.5124
  -2454534.42247  -1903578.49444  24153065.6564                   24153065.8444
 11  8 13 16 39 30.0000000  0  9G03G06G07G10G13G16G19G23G08
   -126306.52048    -85562.76646  21163511.5704                   21163510.4064
   2974992.37947   2326516.83545  22884767.8204                   22884767.9224
  -7279604.78947  -5640491.41845  22164988.5394                   22164986.8054
  -1993432.77046  -1527178.42044  23970526.5474                   23970527.5234
  -4459352.37947  -3459297.53046  20106377.4454                   20106375.1884
   8026314.64546   6253222.32444  23378502.4924                   23378500.8444
  -7422917.93048  -5763587.96746  21177964.7734                   21177961.5044
   1619865.76648   1271963.08946  20565512.7734                   20565509.3204
  -2640743.00447  -2048676.03644  24117630.9774                   24117631.7034
 11  8 13 16 40  0.0000000  0  9G03G06G07G10G13G16G19G23G08
   -201680.11348   -144295.45945  21149168.4844                   21149167.5044
   2921952.62147   2285187.14045  22874674.2504                   22874674.5744
  -7453741.98447  -5776182.73745  22131850.8754                   22131849.2034
  -2093545.98846  -1605188.77844  23951475.8054                   23951477.2974
  -4579798.03147  -3553151.30347  20083457.0704                   20083454.8954
   7998423.78946   6231489.16544  23373194.4064                   23373192.9494
  -7572907.06247  -5880462.60046  21149422.6414                   21149419.6254
   1557237.03148   1223161.44846  20553595.0314                   20553591.3284
  -2827099.92647  -2193889.20344  24082168.9224                   24082168.9024
 11  8 13 16 40 30.0000000  0 10G03G06G07G10G13G16G19G28G23G08
   -276566.97748   -202648.88146  21134917.9064                   21134917.0124
   2869250.34047   2244120.39445  22864645.3914                   22864645.9774
  -7627934.66047  -5911917.27245  22098703.3364                   22098701.8634
  -2193314.69546  -1682930.64944  23932490.5784                   23932491.2544
  -4699760.13348  -3646628.27947  20060629.2814                   20060627.3754
   7970450.59446   6209691.80244  23367871.9774                   23367870.3954
  -7722419.61747  -5996965.86046  21120971.2664                   21120968.1174
  10719282.22356   8362533.79653  24689958.9304                   24689960.0124
   1495035.46148   1174692.66346  20541758.4144                   20541754.8594
  -3013614.51247  -2339225.15644  24046675.7114                   24046675.9774
 11  8 13 16 41  0.0000000  0 10G03G06G07G10G13G16G19G28G23G08
   -350982.52048   -260635.02245  21120757.1954                   21120756.0904
   2816869.02747   2203303.73245  22854677.8364                   22854677.2774
  -7802196.38747  -6047705.62445  22065542.4614                   22065540.7854
  -2292755.11746  -1760416.71843  23913567.0004                   23913568.5274
  -4819252.31248  -3739739.06347  20037890.7664                   20037888.8284
   7942379.12146   6187817.90144  23362529.7814                   23362529.0314
  -7871468.37947  -6113107.73846  21092608.2114                   21092605.0354
  10526637.00446   8212420.70143  24653299.5554                   24653300.7814
   1433245.23048   1126544.42246  20529999.9304                   20529996.4104
  -3200301.58647  -2484695.52644  24011150.5394                   24011150.2234
 11  8 13 16 41 30.0000000  0 10G03G06G07G10G13G16G19G28G23G08
   -424930.65648   -318256.95645  21106685.1644                   21106684.3164
   2764804.50847   2162733.95445  22844770.5784                   22844769.6804
  -7976528.46547  -6183548.79445  22032368.0944                   22032366.2274
  -2391870.68446  -1837649.64743  23894706.2974                   23894707.1914
  -4938276.00047  -3832484.82046  20015241.2034                   20015239.1174
   7914205.56646   6165864.43144  23357168.3594                   23357168.1414
  -8020054.03147  -6228888.76346  21064333.1804                   21064330.3754
  10334086.39546   8062381.26843  24616658.8284                   24616659.1414
   1371862.75848   1078713.89446  20518319.2734                   20518315.9104
  -3387162.93747  -2630301.75444  23975592.0554                   23975592.2464
 11  8 13 16 42  0.0000000  0 10G03G06G07G10G13G16G19G28G23G08
   -498415.01248   -375517.50445  21092701.8594                   21092701.2274
   2713053.14147   2122408.18245  22834922.4534                   22834921.8444
  -8150931.56248  -6319447.31345  21999180.4844                   21999178.4384
  -2490665.09446  -1914632.31744  23875907.1644                   23875908.1994
  -5056831.91847  -3924866.06646  19992680.9694                   19992678.4804
   7885926.65646   6143828.83444  23351786.5784                   23351785.2894
  -8168176.44547  -6344308.79846  21036146.6024                   21036143.7854
  10141629.40246   7912414.85343  24580035.5554                   24580035.4614
   1310885.40248   1031199.03846  20506715.6804                   20506712.2704
  -3574200.33647  -2776045.09344  23939999.9454                   23940000.4344
 11  8 13 16 42 30.0000000  0 10G03G06G07G10G13G16G19G28G23G08
   -571431.64148   -432413.60345  21078807.1094                   21078805.9574
   2661617.91847   2082328.79144  22825134.6644                   22825133.8984
  -8325399.81248  -6455396.58345  21965980.0634                   21965978.3364
  -2589134.82046  -1991362.00644  23857168.9454                   23857169.8954
  -5174914.04348  -4016878.11047  19970210.5554                   19970208.4774
   7857545.90646   6121713.90544  23346386.2974                   23346385.1454
  -8315828.89847  -6459362.63346  21008049.0314                   21008046.2624
   9949271.71946   7762525.80043  24543430.3834                   24543430.4344
   1250316.54748    984002.50446  20495189.6884                   20495186.4304
  -3761408.38747  -2921921.47344  23904375.4454                   23904376.0434
 11  8 13 16 43  0.0000000  0 11G03G06G07G10G13G16G19G28G23G08G11
   -643975.05148   -488940.94445  21065002.2664                   21065001.0314
   2610503.80547   2042499.55245  22815407.8914                   22815407.7814
  -8499925.62548  -6591390.69846  21932769.0554                   21932767.2814
  -2687274.39547  -2067834.47543  23838493.8444                   23838493.2854
  -5292514.78947  -4108515.08146  19947831.5314                   19947830.0274
   7829068.56346   6099523.71044  23340967.1884                   23340966.2704
  -8463002.75848  -6574043.55646  20980043.1334                   20980039.5634
   9757020.90646   7612720.03943  24506846.4454                   24506845.9964
   1190162.02748    937128.81846  20483743.0394                   20483739.4384
  -3948779.70747  -3067925.03344  23868719.4694                   23868720.1334
  10719366.50416                  24677540.773
 11  8 13 16 43 30.0000000  0 11G03G06G07G10G13G16G19G28G23G08G11
   -716055.69948   -545107.70445  21051285.9144                   21051284.3674
   2559700.29747   2002912.36445  22805740.5164                   22805739.8364
  -8674516.69147  -6727435.67846  21899545.3054                   21899543.8594
  -2785094.15247  -2144057.68943  23819879.4844                   23819879.0904
  -5409641.73047  -4199782.84647  19925543.3524                   19925541.2384
   7800484.79346   6077250.57944  23335528.8054                   23335526.8134
  -8609705.05147  -6688357.01246  20952126.3834                   20952123.3714
   9564869.09046   7462991.41042  24470280.1024                   24470279.5044
   1130411.96948    890570.30446  20472372.5554                   20472369.2194
  -4136322.90647  -3214062.56944  23833031.6954                   23833030.9924
  10525366.496 6                  24640624.320
 11  8 13 16 44  0.0000000  0 11G03G06G07G10G13G16G19G28G23G08G11
   -787676.25848   -600915.94945  21037656.9064                   21037655.9804
   2509204.05947   1963564.61244  22796130.8134                   22796131.2114
  -8849173.09047  -6863531.56346  21866309.4844                   21866307.8404
  -2882596.86747  -2220033.88043  23801325.3364                   23801325.0004
  -5526295.10247  -4290681.59946  19903344.9384                   19903342.8874
   7771791.41046   6054892.04244  23330068.6724                   23330066.6024
  -8755935.67247  -6802302.93946  20924299.7194                   20924296.3244
   9372815.57445   7313339.38342  24433733.6024                   24433733.5004
   1071063.73048    844324.88146  20461079.3054                   20461076.1174
  -4324038.85547  -3360334.64844  23797310.3674                   23797309.6174
  10331107.992 6                  24603657.680
 11  8 13 16 44 30.0000000  0 11G03G06G07G10G13G16G19G28G23G08G11
   -858833.52048   -656363.18645  21024116.2584                   21024115.1024
   2459017.75447   1924458.37144  22786580.3914                   22786580.9344
  -9023889.37147  -6999674.09646  21833061.7974                   21833060.1564
  -2979779.44147  -2295760.55743  23782831.4694                   23782831.1024
  -5642469.92648  -4381207.44946  19881237.6954                   19881235.9064
   7742992.00446   6032450.95644  23324588.6254                   23324587.2974
  -8901688.15247  -6915876.29446  20896564.1804                   20896560.8404
   9180865.46545   7163768.00842  24397206.2344                   24397207.2194
   1012120.62548    798395.15546  20449862.9454                   20449859.6374
  -4511922.66047  -3506737.64044  23761557.0314                   23761556.7114
  10136598.410 6                  24566643.070
 11  8 13 16 45  0.0000000  0 11G03G06G07G10G13G16G19G28G23G08G11
    645899.17248    516155.79245  21310457.5474                   21310456.1454
   3984567.34447   3113198.27544  23076883.6564                   23076882.0664
  -7623232.35247  -5908253.03146  22099598.0234                   22099596.6564
  -1501213.91846  -1143631.65043  24064193.7584                   24064193.6684
  -4182735.23447  -3243751.87146  20159015.7034                   20159014.0274
   9289512.23046   7237531.59344  23618881.4064                   23618880.0084
  -7471530.09448  -5801467.40146  21168714.3984                   21168710.8404
  10564451.77746   8241887.24642  24660494.4304                   24660495.0824
   2529009.47747   1980386.44446  20738516.8754                   20738513.7194
  -3124541.55547  -2425661.38244  24025567.3364                   24025566.9844
  11517272.85546   9007405.18452  24829377.4534                   24829379.2304
 11  8 13 16 45 30.0000000  0 11G03G06G07G10G13G16G19G28G23G08G11
    575679.72748    461439.29945  21297094.8054                   21297094.3204
   3935011.23447   3074583.09244  23067453.2424                   23067451.7624
  -7798048.91847  -6044473.72245  22066331.6174                   22066329.8484
  -1597744.72747  -1218850.50843  24045824.2894                   24045825.3674
  -4297933.89548  -3333517.07046  20137094.5864                   20137092.5394
   9260512.18046   7214934.09644  23613362.2894                   23613361.0634
  -7616305.61748  -5914279.48646  21141164.1884                   21141160.9774
  10372726.56646   8092491.04742  24624010.7894                   24624010.4304
   2470888.85548   1935097.62146  20727457.3284                   20727453.7344
  -3312743.84847  -2572312.53044  23989753.4534                   23989753.5004
  11322284.38346   8855466.16842  24792272.5234                   24792272.5474
 11  8 13 16 46  0.0000000  0 11G03G06G07G10G13G16G19G28G23G08G11
    505931.50048    407090.00745  21283822.5944                   21283821.9344
   3885772.15247   3036214.95544  23058083.4144                   23058081.6484
  -7972909.45347  -6180728.68046  22033056.4534                   22033055.1454
  -1693947.52047  -1293813.73444  24027517.6484                   24027518.6054
  -4412638.17648  -3422897.04946  20115266.6564                   20115264.7194
   9231414.56346   7192260.58244  23607825.5944                   23607823.6094
  -7760585.28547  -6026705.19846  21113708.4304                   21113705.3014
  10181119.57046   7943186.88342  24587548.6954                   24587548.9224
   2413182.10248   1890131.29646  20716475.9144                   20716472.8094
  -3501100.29347  -2719083.75644  23953910.0864                   23953910.2734
  11127065.00846   8703347.22742  24755122.3834                   24755123.3594
 11  8 13 16 46 30.0000000  0 11G03G06G07G10G13G16G19G28G23G08G11
    436659.37948    353111.70045  21270640.1484                   21270640.0864
   3836854.55947   2998097.31144  23048774.8204                   23048774.3284
  -8147806.00847  -6317011.69545  21999774.8834                   21999773.6374
  -1789817.24647  -1368517.46343  24009274.0474                   24009274.3674
  -4526841.00448  -3511886.29046  20093534.6174                   20093532.9534
   9202224.55146   7169515.03944  23602270.4304                   23602268.7584
  -7904361.30548  -6138738.44946  21086349.1334                   21086345.9064
   9989637.92246   7793980.44142  24551111.2584                   24551111.9414
   2355894.56348   1845491.60946  20705574.7344                   20705571.2384
  -3689603.34447  -2865969.19844  23918039.2194                   23918038.7464
  10931624.15246   8551055.78542  24717931.3594                   24717933.6884
 11  8 13 16 47  0.0000000  0 11G03G06G07G10G13G16G19G28G23G08G11
    367861.73848    299503.13445  21257548.6174                   21257547.8794
   3788256.19147   2960228.40144  23039527.5084                   23039526.6884
  -8322738.08247  -6453322.39346  21966486.4224                   21966484.9534
  -1885355.88346  -1442963.18044  23991093.8914                   23991095.1374
  -4640542.10548  -3600484.56646  20071898.3364                   20071896.5354
   9172940.35946   7146696.13844  23596697.8984                   23596696.7384
  -8047632.50047  -6250378.32046  21059085.2814                   21059082.3324
   9798282.04747   7644872.07743  24514698.1724                   24514698.3014
   2299024.47348   1801177.23646  20694752.6564                   20694749.1024
  -3878253.41047  -3012969.22244  23882140.1334                   23882139.8554
  10735963.87146   8398593.35242  24680699.0004                   24680699.4734
 11  8 13 16 47 30.0000000  0 11G03G06G07G10G13G16G19G28G23G08G11
    299537.19148    246263.19845  21244546.5234                   21244546.1174
   3739975.18847   2922606.82045  23030339.3134                   23030339.5944
  -8497703.98847  -6589659.44645  21933191.5634                   21933189.9964
  -1980564.85546  -1517152.05243  23972976.3134                   23972977.1174
  -4753740.46548  -3688691.09146  20050356.9924                   20050355.3244
   9143561.23047   7123803.27744  23591107.4534                   23591106.6334
  -8190396.80548  -6361623.22846  21031918.1334                   21031915.1414
   9607052.56347   7495862.09043  24478308.3914                   24478309.0004
   2242570.84048   1757187.35846  20684009.9304                   20684006.0314
  -4067049.85547  -3160083.31443  23846213.1484                   23846212.9024
  10540087.02346   8245962.06642  24643423.7814                   24643424.3324
 11  8 13 16 48  0.0000000  0 11G03G06G07G10G13G16G19G28G23G08G11
    231684.38748    193390.85545  21231634.7734                   21231633.9774
   3692010.21147   2885231.45544  23021212.1804                   23021211.9654
  -8672702.51647  -6726021.91746  21899890.5314                   21899889.0514
  -2075445.48047  -1591085.02444  23954921.7424                   23954922.2424
  -4866435.00448  -3776505.03446  20028912.2974                   20028909.9494
   9114086.21546   7100835.66044  23585498.3524                   23585497.8444
  -8332652.60248  -6472471.89946  21004847.8204                   21004844.7624
   9415951.02047   7346951.82044  24441942.9064                   24441944.1484
   2186532.62548   1713521.19946  20673346.2344                   20673342.7344
  -4255991.70747  -3307310.67843  23810259.0944                   23810258.8714
  10343996.40246   8093164.29043  24606109.5944                   24606109.9574
 11  8 13 16 48 30.0000000  0 11G03G06G07G10G13G16G19G28G23G08G11
    164306.12948    140888.29645  21218813.4614                   21218812.6524
   3644363.64547   2848104.21744  23012144.8444                   23012145.1684
  -8847728.18447  -6862405.55446  21866584.5004                   21866582.8714
  -2169994.70746  -1664759.78643  23936928.9064                   23936929.4304
  -4978620.18048  -3863922.07146  20007564.0164                   20007562.0944
   9084518.24246   7077795.61844  23579872.0314                   23579871.4224
  -8474393.73048  -6582919.51746  20977875.2274                   20977872.1484
   9224982.16447   7198144.99444  24405602.7894                   24405603.7934
   2130913.00448   1670181.19746  20662762.3134                   20662758.7274
  -4445074.12147  -3454647.62143  23774277.9144                   23774277.2664
  10147699.54346   7940205.78543  24568755.5004                   24568755.7194
 11  8 13 16 49  0.0000000  0 11G03G06G07G10G13G16G19G28G23G08G11
     97399.99648     88753.61745  21206081.5084                   21206080.9104
   3597032.96147   2811223.12044  23003138.3444                   23003137.2664
  -9022780.15648  -6998809.69446  21833273.1414                   21833271.2624
  -2264215.06646  -1738178.26743  23918999.3284                   23918999.6374
  -5090295.93448  -3950942.16546  19986312.6334                   19986311.1844
   9054855.74646   7054681.91144  23574228.0234                   23574226.3794
  -8615619.38748  -6692965.47746  20951000.8204                   20950997.5634
   9034146.12946   7049441.65244  24369287.0704                   24369288.5634
   2075709.88748   1627165.74746  20652257.2114                   20652253.7074
  -4634297.18747  -3602094.10044  23738270.0784                   23738269.7624
   9951198.31646   7787088.10043  24531363.0314                   24531362.9534
 11  8 13 16 49 30.0000000  0 11G03G06G07G10G13G16G19G28G23G08G11
     30966.16048     36986.94845  21193439.7664                   21193438.9414
   3550018.16847   2774588.23044  22994191.5864                   22994191.8634
  -9197855.41447  -7135231.96846  21799957.4924                   21799955.7154
  -2358106.20746  -1811340.29443  23901132.7344                   23901132.1764
  -5201459.61747  -4037563.21946  19965159.1954                   19965157.2114
   9025098.96046   7031494.69544  23568565.7194                   23568564.1174
  -8756326.48448  -6802607.36446  20924225.4774                   20924222.1724
   8843445.19546   6900843.60444  24332997.7734                   24332999.5164
   2020923.79348   1584475.25846  20641831.9224                   20641828.6024
  -4823658.76647  -3749648.53743  23702235.4774                   23702234.7504
   9754497.26946   7633814.62543  24493932.1174                   24493932.1454
 11  8 13 16 50  0.0000000  0 11G03G06G07G10G13G16G19G28G23G08G11
    -34997.52348    -14413.34445  21180887.3524                   21180886.0864
   3503316.01647   2738196.89944  22985304.6484                   22985304.9844
  -9372953.92647  -7271672.36646  21766637.2504                   21766635.2544
  -2451670.70747  -1884247.70643  23883328.0554                   23883327.9884
  -5312111.73048  -4123785.67046  19944102.8524                   19944100.8054
   8995245.72347   7008232.40444  23562884.7664                   23562882.9534
  -8896514.46948  -6911844.74446  20897548.5004                   20897545.1134
   8652879.14546   6752350.66444  24296734.3204                   24296735.2774
   1966552.02748   1542107.60746  20631485.4614                   20631482.0634
  -5013159.18746  -3897311.18443  23666174.5634                   23666174.4614
   9557598.08246   7480386.65543  24456462.7194                   24456463.2384
 11  8 13 16 50 30.0000000  0 11G03G06G07G10G13G16G19G28G23G08G11
   -100492.40248    -65448.34945  21168423.9454                   21168422.8094
   3456925.46147   2702048.38144  22976476.6644                   22976476.9224
  -9548073.62947  -7408129.27946  21733312.8594                   21733311.1484
  -2544909.60946  -1956901.36943  23865584.9614                   23865584.9414
  -5422251.26648  -4209608.71246  19923143.8204                   19923142.1844
   8965295.63447   6984894.58444  23557185.3204                   23557183.9884
  -9036181.03948  -7020675.84146  20870970.4924                   20870967.5004
   8462449.25846   6603963.86543  24260496.5004                   24260496.9304
   1912593.95348   1500062.31246  20621217.6724                   20621214.2114
  -5202797.25047  -4045081.10144  23630086.9224                   23630087.2034
   9360504.09446   7326807.11243  24418958.2504                   24418958.7304
 11  8 13 16 51  0.0000000  0 11G03G06G07G10G13G16G19G28G23G08G11
   -165516.95348   -116116.85045  21156050.1094                   21156049.2274
   3410847.71547   2666143.59644  22967707.8834                   22967708.5824
  -9723209.98047  -7544599.15046  21699985.3914                   21699983.7114
  -2637821.19146  -2029300.07143  23847904.6254                   23847903.9964
  -5531874.28548  -4295029.26046  19902283.1564                   19902281.7344
   8935250.90646   6961483.08943  23551467.6334                   23551466.6564
  -9175321.78548  -7129097.19146  20844492.9924                   20844489.8284
   8272159.71146   6455686.39643  24224285.7974                   24224285.9804
   1859051.55148   1458340.92346  20611028.7344                   20611025.7774
  -5392568.94947  -4192955.10644  23593975.1024                   23593975.3284
   9163221.36746   7173080.39542  24381414.8594                   24381415.9184
 11  8 13 16 51 30.0000000  0 11G03G06G07G10G13G16G19G28G23G08G11
   1345347.94948   1061180.44945  21443558.2114                   21443557.9104
   4940501.23447   3858081.36544  23258791.8524                   23258791.6564
  -8322937.20747  -6453477.50946  21966448.2974                   21966446.9184
  -1154985.41846   -873843.63643  24130078.7894                   24130079.5594
  -4065557.52048  -3152444.78946  20181314.1564                   20181312.3754
  10480530.23446   8165596.86643  23845524.7664                   23845523.4264
  -7738511.68748  -6009504.90546  21117908.8054                   21117905.4734
   9657436.13746   7535122.62543  24487894.9454                   24487896.0204
   3381343.98048   2644542.78246  20900711.0394                   20900708.0634
  -4007048.62147  -3113328.80043  23857630.9224                   23857631.0084
  10541178.27746   8246813.18042  24643632.1564                   24643632.0634
 11  8 13 16 52  0.0000000  0 11G03G06G07G10G13G16G19G28G23G08G11
   1281258.02748   1011240.22045  21431362.3914                   21431361.7154
   4895042.01647   3822658.57744  23250141.4384                   23250141.0784
  -8498104.39148  -6589971.40046  21933115.5314                   21933114.0314
  -1247248.89146   -945737.32743  24112521.6644                   24112521.9924
  -4174146.23048  -3237059.39746  20160650.2034                   20160648.7034
  10450291.59046   8142034.22043  23839770.2344                   23839769.1764
  -7876597.63748  -6117104.34646  21091632.0704                   21091628.9454
   9467427.38746   7387063.99343  24451737.5084                   24451738.4384
   3328627.29748   2603464.80746  20890679.6094                   20890676.4024
  -4197087.27347  -3261410.84444  23821468.2664                   23821467.9924
  10343525.56345   8092798.13342  24606019.8204                   24606019.3714
 11  8 13 16 52 30.0000000  0 11G03G06G07G10G13G16G19G28G23G08G11
   1217633.01247    961662.26545  21419254.9614                   21419254.1254
   4849889.07447   3787474.41844  23241549.7274                   23241548.8834
  -8673284.97348  -6726475.74946  21899779.6024                   21899778.2974
  -1339190.91046  -1017380.50443  24095025.9304                   24095025.9344
  -4282216.55148  -3321270.05346  20140085.4924                   20140083.5704
  10419954.02346   8118394.53743  23833997.4224                   23833996.1844
  -8014154.36747  -6224291.39546  21065455.9924                   21065452.9304
   9277560.14146   7239115.60043  24415607.5234                   24415608.0904
   3276321.34848   2562706.90046  20880726.4064                   20880722.6844
  -4387258.27347  -3409595.98144  23785279.1174                   23785278.8634
  10145691.96146   7938642.22742  24568373.1884                   24568372.4574
 11  8 13 16 53  0.0000000  0 11G03G06G07G10G13G16G19G28G23G08G11
   1154474.78547    912448.04545  21407236.4304                   21407235.5944
   4805044.85947   3752530.86345  23233016.2504                   23233015.5634
  -8848473.55548  -6862986.31346  21866442.2034                   21866440.6764
  -1430808.59046  -1088770.96243  24077592.1414                   24077592.0634
  -4389764.54348  -3405073.70346  20119619.7974                   20119618.1454
  10389520.72346   8094680.20843  23828206.1484                   23828205.2384
  -8151176.26648  -6331061.71046  21039381.1174                   21039378.6684
   9087838.90646   7091280.94043  24379504.8674                   24379505.7274
   3224428.58648   2522270.94746  20870851.4614                   20870848.2344
  -4577557.11347  -3557880.78044  23749066.4384                   23749066.4654
   9947684.33645   7784350.66442  24530693.0944                   24530692.9654
 11  8 13 16 53 30.0000000  0 11G03G06G07G10G13G16G19G28G23G08G11
   1091780.52747    863595.34145  21395305.9144                   21395305.5204
   4760505.36747   3717824.73444  23224540.1024                   23224540.0634
  -9023670.50448  -6999503.42246  21833103.3134                   21833102.1764
  -1522105.82846  -1159911.67543  24060217.7504                   24060218.5704
  -4496790.87148  -3488470.86346  20099253.2584                   20099251.5864
  10358988.85547   8070889.05044  23822397.1564                   23822394.7344
  -8287663.68047  -6437415.53746  21013408.6254                   21013405.6884
   8898262.87546   6943559.43443  24343428.7734                   24343430.2734
   3172945.94548   2482154.55846  20861054.7584                   20861051.5824
  -4767984.89847  -3706266.03544  23712829.7734                   23712829.2974
   9749503.80546   7629924.37542  24492981.1024                   24492980.7504
 11  8 13 16 54  0.0000000  0 11G03G06G07G10G13G16G19G28G23G08G11
   1029550.08247    815104.05945  21383463.8984                   21383463.7304
   4716270.45746   3683355.94044  23216122.2274                   23216122.1174
  -9198872.66847  -7136024.57146  21799763.4064                   21799762.5554
  -1613082.49246  -1230802.61043  24042906.3204                   24042906.5784
  -4603293.43748  -3571459.89746  20078986.5864                   20078984.4224
  10328359.50447   8047021.99244  23816568.0784                   23816566.8914
  -8423613.50048  -6543350.45246  20987538.6414                   20987534.9884
   8708834.30146   6795952.83743  24307382.0704                   24307380.8674
   3121873.69548   2442357.95646  20851335.6414                   20851332.7274
  -4958538.87947  -3854749.67644  23676568.1254                   23676568.5314
   9551155.08645   7475367.05142  24455235.6804                   24455236.1454
 11  8 13 16 54 30.0000000  0 11G03G06G07G10G13G16G19G28G23G08G11
    967784.13747    766974.73545  21371710.1414                   21371710.1804
   4672341.16847   3649125.26944  23207762.5394                   23207762.7774
  -9374075.87548  -7272546.54646  21766423.4774                   21766422.1484
  -1703737.28946  -1301442.75043  24025655.3594                   24025655.6644
  -4709268.73848  -3654038.07847  20058819.9224                   20058818.2854
  10297634.06646   8023080.03944  23810721.2194                   23810719.6644
  -8559022.02048  -6648863.58346  20961770.5704                   20961767.7814
   8519556.62947   6648463.79543  24271364.2274                   24271362.6524
   3071213.15248   2402882.16846  20841695.4614                   20841692.6094
  -5149215.64547  -4003328.95044  23640283.7974                   23640284.2194
   9352643.98446   7320683.20742  24417460.2504                   24417460.7624
 11  8 13 16 55  0.0000000  0 11G03G06G07G10G13G16G19G28G23G08G11
    906486.19947    719210.08245  21360045.7664                   21360044.9414
   4628720.18846   3615134.81744  23199462.6024                   23199462.5474
  -9549273.73848  -7409064.35246  21733084.3284                   21733083.0234
  -1794067.25046  -1371829.80943  24008466.3444                   24008467.2034
  -4814711.62948  -3736201.38746  20038755.0004                   20038753.2304
  10266816.37946   7999066.20444  23804857.3364                   23804855.3954
  -8693882.88748  -6753949.97746  20936107.8444                   20936104.6214
   8330435.48847   6501096.74443  24235375.0554                   24235375.3134
   3020967.71948   2363729.84746  20832134.1884                   20832131.0354
  -5340010.11747  -4151999.90844  23603976.4774                   23603976.6804
   9153977.84846   7165878.50842  24379655.8284                   24379655.9184
 11  8 13 16 55 30.0000000  0 11G03G06G07G10G13G16G19G28G23G08G11
    845655.64847    671809.62845  21348470.3524                   21348469.5164
   4585406.89147   3581384.20444  23191219.8444                   23191220.1454
  -9724463.55148  -7545575.88546  21699747.1094                   21699745.5824
  -1884072.99646  -1441964.17543  23991339.0554                   23991338.5434
  -4919620.07448  -3817948.25046  20018791.3834                   20018789.7274
  10235907.10946   7974981.00744  23798975.6414                   23798973.8484
  -8828193.78948  -6858607.82346  20910549.0944                   20910546.1724
   8141472.56346   6353852.98843  24199415.9534                   24199417.8594
   2971137.21148   2324900.85946  20822651.6804                   20822648.4184
  -5530919.73447  -4300760.62844  23567647.8364                   23567647.1484
   8955161.28946   7010956.62142  24341822.5314                   24341821.6804
 11  8 13 16 56  0.0000000  0 11G03G06G07G10G13G16G19G28G23G08G11
    785292.24647    624773.18345  21336983.3524                   21336982.4654
   4542401.11746   3547873.12744  23183036.0784                   23183035.1684
  -9899642.44548  -7682078.93246  21666411.2344                   21666409.8094
  -1973754.18046  -1511845.63943  23974273.0164                   23974272.4534
  -5023991.84048  -3899276.91247  19998929.9534                   19998928.6564
  10204906.80146   7950824.87344  23793075.3674                   23793074.4574
  -8961951.51248  -6962834.62046  20885096.1804                   20885092.7154
   7952670.22746   6206734.35743  24163487.9774                   24163489.9614
   2921721.72748   2286395.24846  20813248.0944                   20813245.0704
  -5721942.12547  -4449609.20244  23531297.4694                   23531296.4454
   8756198.85245   6855921.07442  24303960.6724                   24303960.7034
 11  8 13 16 56 30.0000000  0 11G03G06G07G10G13G16G19G28G23G08G11
    725395.85547    578100.64645  21325585.4774                   21325584.6644
   4499702.11346   3514601.17644  23174910.5394                   23174910.0274
 -10074807.56648  -7818571.23146  21633078.5234                   21633077.3594
  -2063111.49646  -1581474.78143  23957268.4064                   23957268.7384
  -5127825.59048  -3980186.36246  19979171.3754                   19979169.5744
  10173815.44546   7926597.80343  23787158.8984                   23787157.6174
  -9095153.92248  -7066628.70446  20859748.2584                   20859745.0904
   7764030.66047   6059742.62843  24127591.3834                   24127592.4884
   2872720.75048   2248212.62146  20803924.0164                   20803920.6254
  -5913075.37147  -4598544.22444  23494925.9534                   23494925.5124
   8557094.71146   6700775.10942  24266071.4774                   24266072.7854
 11  8 13 16 57  0.0000000  0 11G03G06G07G10G13G16G19G28G23G08G11
    665965.06647    531790.90045  21314276.3204                   21314275.6644
   4457308.79746   3481567.39944  23166844.0784                   23166843.0704
 -10249956.43048  -7955050.84746  21599748.7894                   21599747.5004
  -2152145.55146  -1650852.00343  23940325.8524                   23940326.9024
  -5231119.84048  -4060675.41146  19959515.1094                   19959513.6764
  10142633.34046   7902300.01044  23781225.3054                   23781224.3874
  -9227798.84848  -7169988.38146  20834506.9454                   20834503.6334
   7575555.00046   5912878.54943  24091725.2584                   24091725.7234
   2824133.91448   2210352.71346  20794677.9304                   20794674.8444
  -6104317.89547  -4747564.33244  23458533.3674                   23458533.2074
   8357852.89546   6545521.82643  24228157.3444                   24228159.0864
 11  8 13 16 57 30.0000000  0 11G03G06G07G10G13G16G19G28G23G08G11
    606999.00447    485843.30245  21303055.1644                   21303054.4694
   4415219.91046   3448770.80544  23158834.3524                   23158833.7544
 -10425087.12548  -8091516.32446  21566422.4924                   21566420.8794
  -2240857.62547  -1719978.36044  23923445.4064                   23923445.9574
  -5333873.53948  -4140743.24546  19939961.8284                   19939960.1134
  10111360.10546   7877931.23043  23775274.1334                   23775273.9924
  -9359884.41448  -7272912.19446  20809371.8134                   20809368.6724
   7387244.78147   5766143.38843  24055891.1484                   24055890.4844
   2775960.12148   2172814.65446  20785510.6024                   20785507.7544
  -6295668.20346  -4896668.42244  23422120.8284                   23422121.2464
   8158476.71546   6390163.85743  24190218.2424                   24190217.9734
 11  8 13 16 58  0.0000000  0 11G03G06G07G10G13G16G19G28G23G08G11
   2123919.45347   1667859.20245  21591715.7114                   21591715.3404
   5948856.60946   4643812.38844  23450676.4304                   23450675.3094
  -9024770.23448  -7000360.28246  21832893.9534                   21832892.6174
   -753824.75846   -561251.48344  24206417.9694                   24206418.8594
  -3860661.02748  -2992785.46846  20220305.0084                   20220303.0864
  11655417.73846   9081092.89443  24069099.8054                   24069099.1994
  -7915983.38747  -6147794.51546  21084137.0634                   21084133.9804
   8774528.45747   6847143.73843  24319882.4384                   24319881.4844
   4303621.25848   3363199.91946  21076215.3984                   21076212.1844
  -4911697.54346  -3818249.72744  23685481.8524                   23685481.6524
   9534398.08246   7462310.39643  24452046.7504                   24452047.7584
 11  8 13 16 58 30.0000000  0 11G03G06G07G10G13G16G19G28G23G08G11
   2065885.02348   1622637.53045  21580672.1564                   21580671.5274
   5907378.04746   4611491.37844  23442782.2504                   23442782.2424
  -9199852.33248  -7136787.87846  21799577.0474                   21799574.7894
   -841890.55546   -629874.22943  24189659.1414                   24189660.2704
  -3962324.86748  -3072004.05847  20200958.7894                   20200957.4344
  11623967.09846   9056585.82243  24063115.1414                   24063113.0984
  -8046939.46147  -6249838.20446  21059216.8984                   21059213.8634
   8586557.87147   6700673.22543  24284112.8134                   24284111.7774
   4256276.35948   3326307.74746  21067205.9924                   21067202.8874
  -5103253.87946  -3967514.34344  23649029.9304                   23649029.5234
   9334769.96146   7306756.12843  24414059.0704                   24414059.8914
 11  8 13 16 59  0.0000000  0 11G03G06G07G10G13G16G19G28G23G08G11
   2008313.49648   1577776.57945  21569716.7034                   21569715.6844
   5866202.09846   4579406.18544  23434947.5164                   23434947.3674
  -9374907.60248  -7273194.57446  21766265.2504                   21766263.5434
   -929635.99246   -698247.35143  24172962.4774                   24172961.8444
  -4063442.97748  -3150797.41146  20181716.7584                   20181715.1174
  11592426.75046   9032008.82943  24057111.4144                   24057111.5394
  -8177329.22748  -6351440.62346  21034404.8054                   21034401.6644
   8398758.47747   6554336.14043  24248376.0554                   24248375.4654
   4209343.78548   3289736.84946  21058274.9694                   21058271.8094
  -5294911.19146  -4116857.68844  23612558.3134                   23612558.3914
   9135020.75446   7151107.44943  24376047.4614                   24376048.8754
 11  8 13 16 59 30.0000000  0 11G03G06G07G10G13G16G19G28G23G08G11
   1951205.87547   1533277.09645  21558849.8364                   21558848.9414
   5825329.32046   4547557.23844  23427169.6024                   23427169.5904
  -9549931.88747  -7409577.12846  21732959.2814                   21732957.0234
  -1017059.81246   -766369.83643  24156325.8674                   24156326.0354
  -4164012.48848  -3229163.29746  20162579.1724                   20162577.0314
  11560798.52746   9007363.38543  24051093.7034                   24051092.4454
  -8307148.67248  -6452598.63246  21009700.9614                   21009697.8404
   8211133.27747   6408134.72143  24212671.8444                   24212671.3284
   4162824.64548   3253488.12946  21049422.6804                   21049419.3874
  -5486666.21146  -4266277.17143  23576068.7344                   23576068.7814
   8935155.91846   6995368.71843  24338014.6024                   24338015.2934
 11  8 13 17  0  0.0000000  0 11G03G06G07G10G13G16G19G28G23G08G11
   1894563.67647   1489140.30045  21548070.9694                   21548069.6954
   5784760.86746   4515945.42144  23419449.3364                   23419449.9304
  -9724920.27348  -7545931.73546  21699659.6644                   21699658.2234
  -1104161.05546   -834241.00943  24139750.7034                   24139751.9304
  -4264029.93048  -3307098.98147  20143546.7194                   20143544.7974
  11529084.62146   8982651.16843  24045059.0474                   24045056.8754
  -8436393.85548  -6553309.16446  20985106.2734                   20985103.3874
   8023686.14146   6262072.14344  24177001.8284                   24177001.9924
   4116720.71948   3217562.94746  21040649.5704                   21040646.3834
  -5678515.21547  -4415769.85443  23539561.1484                   23539560.8554
   8735181.69146   6839544.71643  24299960.7894                   24299961.4024
 11  8 13 17  0 30.0000000  0 11G03G06G07G10G13G16G19G28G23G08G11
   1838387.04347   1445366.26745  21537380.7504                   21537379.8054
   5744496.75446   4484570.73544  23411787.7034                   23411787.4924
  -9899869.43447  -7682255.75546  21666368.0314                   21666366.5314
  -1190938.97746   -901860.25844  24123238.0864                   24123238.2504
  -4363493.41048  -3384603.01946  20124618.7584                   20124617.2814
  11497286.04747   8957873.08443  24039007.2814                   24039006.1214
  -8565061.79747  -6653569.88146  20960621.4774                   20960619.0514
   7836419.67646   6116150.25043  24141366.4304                   24141365.9574
   4071031.69148   3181961.06046  21031954.9454                   21031952.1914
  -5870455.25847  -4565333.51144  23503035.9924                   23503035.9184
   8535103.25046   6683639.59343  24261886.3914                   24261887.8444
 11  8 13 17  1  0.0000000  0 11G03G06G07G10G13G16G19G28G23G08G11
   1782676.78547   1401955.64145  21526779.7974                   21526778.8634
   5704537.93846   4453433.92644  23404183.8914                   23404183.4884
 -10074774.74247  -7818545.59746  21633084.5864                   21633083.1094
  -1277392.89546   -969226.98543  24106786.3594                   24106787.2704
  -4462399.20348  -3461672.49146  20105798.2504                   20105795.9304
  11465405.32447   8933030.89144  24032941.4384                   24032940.0554
  -8693148.39547  -6753377.63146  20936247.6254                   20936244.3674
   7649337.19546   5970371.84243  24105765.2664                   24105766.0164
   4025759.21148   3146683.75246  21023340.1484                   21023337.3634
  -6062482.42647  -4714965.03344  23466494.9924                   23466494.6524
   8334926.45746   6527657.78643  24223793.3984                   24223795.1174
 11  8 13 17  1 30.0000000  0 11G03G06G07G10G13G16G19G28G23G08G11
   1727434.93447   1358910.01445  21516267.2274                   21516266.7304
   5664886.71946   4422536.82544  23396638.5314                   23396637.7624
 -10249630.61348  -7954796.92446  21599810.8284                   21599809.1054
  -1363519.91846  -1036339.01743  24090396.4454                   24090397.8014
  -4560742.93048  -3538303.98746  20087083.9694                   20087082.1884
  11433445.43447   8908127.06144  24026859.7424                   24026858.7464
  -8820648.49248  -6852728.35246  20911984.7974                   20911981.8484
   7462443.72346   5824740.58743  24070200.4774                   24070200.6844
   3980905.91048   3111733.07246  21014804.4924                   21014801.6954
  -6254591.32047  -4864660.24244  23429937.7814                   23429936.9264
   8134658.77046   6371605.09343  24185684.4534                   24185684.9654
 11  8 13 17  2  0.0000000  0 11G03G06G07G10G13G16G19G28G23G08G11
   1672658.66847   1316227.17845  21505844.2974                   21505843.2734
   5625539.88346   4391876.93044  23389150.8444                   23389151.3364
 -10424436.27048  -8091009.10646  21566546.4454                   21566544.5864
  -1449323.63346  -1103199.04743  24074069.4144                   24074069.1954
  -4658525.63748  -3614498.33647  20068476.1804                   20068474.7464
  11401404.67646   8883160.15344  24020762.2814                   24020761.7584
  -8947562.69147  -6951622.52846  20887834.0634                   20887831.1954
   7275738.56646   5679256.10643  24034671.1954                   24034671.5124
   3936468.56648   3077106.51846  21006349.0314                   21006345.6134
  -6446782.71147  -5014419.73944  23393364.2734                   23393363.8484
   7934302.03946   6215483.17343  24147558.7814                   24147558.8634
 11  8 13 17  2 30.0000000  0 11G03G06G07G10G13G16G19G28G23G08G11
   1618345.12147   1273904.91645  21495508.3984                   21495507.7464
   5586494.55946   4361451.95444  23381720.9454                   23381721.0784
 -10599191.14148  -8227181.73446  21533291.3674                   21533289.8094
  -1534806.21946  -1169808.90843  24057803.0164                   24057802.9024
  -4755747.81248  -3690255.90246  20049975.4844                   20049973.6644
  11369281.74646   8858129.29244  24014649.4924                   24014649.6604
  -9073890.48848  -7050059.78946  20863794.5944                   20863791.8244
   7089221.34046   5533918.08543  23999178.7974                   23999178.0824
   3892445.12548   3042802.49846  20997971.3834                   20997968.2114
  -6639056.21947  -5164243.24544  23356776.4304                   23356775.7344
   7733858.48846   6059293.51943  24109414.6484                   24109415.1954
 11  8 13 17  3  0.0000000  0 11G03G06G07G10G13G16G19G28G23G08G11
   1564499.34447   1231947.12645  21485261.9304                   21485261.1214
   5547755.83647   4331265.87844  23374349.3284                   23374348.9414
 -10773886.74247  -8363308.17546  21500048.0784                   21500046.9534
  -1619963.16046  -1236165.09643  24041597.4774                   24041599.0084
  -4852402.76248  -3765571.46346  20031582.8204                   20031580.9064
  11337082.18846   8833038.61243  24008522.2894                   24008521.7034
  -9199624.50047  -7148034.34246  20839868.3444                   20839865.1564
   6902899.49246   5388732.34243  23963722.1484                   23963723.1374
   3848840.87148   3008825.10246  20989673.1804                   20989670.5744
  -6831404.40247  -5314124.92544  23320173.6804                   23320173.0634
   7533338.37946   5903044.15743  24071257.1804                   24071257.5514
 11  8 13 17  3 30.0000000  0 11G03G06G07G10G13G16G19G28G23G08G11
   1511119.19147   1190352.16345  21475103.9304                   21475103.3324
   5509321.32047   4301316.87544  23367035.6334                   23367035.2034
 -10948521.79748  -8499387.43446  21466816.5234                   21466814.2624
  -1704796.17646  -1302268.80543  24025454.0394                   24025455.2344
  -4948490.57448  -3840445.11446  20013298.0164                   20013296.2814
  11304805.09846   8807887.59543  24002379.9304                   24002379.0984
  -9324764.31247  -7245545.88946  20816054.7664                   20816051.8284
   6716773.02746   5243698.79044  23928304.5314                   23928304.3794
   3805653.65248   2975172.65846  20981455.5164                   20981452.7974
  -7023826.14547  -5464063.93144  23283556.5084                   23283556.6604
   7332744.07446   5746737.09343  24033085.3674                   24033085.2154
 11  8 13 17  4  0.0000000  0 11G03G06G07G10G13G16G19G28G23G08G11
   1458202.28947   1149118.18945  21465034.4774                   21465033.3244
   5471188.65647   4271603.09044  23359779.5084                   23359778.4494
 -11123094.96548  -8635418.46646  21433596.0004                   21433594.0394
  -1789307.67646  -1368121.93343  24009373.1954                   24009373.7114
  -5044011.38747  -3914876.93346  19995120.8364                   19995119.2584
  11272449.65246   8782675.48843  23996222.7344                   23996221.6174
  -9449309.23447  -7342593.88646  20792355.0084                   20792351.6684
   6530842.50146   5098817.87743  23892922.1644                   23892922.6374
   3762881.09448   2941843.34146  20973316.4924                   20973313.4454
  -7216320.59447  -5614059.57944  23246926.1484                   23246926.4304
   7132078.61746   5590374.43143  23994898.9304                   23994899.6134
 11  8 13 17  4 30.0000000  0 11G03G06G07G10G13G16G19G28G23G08G11
   2981171.96147   2335847.78145  21754845.7424                   21754845.2734
   7008780.67647   5469726.69944  23652373.3834                   23652373.2234
  -9722174.96948  -7543792.49246  21700182.3054                   21700180.8754
   -298073.14546   -206121.09443  24293144.6254                   24293147.1054
  -3563538.10248  -2761261.42146  20276845.7584                   20276843.4734
  12815439.56646   9985005.18243  24289844.5234                   24289843.4534
  -7997830.62548  -6211571.59646  21068561.6804                   21068558.8324
   7920538.20746   6181697.73643  24157372.3914                   24157373.0204
   5295946.42248   4136439.66346  21265049.0474                   21265045.4734
  -5833457.72747  -4536504.06144  23510076.4694                   23510076.4654
   8506775.39846   6661566.89443  24256495.3444                   24256496.1994
 11  8 13 17  5  0.0000000  0 11G03G06G07G10G13G16G19G28G23G08G11
   2929178.01648   2295332.98045  21744951.6024                   21744950.6764
   6971248.52346   5440480.82444  23645231.7114                   23645231.4344
  -9896616.43048  -7679720.89546  21666986.9454                   21666985.7304
   -381944.23746   -271475.24443  24277184.6254                   24277185.8594
  -3657921.66048  -2834807.07046  20258884.8054                   20258883.5784
  12782927.78546   9959671.28743  24283657.5864                   24283656.7154
  -8121180.78547  -6307688.61546  21045089.2344                   21045086.2664
   7735003.71946   6037125.46943  24122066.0944                   24122066.9414
   5254000.92248   4103754.80246  21257067.0784                   21257063.8794
  -6026093.02047  -4686609.42644  23473418.9224                   23473419.1644
   8305980.09046   6505103.15343  24218285.3754                   24218286.2934
 11  8 13 17  5 30.0000000  0 11G03G06G07G10G13G16G19G28G23G08G11
   2877639.58647   2255173.14845  21735144.6094                   21735143.2854
   6934010.44946   5411464.09444  23638144.5164                   23638144.6564
 -10070992.66448  -7815598.47946  21633804.0704                   21633803.0434
   -465501.31646   -336584.77543  24261285.1954                   24261285.8714
  -3751739.93447  -2907912.24046  20241032.0394                   20241030.5314
  12750333.77346   9934273.27143  24277455.5864                   24277453.9924
  -8243935.56247  -6403341.68446  21021729.8834                   21021726.3164
   7549664.83246   5892705.59444  24086797.2814                   24086798.4184
   5212463.15648   4071387.65146  21249162.9454                   21249159.3404
  -6218800.39147  -4836770.96544  23436747.7344                   23436747.9024
   8105121.00846   6348589.70043  24180063.0394                   24180063.4614
 11  8 13 17  6  0.0000000  0 11G03G06G07G10G13G16G19G28G23G08G11
   2826553.50448   2215365.77645  21725423.0164                   21725422.2424
   6897063.09846   5382673.92144  23631114.0474                   23631114.2234
 -10245303.38748  -7951425.00446  21600634.2814                   21600632.7194
   -548747.39846   -401451.88743  24245442.7424                   24245444.1564
  -3844994.25847  -2980577.97246  20223286.4064                   20223284.7034
  12717655.53146   9908809.63743  24271236.8134                   24271235.2114
  -8366095.73047  -6498531.43546  20998483.5704                   20998480.2814
   7364520.48046   5748437.33643  24051565.9384                   24051565.8204
   5171329.81648   4039335.63746  21241335.3204                   21241332.5944
  -6411580.37547  -4986989.10844  23400062.4774                   23400063.6524
   7904200.19146   6192028.06943  24141828.1954                   24141827.6994
 11  8 13 17  6 30.0000000  0 11G03G06G07G10G13G16G19G28G23G08G11
   2775920.85248   2175911.72945  21715788.0554                   21715787.4454
   6860407.94547   5354111.34144  23624138.9144                   23624138.6684
 -10419543.26248  -8087196.33546  21567477.4694                   21567475.9734
   -631681.10246   -466075.63343  24229661.1954                   24229662.9774
  -3937681.21947  -3052801.60646  20205648.5554                   20205646.7664
  12684895.30546   9883282.14143  24265003.2664                   24265002.1684
  -8487657.06647  -6593254.56446  20975351.2114                   20975347.9104
   7179575.00046   5604323.96043  24016371.9454                   24016372.4264
   5130602.92648   4007600.33346  21233585.6414                   21233582.4414
  -6604428.09847  -5137260.03544  23363365.4304                   23363365.7544
   7703224.41046   6035423.70643  24103584.2034                   24103583.8244
 11  8 13 17  7  0.0000000  0 11G03G06G07G10G13G16G19G28G23G08G11
   2725742.40647   2136811.62045  21706239.3834                   21706238.9614
   6824045.77347   5325777.13944  23617219.8134                   23617219.7194
 -10593707.91848  -8222909.05146  21534335.1174                   21534333.6454
   -714301.64146   -530455.32343  24213939.6564                   24213940.3164
  -4029797.91047  -3124580.87446  20188119.1644                   20188117.6994
  12652055.71146   9857692.84243  24258753.4774                   24258753.6054
  -8608616.19547  -6687508.45246  20952333.4144                   20952330.0904
   6994831.29347   5460367.92644  23981216.5234                   23981216.4804
   5090283.21948   3976182.32746  21225912.6644                   21225909.8794
  -6797339.64847  -5287580.70444  23326655.4064                   23326655.1644
   7502199.52746   5878781.01043  24065330.5234                   24065330.3404
 11  8 13 17  7 30.0000000  0 11G03G06G07G10G13G16G19G28G23G08G11
   2676017.75847   2098065.10045  21696777.3204                   21696776.0314
   6787976.25046   5297670.96244  23610355.8204                   23610355.9734
 -10767794.00448  -8358560.53746  21501207.3134                   21501205.9574
   -796609.37546   -594591.34443  24198276.9454                   24198278.2304
  -4121342.93047  -3195914.68646  20170699.0164                   20170697.1094
  12619137.69946   9832042.38543  24252489.6724                   24252488.9184
  -8728970.74647  -6781291.21346  20929430.8284                   20929427.5164
   6810291.46547   5316570.70944  23946100.2424                   23946099.1804
   5050370.75448   3945081.65246  21218317.6254                   21218314.7934
  -6990312.33647  -5437949.00644  23289933.9844                   23289933.4304
   7301130.74246   5722104.18343  24027069.0394                   24027068.5864
 11  8 13 17  8  0.0000000  0 11G03G06G07G10G13G16G19G28G23G08G11
   2626744.32847   2059670.17845  21687400.5164                   21687400.1914
   6752196.57446   5269790.62644  23603547.5164                   23603547.8794
 -10941800.20748  -8494149.79446  21468095.5164                   21468093.5204
   -878606.91446   -658485.55843  24182673.0474                   24182675.3714
  -4212316.78147  -3266803.42246  20153387.2974                   20153385.4494
  12586139.94946   9806329.75143  24246210.2814                   24246210.4654
  -8848721.08647  -6874603.16546  20906642.9224                   20906640.1174
   6625955.38746   5172932.28743  23911022.2584                   23911020.8914
   5010862.69148   3914296.09846  21210799.6724                   21210797.1174
  -7183346.10947  -5588364.91544  23253200.7664                   23253200.2344
   7100020.15647   5565394.74543  23988798.6804                   23988798.4264
 11  8 13 17  8 30.0000000  0 11G03G06G07G10G13G16G19G28G23G08G11
   2577920.72747   2021625.78745  21678109.9454                   21678109.1454
   6716705.57846   5242135.23644  23596793.8524                   23596794.2384
 -11115724.41448  -8629675.12546  21434998.3914                   21434997.1454
   -960295.17646   -722138.85343  24167128.3524                   24167130.2344
  -4302718.84848  -3337246.62146  20136184.4534                   20136182.9344
  12553062.63746   9780555.25843  24239916.2664                   24239916.1684
  -8967865.85248  -6967443.25146  20883970.5234                   20883967.3914
   6441824.25447   5029453.50644  23875983.1414                   23875982.2424
   4971758.36748   3883825.13846  21203358.2424                   21203355.4144
  -7376438.82047  -5738826.72944  23216456.9454                   23216455.7774
   6898871.79347   5408655.88743  23950521.0634                   23950520.8484
 11  8 13 17  9  0.0000000  0 11G03G06G07G10G13G16G19G28G23G08G11
   2529539.18447   1983925.86945  21668903.1174                   21668902.1214
   6681495.49247   5214698.77444  23590093.7814                   23590093.5204
 -11289570.39148  -8765139.50746  21401916.8674                   21401915.4884
  -1041681.87146   -785557.11743  24151641.0004                   24151641.6804
  -4392555.07047  -3407248.89646  20119088.9304                   20119087.4104
  12519899.39845   9754713.70443  24233604.7664                   24233603.9064
  -9086409.91047  -7059815.25046  20861412.4774                   20861409.1374
   6257893.18846   4886130.67943  23840981.2114                   23840981.0314
   4933050.14848   3853662.82646  21195992.2974                   21195989.7774
  -7569595.09847  -5889338.11744  23179700.0784                   23179699.4304
   6697683.31347   5251885.69843  23912235.7194                   23912236.4064
 11  8 13 17  9 30.0000000  0 11G03G06G07G10G13G16G19G28G23G08G11
   2481594.97347   1946566.72345  21659779.6334                   21659779.0234
   6646561.78546   5187477.66343  23583445.4844                   23583445.4144
 -11463338.86748  -8900543.51046  21368849.8284                   21368848.2664
  -1122771.54746   -848743.97443  24136209.7194                   24136210.3874
  -4481828.25448  -3476812.44746  20102101.0554                   20102099.1054
  12486647.22746   9728802.86343  24227277.0634                   24227276.5744
  -9204355.55548  -7151720.96146  20838968.1804                   20838965.1644
   6074159.69946   4742961.75643  23806018.6024                   23806017.2894
   4894733.28148   3823805.46646  21188701.4454                   21188698.5784
  -7762816.69147  -6039900.37844  23142930.8594                   23142931.0434
   6496455.71146   5095085.11843  23873943.1724                   23873944.3364
 11  8 13 17 10  0.0000000  0 11G03G06G07G10G13G16G19G28G23G08G11
   2434086.11747   1909546.77745  21650739.2034                   21650739.0434
   6611902.58646   5160470.48143  23576849.6174                   23576849.5164
 -11637028.07448  -9035885.74546  21335797.5944                   21335796.7274
  -1203566.27746   -911700.91843  24120835.6884                   24120837.1454
  -4570538.53548  -3545937.36646  20085220.1484                   20085218.4804
  12453305.31346   9702821.99043  24220932.4614                   24220931.6484
  -9321702.42647  -7243160.07946  20816637.6724                   20816634.8444
   5890624.05946   4599947.01843  23771092.6644                   23771091.6254
   4856806.18848   3794251.82946  21181484.0634                   21181481.0594
  -7956102.43047  -6190512.61344  23106150.4384                   23106149.9844
   6295191.64846   4938256.11043  23835643.7584                   23835644.7344
 11  8 13 17 10 30.0000000  0 11G03G06G07G10G13G16G19G28G23G08G11
   2387013.26248   1872866.61745  21641781.5474                   21641781.4024
   6577518.36346   5133677.52043  23570306.7114                   23570306.1094
 -11810633.48048  -9171162.68346  21302762.1564                   21302760.3834
  -1284065.30146   -974427.50843  24105517.0784                   24105518.6884
  -4658683.28548  -3614621.61046  20068446.7664                   20068444.8134
  12419876.04746   9676773.12443  24214572.2894                   24214570.3324
  -9438447.25448  -7334130.07446  20794421.8054                   20794418.5704
   5707289.77046   4457089.22943  23736205.2894                   23736204.7934
   4819269.53948   3765002.42846  21174340.9844                   21174338.3014
  -8149448.28947  -6341171.71244  23069357.6174                   23069357.6644
   6093897.35546   4781403.51643  23797339.2344                   23797339.2774
 11  8 13 17 11  0.0000000  0 11G03G06G07G10G13G16G19G28G23G08G11
   3915793.03947   3064123.54145  21932698.1254                   21932698.3484
   8118825.73446   6334696.18943  23863608.2734                   23863607.6174
 -10408730.13348  -8078770.46246  21569535.1484                   21569533.5044
    211149.41046    190674.72843  24390047.6954                   24390048.6914
  -3170842.39147  -2455265.09646  20351573.4064                   20351571.8364
  13961777.17646  10878254.41743  24507986.2034                   24507984.9654
  -7979168.20747  -6197029.52346  21072113.4304                   21072110.1994
   7099580.77047   5541991.32643  24001149.4144                   24001148.7584
   6357539.96148   4963654.65146  21467063.8754                   21467061.5434
  -6767429.18747  -5264273.69944  23332346.8054                   23332346.4774
   7468000.26246   5852133.11543  24058821.9534                   24058822.6254
 11  8 13 17 11 30.0000000  0 11G03G06G07G10G13G16G19G28G23G08G11
   3869573.94947   3028108.65145  21923903.3984                   21923902.4654
   8084973.94946   6308318.13243  23857165.9064                   23857165.8054
 -10582174.25047  -8213921.70946  21536529.5944                   21536528.3874
    131224.12946    128395.22243  24374838.4224                   24374838.6334
  -3257868.53547  -2523077.71146  20335012.9144                   20335011.2624
  13928159.62946  10852058.83743  24501588.8984                   24501587.4654
  -8094719.33647  -6287069.36046  21050124.6564                   21050121.7704
   6916638.36346   5399438.86943  23966336.3524                   23966336.2194
   6320766.74648   4935000.12046  21460066.4064                   21460063.7974
  -6960903.29347  -5415032.69844  23295530.1094                   23295529.1684
   7266643.68047   5695231.98743  24020504.7974                   24020505.4344
 11  8 13 17 12  0.0000000  0 11G03G06G07G10G13G16G19G28G23G08G11
   3823776.82047   2992422.52045  21915188.4384                   21915188.2504
   8051383.39846   6282143.60843  23850773.9694                   23850773.7464
 -10755536.96148  -8349009.53046  21503540.1884                   21503538.7544
     51580.73447     66335.38443  24359683.1644                   24359683.0824
  -3344337.95348  -2590456.49646  20318558.5864                   20318556.9104
  13894445.39546  10825787.92043  24495173.2034                   24495172.3834
  -8209674.81647  -6376645.07846  21028249.6484                   21028246.5314
   6733890.53946   5257038.03743  23931560.2274                   23931560.5354
   6284370.63348   4906639.44446  21453140.4454                   21453137.7154
  -7154441.85547  -5565841.95344  23258701.4694                   23258700.4454
   7065258.86746   5538308.86643  23982182.3204                   23982183.3164
 11  8 13 17 12 30.0000000  0 11G03G06G07G10G13G16G19G28G23G08G11
   3778397.28947   2957061.81945  21906552.8444                   21906552.4694
   8018049.96946   6256169.47243  23844431.3204                   23844431.5124
 -10928818.63347  -8484034.20246  21470565.5704                   21470564.1884
    -27785.00846      4491.88443  24344580.0394                   24344581.5744
  -3430252.79348  -2657403.14946  20302209.4454                   20302207.7584
  13860632.26646  10799440.00244  24488738.6724                   24488738.5164
  -8324036.64847  -6465758.19446  21006487.0554                   21006483.9924
   6551335.74646   5114787.59643  23896822.1024                   23896821.9614
   6248347.31648   4878569.26646  21446285.9534                   21446282.9924
  -7348045.99247  -5716702.31044  23221859.4614                   23221858.9964
   6863847.26646   5381364.75143  23943855.0394                   23943856.2934
 11  8 13 17 13  0.0000000  0 11G03G06G07G10G13G16G19G28G23G08G11
   3733433.01647   2922024.68445  21897996.8914                   21897996.2344
   7984971.32847   6230393.85944  23838137.1334                   23838136.8204
 -11102017.31647  -8618994.21046  21437606.9304                   21437605.3754
   -106875.21946    -57136.93643  24329529.3674                   24329530.9734
  -3515613.60247  -2723918.08946  20285965.7814                   20285963.9454
  13826718.42646  10773013.60044  24482285.3914                   24482284.8444
  -8437804.80147  -6554408.69946  20984837.9774                   20984834.4224
   6368973.94546   4972687.55143  23862119.2664                   23862119.1454
   6212694.91848   4850788.12046  21439501.2344                   21439498.4414
  -7541714.54347  -5867612.87944  23185005.8284                   23185004.9694
   6662411.62146   5224402.07843  23905523.3444                   23905523.5784
 11  8 13 17 13 30.0000000  0 11G03G06G07G10G13G16G19G28G23G08G11
   3688878.22747   2887306.62745  21889518.3444                   21889517.8014
   7952142.18047   6204812.62444  23831889.7974                   23831889.4264
 -11275134.91048  -8753891.02546  21404663.8284                   21404662.0004
   -185695.21146   -118555.18043  24314530.0704                   24314532.0824
  -3600424.39548  -2790004.44146  20269826.4924                   20269824.8404
  13792700.64546  10746506.15743  24475811.8754                   24475811.0744
  -8550982.23447  -6642598.91246  20963300.9304                   20963297.8834
   6186802.05946   4830735.44843  23827452.4614                   23827452.5514
   6177407.93048   4823291.70946  21432786.3204                   21432783.5824
  -7735449.71547  -6018575.31544  23148138.9774                   23148138.8484
   6460952.12546   5067420.81043  23867186.3834                   23867187.7504
 11  8 13 17 14  0.0000000  0 11G03G06G07G10G13G16G19G28G23G08G11
   3644731.68847   2852906.67945  21881117.4384                   21881116.7894
   7919560.96547   6179424.56844  23825690.1174                   23825690.1094
 -11448168.55147  -8888722.44346  21371736.2034                   21371734.7304
   -264246.46546   -179764.06743  24299582.7584                   24299584.0394
  -3684684.69947  -2855661.84946  20253792.6334                   20253791.1804
  13758578.91046  10719917.74043  24469318.8674                   24469317.4734
  -8663568.15247  -6730328.20646  20941876.3204                   20941873.8204
   6004821.37546   4688932.33543  23792823.0944                   23792823.0354
   6142485.14148   4796079.08045  21426140.6564                   21426138.1684
  -7929249.98047  -6169588.49944  23111259.8754                   23111260.2974
   6259472.63346   4910423.88843  23828846.4844                   23828846.3594
 11  8 13 17 14 30.0000000  0 11G03G06G07G10G13G16G19G28G23G08G11
   3600985.34047   2818818.59245  21872793.1334                   21872792.1334
   7887220.28547   6154223.99444  23819535.3834                   23819536.4804
 -11621122.34447  -9023491.62446  21338824.5234                   21338822.8404
   -342536.70346   -240769.45243  24284684.9614                   24284686.8754
  -3768400.77048  -2920895.17646  20237861.8524                   20237859.8874
  13724347.30146  10693243.69243  24462805.0084                   24462804.3444
  -8775567.97347  -6817600.79546  20920563.6564                   20920560.6054
   5823026.44546   4547274.04943  23758228.2274                   23758228.1684
   6107918.75448   4769144.16945  21419562.7114                   21419560.4024
  -8123119.65247  -6320655.75544  23074367.4924                   23074367.7664
   6057970.81345   4753409.55143  23790501.7504                   23790501.2464
 11  8 13 17 15  0.0000000  0 11G03G06G07G10G13G16G19G28G23G08G11
   3557633.88347   2785038.21045  21864543.4454                   21864542.9384
   7855114.80146   6129206.68244  23813426.1804                   23813427.1054
 -11793997.44147  -9158199.48946  21305927.4534                   21305925.8134
   -420571.34446   -301575.71643  24269835.3754                   24269837.0864
  -3851576.09848  -2985707.14446  20222034.0084                   20222032.3364
  13690002.33246  10666481.34043  24456270.0784                   24456268.8164
  -8886984.59847  -6904418.95046  20899361.7894                   20899358.3524
   5641414.62146   4405758.41143  23723668.8284                   23723668.3594
   6073703.75848   4742483.07846  21413052.0004                   21413049.4064
  -8317060.40247  -6471778.41044  23037461.8984                   23037461.6724
   5856446.84446   4596377.94343  23752153.1334                   23752153.0314
 11  8 13 17 15 30.0000000  0 11G03G06G07G10G13G16G19G28G23G08G11
   3514672.68447   2751561.92945  21856367.8134                   21856368.0004
   7823239.91846   6104369.03344  23807360.5944                   23807361.5514
 -11966794.51648  -9292846.55446  21273045.3674                   21273043.7424
   -498354.61746   -362186.15143  24255034.0784                   24255035.0664
  -3934213.64148  -3050100.06746  20206308.8984                   20206307.4804
  13655540.79746  10639628.12043  24449711.5004                   24449710.7424
  -8997820.66448  -6990784.72046  20878270.4534                   20878267.4144
   5459983.28946   4264383.35643  23689144.0944                   23689143.5944
   6039835.58648   4716092.21945  21406607.0474                   21406604.6524
  -8511073.57847  -6622957.47344  23000542.5864                   23000542.5204
   5654901.38346   4439329.63843  23713800.1484                   23713800.6374
 11  8 13 17 16  0.0000000  0 11G03G06G07G10G13G16G19G28G23G08G11
   3472091.48047   2718381.72645  21848265.1254                   21848264.9804
   7791585.60946   6079703.28344  23801337.2034                   23801338.1684
 -12139519.42647  -9427437.38846  21240176.7664                   21240175.0594
   -575896.63346   -422608.60543  24240278.2734                   24240279.1724
  -4016321.41048  -3114080.16746  20190684.2974                   20190682.6844
  13620954.11846  10612677.42242  24443130.5164                   24443129.2074
  -9108083.57848  -7076703.87446  20857288.3284                   20857285.3204
   5278725.07446   4123143.24043  23654651.1724                   23654651.4924
   6006304.33247   4689963.89146  21400226.7814                   21400224.1214
  -8705166.21147  -6774198.48144  22963607.4924                   22963607.6024
   5453330.00046   4282261.06743  23675442.5864                   23675442.6524
 11  8 13 17 16 30.0000000  0 11G03G06G07G10G13G16G19G28G23G08G11
   3429889.02347   2685496.65945  21840234.4064                   21840234.5084
   7760150.81346   6055208.56043  23795354.9534                   23795355.6254
 -12312169.64547  -9561970.02646  21207322.5634                   21207321.0044
   -653198.83647   -482844.13143  24225568.4774                   24225568.8524
  -4097899.57047  -3177647.60546  20175160.4454                   20175158.5664
  13586243.22745  10585629.93442  24436523.8674                   24436523.8754
  -9217772.40648  -7162175.69146  20836414.9224                   20836412.1954
   5097641.19546   3982038.96344  23620192.3364                   23620191.9774
   5973108.52048   4664096.93246  21393909.7504                   21393907.2344
  -8899335.74247  -6925499.37444  22926658.9224                   22926658.2974
   5251736.99246   4125175.65543  23637080.7974                   23637080.7624
 11  8 13 17 17  0.0000000  0 11G03G06G07G10G13G16G19G28G23G08G11
   3388059.08247   2652901.86745  21832274.1644                   21832273.9064
   7728929.65246   6030880.33643  23789413.8914                   23789413.9734
 -12484746.82848  -9696445.74846  21174482.1644                   21174480.5944
   -730267.16846   -542897.48143  24210902.8834                   24210903.5004
  -4178952.44148  -3240805.70646  20159736.5394                   20159735.1374
  13551403.62946  10558482.07042  24429894.6174                   24429893.3484
  -9326891.45348  -7247203.52646  20815650.4924                   20815647.4924
   4916728.31646   3841067.96744  23585765.5234                   23585765.5124
   5940242.59448   4638487.06446  21387655.6884                   21387653.1024
  -9093584.74647  -7076862.23044  22889693.7274                   22889693.8404
   5050121.79746   3968072.99043  23598714.6094                   23598713.8754
 11  8 13 17 17 30.0000000  0 11G03G06G07G10G13G16G19G28G23G08G11
   4922018.57047   3848194.92945  22124177.2274                   22124176.9304
   9273338.55146   7234315.77343  24083305.3984                   24083305.0864
 -11081825.97748  -8603260.66746  21441449.1094                   21441447.9064
    768316.40246    624829.86443  24496073.7344                   24496074.5904
  -2684060.37948  -2075954.78346  20444205.2034                   20444203.5704
  15091853.72346  11758832.75042  24723032.5944                   24723030.7034
  -7860018.86348  -6104185.93146  21094786.6024                   21094783.8594
   6311409.73847   4927832.75344  23851164.8054                   23851164.9494
   7483122.88748   5840731.40145  21681256.1024                   21681253.4184
  -7712488.12147  -6000683.02345  23152508.2424                   23152508.0084
   6423911.97747   5038558.91744  23860138.2504                   23860137.6914
 11  8 13 17 18  0.0000000  0 11G03G06G07G10G13G16G19G28G23G08G11
   4880916.89147   3816167.64145  22116355.7894                   22116355.5314
   9242527.78546   7210307.33743  24077442.5394                   24077442.1524
 -11254262.13748  -8737626.50346  21408635.6644                   21408634.2344
    691699.10546    565128.02043  24481494.1724                   24481495.6484
  -2764075.01248  -2138303.87646  20428978.5944                   20428977.4414
  15056744.75846  11731475.03542  24716352.0004                   24716349.0164
  -7968007.84447  -6188333.19646  21074237.3524                   21074234.3984
   6130828.17647   4787119.92744  23816801.2584                   23816802.0204
   7450899.52747   5815622.21445  21675123.9304                   21675121.4924
  -7906903.44547  -6152175.43444  23115512.1884                   23115511.8754
   6222251.94946   4881421.30243  23821763.1804                   23821763.2304
 11  8 13 17 18 30.0000000  0 11G03G06G07G10G13G16G19G28G23G08G11
   4840180.15647   3784424.70345  22108604.1804                   22108603.0084
   9211923.58646   7186459.81343  24071619.5004                   24071618.2814
 -11426620.73848  -8871931.91046  21375836.9064                   21375835.3834
    615308.63746    505602.94543  24466957.0634                   24466959.3014
  -2843567.11348  -2200245.80246  20413852.0784                   20413850.1564
  15021505.05546  11704015.48042  24709646.3284                   24709644.1134
  -8075427.39148  -6272036.74046  21053795.9224                   21053793.0594
   5950417.59447   4646540.28644  23782470.1024                   23782470.3754
   7418998.85247   5790764.49045  21669053.6884                   21669051.1844
  -8101395.51647  -6303727.68044  23078501.5084                   23078501.2234
   6020578.88747   4724273.48644  23783386.1564                   23783385.9654
 11  8 13 17 19  0.0000000  0 11G03G06G07G10G13G16G19G28G23G08G11
   4799805.95747   3752964.24545  22100920.7194                   22100920.2774
   9181523.73046   7162771.61743  24065833.9384                   24065834.0664
 -11598899.78948  -9006175.33646  21343052.9614                   21343051.9694
    539142.53946    446252.65243  24452463.0004                   24452464.8324
  -2922537.22748  -2261780.98946  20398824.7114                   20398823.3594
  14986133.89146  11676453.48543  24702915.1484                   24702912.9264
  -8182278.18048  -6355297.09646  21033463.0314                   21033460.5084
   5770177.85947   4506093.79944  23748171.6174                   23748172.0744
   7387418.85547   5766156.61645  21663044.3984                   21663041.6604
  -8295963.10547  -6455338.76144  23041476.4454                   23041476.2304
   5818895.76247   4567117.87543  23745006.9534                   23745006.1134
 11  8 13 17 19 30.0000000  0 11G03G06G07G10G13G16G19G28G23G08G11
   4759795.02047   3721786.85945  22093307.4224                   22093307.0824
   9151329.18047   7139243.27143  24060088.3834                   24060087.9804
 -11771094.30948  -9140352.88446  21310285.7344                   21310284.2734
    463201.87146    387078.03843  24438012.3524                   24438012.8594
  -3000983.08248  -2322907.65946  20383896.7664                   20383895.2274
  14950634.24646  11648791.33443  24696159.8204                   24696159.3204
  -8288556.93748  -6438111.71646  21013238.8204                   21013235.9384
   5590112.08247   4365782.80544  23713906.8284                   23713906.5314
   7356160.27348   5741799.20945  21657096.0704                   21657093.3714
  -8490601.69947  -6607005.19744  23004438.1804                   23004437.7664
   5617209.39847   4409959.72143  23706627.0704                   23706627.0984
 11  8 13 17 20  0.0000000  0 11G03G06G07G10G13G16G19G28G23G08G11
   4720150.27347   3690894.80244  22085763.0084                   22085762.7774
   9121343.04346   7115877.40643  24054381.8364                   24054381.7034
 -11943197.22348  -9274459.05346  21277535.4454                   21277533.9804
    387489.77746    328081.50843  24423605.5164                   24423606.4144
  -3078900.35948  -2383622.45946  20369069.7114                   20369068.0984
  14915010.44546  11621032.44143  24689381.5554                   24689380.8244
  -8394258.39148  -6520476.49046  20993124.1884                   20993121.8094
   5410225.81346   4225611.77344  23679674.7814                   23679675.0004
   7325226.05148   5717694.55446  21651209.5314                   21651207.2384
  -8685304.90647  -6758721.93844  22967386.7734                   22967387.0354
   5415528.29747   4252805.66343  23668248.6334                   23668249.1604
 11  8 13 17 20 30.0000000  0 11G03G06G07G10G13G16G19G28G23G08G11
   4680878.41447   3660293.29744  22078289.9774                   22078289.9064
   9091572.10946   7092679.24043  24048716.7734                   24048716.6954
 -12115197.61748  -9408485.32446  21244804.9924                   21244803.6374
    312012.58646    269268.02743  24409241.6024                   24409243.8754
  -3156280.94548  -2443919.04446  20354344.7814                   20354343.2704
  14879271.80946  11593184.10143  24682580.2894                   24682580.6844
  -8499373.72748  -6602384.55046  20973121.5474                   20973119.2584
   5230528.16046   4085587.67744  23645479.5314                   23645478.9884
   7294622.85947   5693847.83845  21645386.0084                   21645383.5204
  -8880062.65647  -6910481.20344  22930325.9534                   22930325.4654
   5213864.57847   4095665.19143  23629873.8204                   23629872.9024
 11  8 13 17 21  0.0000000  0 11G03G06G07G10G13G16G19G28G23G08G11
   4641979.41047   3629982.35544  22070887.4534                   22070887.7194
   9062016.93846   7069649.17943  24043092.0864                   24043092.3594
 -12287090.87148  -9542428.11946  21212094.9304                   21212093.7274
    236770.87546    210638.00443  24394923.9304                   24394925.8794
  -3233122.85548  -2503795.88146  20339722.0314                   20339720.6024
  14843419.78146  11565247.33943  24675757.7274                   24675757.7504
  -8603901.07848  -6683834.43746  20953230.7034                   20953228.0984
   5051021.94546   3945712.75844  23611320.3834                   23611320.2194
   7264351.30148   5670259.53245  21639625.6884                   21639622.9384
  -9074870.86747  -7062279.77944  22893255.6954                   22893254.6134
   5012224.17646   3938542.85943  23591502.1174                   23591502.0554
 11  8 13 17 21 30.0000000  0 11G03G06G07G10G13G16G19G28G23G08G11
   4603452.11747   3599961.04744  22063556.0234                   22063556.3874
   9032676.07046   7046786.07143  24037508.7894                   24037509.6994
 -12458874.67648  -9676285.63346  21179405.5004                   21179403.8834
    161763.28546    152190.51543  24380650.6174                   24380651.8244
  -3309426.14148  -2563253.02646  20325202.2504                   20325200.2234
  14807454.84046  11537222.68043  24668913.8054                   24668914.2504
  -8707839.84848  -6764825.69246  20933452.0314                   20933449.2704
   4871707.64146   3805987.36544  23577198.4064                   23577197.8874
   7234409.74648   5646928.38745  21633928.0084                   21633925.2504
  -9269727.82847  -7214116.36944  22856175.2974                   22856174.9494
   4810611.08646   3781441.83843  23553137.0394                   23553136.7504
 11  8 13 17 22  0.0000000  0 11G03G06G07G10G13G16G19G28G23G08G11
   4565300.15247   3570232.18944  22056296.1484                   22056295.5594
   9003553.50046   7024093.06043  24031967.0394                   24031967.9064
 -12630540.94948  -9810051.55146  21146738.5634                   21146737.2074
     86993.44146     93928.24743  24366422.0314                   24366423.7664
  -3385185.92648  -2622286.64946  20310785.6174                   20310784.2664
  14771382.75446  11509114.51343  24662049.5634                   24662050.0354
  -8811183.90248  -6845353.53546  20913786.2814                   20913783.3014
   4692591.89147   3666416.70744  23543113.8674                   23543112.7194
   7204802.23048   5623857.52245  21628293.9774                   21628291.0984
  -9464625.99247  -7365985.02744  22819087.4064                   22819086.4924
   4609034.80947   3624369.47343  23514777.6334                   23514777.1334
 11  8 13 17 22 30.0000000  0 11G03G06G07G10G13G16G19G28G23G08G11
   4527528.05947   3540799.37145  22049108.3674                   22049107.6804
   8974654.52346   7001574.33144  24026467.3364                   24026468.9534
 -12802080.26248  -9943718.55146  21114095.7974                   21114094.1414
     12466.44146     35855.19343  24352240.6804                   24352241.4064
  -3460395.34048  -2680891.41546  20296473.6884                   20296472.1214
  14735210.62546  11480928.38543  24655165.8204                   24655166.7234
  -8913926.50848  -6925412.72946  20894235.1644                   20894232.0434
   4513682.05547   3527006.47344  23509068.3914                   23509067.3554
   7175533.82048   5601050.89345  21622724.3364                   21622721.8324
  -9659556.84847  -7517879.18444  22781993.2194                   22781992.7034
   4407506.04747   3467334.14544  23476427.4384                   23476428.6954
 11  8 13 17 23  0.0000000  0 11G03G06G07G10G13G16G19G28G23G08G11
   4490137.74647   3511664.01245  22041993.5234                   22041993.4264
   8945980.76246   6979231.06644  24021011.3834                   24021012.2934
 -12973486.61348 -10077281.93846  21081478.0634                   21081476.4104
    -61815.69546    -22027.03243  24338105.6174                   24338105.7034
  -3535051.36748  -2739064.97246  20282267.0634                   20282265.8244
  14698942.17646  11452667.16543  24648264.8134                   24648264.7814
  -9016063.95748  -7005000.35546  20874798.7504                   20874795.7304
   4334982.28947   3387759.99544  23475063.1024                   23475061.4614
   7146606.38748   5578509.95645  21617219.7974                   21617217.1604
  -9854514.88347  -7669794.50944  22744893.9534                   22744893.7704
   4206032.32447   3310341.72444  23438088.7814                   23438089.3444
 11  8 13 17 23 30.0000000  0 11G03G06G07G10G13G16G19G28G23G08G11
   6028548.76647   4710425.79245  22334743.3594                   22334743.8284
  10492952.50446   8184663.56043  24315390.5164                   24315391.4574
 -11569331.61348  -8983135.18946  21348679.7194                   21348678.2274
   1439568.08646   1147882.31543  24623809.8364                   24623810.8874
  -2033731.25848  -1569205.17846  20567958.9384                   20567957.5084
  16237999.19146  12651932.30443  24941137.7114                   24941137.6254
  -7542172.00448  -5856513.12346  21155271.0634                   21155268.0354
   5731919.49246   4476282.50944  23740890.3204                   23740890.4534
   8693439.47748   6783834.36845  21911572.5634                   21911569.9264
  -8474071.28947  -6594124.17545  23007583.6094                   23007583.1764
   5580044.70346   4381000.79144  23699554.8834                   23699554.3634
 11  8 13 17 24  0.0000000  0 11G03G06G07G10G13G16G19G28G23G08G11
   5991917.28147   4681881.73745  22327772.7504                   22327772.1724
  10464726.25846   8162669.05644  24310019.6954                   24310019.6914
 -11740463.92248  -9116485.04146  21316114.6724                   21316112.7774
   1365771.03946   1090378.05843  24609767.0704                   24609768.1604
  -2107280.94148  -1626516.65446  20553962.8594                   20553961.4264
  16201539.57446  12623522.11543  24934199.4694                   24934199.1564
  -7643097.43748  -5935156.32046  21136065.8594                   21136062.7814
   5553642.81347   4337365.68344  23706965.4454                   23706965.8524
   8665189.80148   6761821.56445  21906196.5164                   21906193.8444
  -8669076.98847  -6746076.61645  22970475.2894                   22970474.9774
   5378693.52046   4224103.84044  23661238.5784                   23661238.7504
 11  8 13 17 24 30.0000000  0 11G03G06G07G10G13G16G19G28G23G08G11
   5955662.34447   4653631.10544  22320873.5164                   22320872.7934
  10436721.03546   8140846.68743  24304690.8754                   24304691.1334
 -11911455.39848  -9249725.16246  21283575.6024                   21283574.4574
   1292213.84446   1033060.72343  24595768.9064                   24595770.3914
  -2180278.16848  -1683397.64346  20540072.1724                   20540070.4964
  16164984.49246  12595037.68643  24927244.0784                   24927242.7854
  -7743416.84048  -6013327.29746  21116975.6644                   21116972.5004
   5375578.36347   4198614.20444  23673081.0634                   23673081.8244
   8637276.25048   6740070.67545  21900884.6884                   21900882.8484
  -8864103.98047  -6898045.69144  22933362.5474                   22933362.4064
   5177409.21947   4067258.97843  23622935.5474                   23622935.1174
 11  8 13 17 25  0.0000000  0 11G03G06G07G10G13G16G19G28G23G08G11
   5919777.25447   4625668.66744  22314044.7734                   22314044.3204
  10408930.18046   8119191.40543  24299402.1094                   24299401.9344
 -12082308.83648  -9382857.71346  21251063.5554                   21251062.0594
   1218889.55546    975924.76443  24581815.2274                   24581817.6294
  -2252728.52348  -1739852.48646  20526285.2584                   20526284.0744
  16128328.94946  12566474.78142  24920268.3204                   24920266.8094
  -7843135.14148  -6091029.88246  21097999.6024                   21097996.0434
   5197721.81647   4060024.66943  23639236.0864                   23639236.4064
   8609691.89848   6718576.29945  21895636.0004                   21895633.1604
  -9059155.28547  -7050033.72545  22896245.6414                   22896245.4264
   4976190.89547   3910465.57444  23584644.2814                   23584644.7584
 11  8 13 17 25 30.0000000  0 11G03G06G07G10G13G16G19G28G23G08G11
   5884263.37947   4597995.47844  22307286.7274                   22307286.3634
  10381355.66446   8097704.74243  24294155.0864                   24294155.2814
 -12253018.11348  -9515877.91546  21218578.6724                   21218576.9494
   1145800.14546    918971.82943  24567908.4224                   24567908.7344
  -2324628.66848  -1795878.59746  20512603.0944                   20512601.3874
  16091576.81646  12537836.68042  24913274.6334                   24913272.8244
  -7942248.55148  -6168261.11946  21079139.3444                   21079135.9804
   5020077.33646   3921600.44543  23605431.7974                   23605431.1884
   8582438.52348   6697339.81445  21890449.7504                   21890447.0124
  -9254225.32847  -7202036.33544  22859125.4454                   22859124.4804
   4775045.80546   3753729.22644  23546367.8444                   23546368.1644
 11  8 13 17 26  0.0000000  0 11G03G06G07G10G13G16G19G28G23G08G11
   5849115.82047   4570607.74544  22300598.6804                   22300597.6134
  10353993.12547   8076383.25143  24288947.8284                   24288948.0744
 -12423583.57448  -9648786.08446  21186121.2274                   21186119.5234
   1072941.14846    862198.51643  24554043.3984                   24554044.1254
  -2395982.44148  -1851478.97746  20499024.8914                   20499023.4344
  16054725.53146  12509121.36342  24906262.2034                   24906261.1844
  -8040760.41048  -6245023.61246  21060393.3284                   21060389.9454
   4842642.42247   3783339.52944  23571666.9924                   23571666.3524
   8555511.48448   6676357.62945  21885326.0394                   21885323.3244
  -9449315.24647  -7354054.43045  22822000.4924                   22822000.5234
   4573974.97747   3597050.76344  23508106.2814                   23508105.4694
 11  8 13 17 26 30.0000000  0 10G03G06G07G10G13G19G28G23G08G11
   5814334.92247   4543505.71644  22293980.1094                   22293979.4024
  10326842.85246   8055227.12543  24283781.1804                   24283782.2624
 -12594000.59448  -9781578.56546  21153691.8674                   21153690.4534
   1000312.63345    805604.83642  24540222.6564                   24540222.1994
  -2466788.17648  -1906652.31546  20485551.3204                   20485549.7274
  -8138668.28548  -6321315.46346  21041761.9924                   21041758.7664
   4665420.07047   3645244.20744  23537942.7734                   23537941.7384
   8528911.26648   6655630.11045  21880264.1414                   21880261.4734
  -9644421.55547  -7506085.30745  22784873.2974                   22784872.7624
   4372984.27747   3440434.70144  23469858.6884                   23469858.8014
 11  8 13 17 27  0.0000000  0 10G03G06G07G10G13G19G28G23G08G11
   5779924.29747   4516692.17945  22287432.0784                   22287431.8014
  10299909.02746   8034239.65043  24278656.1954                   24278657.4184
 -12764261.09848  -9914249.08646  21121292.3204                   21121290.9264
    927918.22746    749193.54342  24526444.7274                   24526446.0824
  -2537040.88748  -1961394.72746  20472182.2894                   20472181.0234
  -8235966.72348  -6397132.43646  21023246.3284                   21023243.6054
   4488416.29747   3507319.28644  23504260.2034                   23504258.7774
   8502641.80548   6635160.31945  21875265.2894                   21875262.9344
  -9839535.90647  -7658122.44945  22747744.4694                   22747744.0124
   4172083.27747   3283888.54644  23431628.3984                   23431627.5514
 11  8 13 17 27 30.0000000  0 10G03G06G07G10G13G19G28G23G08G11
   5745897.14147   4490177.44444  22280956.5474                   22280956.0044
  10273204.65246   8013430.94943  24273574.3284                   24273575.3594
 -12934347.96948 -10046784.31346  21088925.8984                   21088924.4064
    855771.07046    692974.85242  24512715.7344                   24512717.8444
  -2606726.48448  -2015695.22446  20458921.8524                   20458920.7344
  -8332641.03948  -6472463.08046  21004850.0704                   21004846.5084
   4311646.42647   3369576.57744  23470622.0704                   23470620.7114
   8476715.87948   6614958.21745  21870331.6724                   21870329.7424
 -10034641.81247  -7810153.00545  22710617.2194                   22710616.5514
   3971290.69547   3127426.83844  23393418.1254                   23393418.0744
 11  8 13 17 28  0.0000000  0 10G03G06G07G10G13G19G28G23G08G11
   5712259.75047   4463966.44544  22274555.8054                   22274554.9144
  10246736.67246   7992806.48343  24268538.2734                   24268538.1174
 -13104250.07448 -10179175.55846  21056594.4844                   21056593.4344
    783877.73446    636953.97742  24499035.1804                   24499036.8524
  -2675837.10248  -2069547.69546  20445770.2894                   20445769.0514
  -8428683.04348  -6547301.01846  20986574.0944                   20986570.4694
   4135119.61747   3232023.21343  23437029.0864                   23437028.7274
   8451139.89148   6595028.79245  21865464.6564                   21865462.9144
 -10229728.86747  -7962168.85544  22673492.5234                   22673492.4884
   3770618.65246   2971059.10843  23355231.2274                   23355232.0394
 11  8 13 17 28 30.0000000  0 10G03G06G07G10G13G19G28G23G08G11
   5678999.79347   4438049.56644  22268226.7814                   22268226.2114
  10220493.52746   7972357.20843  24263544.1804                   24263544.7234
 -13273974.95348 -10311428.71046  21024297.1644                   21024295.6024
    712226.49646    581121.73843  24485400.5864                   24485402.6524
  -2744383.18448  -2122960.26646  20432726.3524                   20432725.1804
  -8524102.68748  -6621654.00746  20968416.1334                   20968413.1254
   3958825.93047   3094651.53043  23403481.6024                   23403481.2504
   8425902.43447   6575363.16645  21860662.1024                   21860660.1914
 -10424805.31647  -8114176.45145  22636370.6804                   22636370.2464
   3570061.44547   2814780.84844  23317067.1954                   23317066.6644
 11  8 13 17 29  0.0000000  0 10G03G06G07G10G13G19G28G23G08G11
   5646111.56347   4412422.31244  22261967.7814                   22261967.9494
  10194469.41846   7952078.59744  24258592.3284                   24258592.7464
 -13443524.21148 -10443545.01146  20992032.9844                   20992031.1254
    640811.46946    525473.65242  24471810.8984                   24471812.1884
  -2812369.70748  -2175936.81146  20419789.1954                   20419787.9344
  -8618904.30547  -6695525.39246  20950375.9064                   20950373.1604
   3782762.05947   2957458.95244  23369977.8054                   23369978.0204
   8400997.41048   6555956.55645  21855922.6724                   21855920.6914
 -10619873.13747  -8266177.32845  22599250.5084                   22599250.4884
   3369618.95347   2658591.96144  23278923.9924                   23278924.2424
 11  8 13 17 29 30.0000000  0 10G03G06G07G10G13G19G28G23G08G11
   5613590.93847   4387081.49544  22255779.2114                   22255778.7704
  10168660.60246   7931967.75844  24253680.9454                   24253680.7304
 -13612897.30148 -10575524.02846  20959802.4694                   20959800.6994
    569628.63746    470006.34143  24458266.2814                   24458266.9614
  -2879799.87548  -2228479.82946  20406957.7894                   20406956.6414
  -8713090.06248  -6768916.91146  20932453.0234                   20932449.6374
   3606926.27747   2820444.09444  23336517.6804                   23336517.1484
   8376420.72347   6536805.83145  21851246.3834                   21851243.7504
 -10814932.63347  -8418171.70645  22562132.6954                   22562132.1024
   3169292.66846   2502493.65544  23240802.8444                   23240803.1484
 11  8 13 17 30  0.0000000  0 10G03G06G07G10G13G19G28G23G08G11
   7156858.76247   5589627.79444  22549454.3444                   22549452.5474
  11718488.06646   9139625.42143  24548603.2034                   24548603.9534
 -12206664.34048  -9479758.07846  21227399.5784                   21227397.9654
   2074100.02046   1642321.72743  24744557.7034                   24744558.1374
  -1371249.90248  -1052986.36446  20694025.1644                   20694023.7894
  -7231235.56648  -5614225.09046  21214440.6174                   21214437.4304
   5006746.80947   3911213.38444  23602894.6484                   23602894.0124
   9927592.99248   7745511.42145  22146424.7584                   22146422.2274
  -9434553.60947  -7342551.68345  22824809.4064                   22824809.5984
   4544514.81647   3574095.38044  23502499.4064                   23502498.3014
 11  8 13 17 30 30.0000000  0 10G03G06G07G10G13G19G28G23G08G11
   7125073.16047   5564859.79344  22543405.6724                   22543404.3634
  11693110.54746   9119850.64643  24543773.4924                   24543775.1884
 -12375672.27348  -9611452.56346  21195238.5004                   21195236.9534
   2003381.02346   1587215.85343  24731100.3134                   24731101.6024
  -1437563.25448  -1104659.13846  20681406.2664                   20681404.8404
  -7324185.22348  -5686653.38946  21196752.8284                   21196750.0664
   4831374.36347   3774559.52844  23569522.5004                   23569521.8284
   9903672.80947   7726872.23045  22141872.6954                   22141870.9264
  -9629584.84047  -7494524.03545  22787696.7114                   22787696.1644
   4344438.14546   3418191.52744  23464425.5394                   23464425.0124
 11  8 13 17 31  0.0000000  0 10G03G06G07G10G13G19G28G23G08G11
   7093650.57847   5540374.59244  22537425.6884                   22537425.4264
  11667944.59046   9100240.77044  24538985.3134                   24538986.5474
 -12544495.48048  -9743003.10646  21163112.4924                   21163110.9494
   1932890.00846   1532287.74243  24717686.2734                   24717687.6374
  -1503321.01248  -1155898.97746  20668892.9844                   20668891.3984
  -7416518.76247  -5758601.61046  21179182.3284                   21179179.3914
   4656232.57447   3638085.46444  23536194.3444                   23536193.4494
   9880076.66047   7708485.53945  22137382.4924                   22137380.3794
  -9824600.53947  -7646484.29545  22750586.1414                   22750586.0514
   4144490.54347   3262388.27644  23426376.9454                   23426376.7464
 11  8 13 17 31 30.0000000  0 10G03G06G07G10G13G19G28G23G08G11
   7062584.55147   5516167.26544  22531514.3674                   22531513.8554
  11642984.45746   9080791.27843  24534235.4224                   24534236.8594
 -12713135.57848  -9874410.97646  21131021.2664                   21131019.6484
   1862620.86746   1477532.39343  24704315.3204                   24704316.4654
  -1568528.30948  -1206709.88746  20656484.6094                   20656483.4574
  -7508240.62148  -5830073.20346  21161728.0004                   21161725.1374
   4481317.84847   3501788.33044  23502909.3754                   23502908.5474
   9856798.24647   7690346.41845  22132953.0084                   22132950.6564
 -10019603.19547  -7798434.39045  22713478.5084                   22713478.4414
   3944671.83247   3106685.47044  23388352.5944                   23388351.7154
 11  8 13 17 32  0.0000000  0 10G03G06G07G10G13G19G28G23G08G11
   7031869.97347   5492233.77844  22525669.4844                   22525669.3674
  11618224.82446   9061498.03443  24529523.0164                   24529524.2854
 -12881593.63348 -10005676.98446  21098964.5944                   21098962.9344
   1792568.03546   1422945.72843  24690984.6024                   24690986.1174
  -1633189.51248  -1257095.27246  20644180.1024                   20644178.4264
  -7599354.84048  -5901071.30546  21144389.6414                   21144386.5864
   4306627.09847   3365665.72944  23469666.2894                   23469665.9964
   9833832.43848   7672450.91245  22128582.9454                   22128580.8014
 -10214594.46147  -7950375.61645  22676373.0394                   22676372.3164
   3744981.93047   2951082.97144  23350353.0944                   23350352.7234
 11  8 13 17 32 30.0000000  0 10G03G06G07G10G13G19G28G23G08G11
   7001497.37947   5468566.77445  22519889.7344                   22519889.8094
  11593657.11746   9042354.29743  24524848.2194                   24524848.3634
 -13049873.95348 -10136804.49946  21066942.0864                   21066940.6604
   1722722.78146   1368520.78243  24677692.6334                   24677694.9064
  -1697312.46148  -1307061.23246  20631977.6724                   20631976.2814
  -7689868.69148  -5971601.58146  21127165.5004                   21127162.7504
   4132153.39847   3229712.22844  23436464.9384                   23436464.3404
   9811170.03148   7654791.82645  22124270.6484                   22124267.9534
 -10409579.17647  -8102311.74445  22639268.5474                   22639267.8634
   3545418.05547   2795578.72744  23312377.2424                   23312376.6374
 11  8 13 17 33  0.0000000  0 10G03G06G07G10G13G19G28G23G08G11
   6971467.09047   5445166.49145  22514175.4694                   22514175.2194
  11569282.02346   9023360.59442  24520210.6954                   24520208.8284
 -13217971.82848 -10267789.84746  21034953.9844                   21034952.3524
   1653085.18046   1314257.61243  24664440.4304                   24664442.0204
  -1760895.91848  -1356606.81246  20619877.9924                   20619876.7274
  -7779780.34448  -6041662.61746  21110055.7114                   21110052.6094
   3957899.54747   3093930.04844  23403306.0164                   23403305.2384
   9788811.35947   7637369.39845  22120015.4924                   22120013.4264
 -10604552.62547  -8254239.09045  22602165.9614                   22602165.7274
   3345986.43047   2640177.52444  23274426.5394                   23274425.8834
 11  8 13 17 33 30.0000000  0 10G03G06G07G10G13G19G28G23G08G11
   6941775.12146   5422029.84944  22508524.4844                   22508524.5234
  11545095.71546   9004514.09442  24515608.1254                   24515605.5594
 -13385887.19948 -10398632.99746  21003000.5554                   21002999.1174
   1583651.09046   1260153.00443  24651228.0634                   24651230.4264
  -1823942.79348  -1405734.27146  20607880.6254                   20607879.4064
  -7869092.43048  -6111256.45346  21093060.2974                   21093056.8954
   3783863.98447   2958317.96444  23370187.7114                   23370187.1764
   9766752.41447   7620180.53445  22115817.6414                   22115816.1914
 -10799515.28947  -8406158.02645  22565065.8984                   22565064.9104
   3146688.47347   2484880.44444  23236501.3674                   23236501.4694
 11  8 13 17 34  0.0000000  0 10G03G06G07G10G13G19G28G23G08G11
   6912414.54746   5399151.42044  22502937.7114                   22502937.0474
  11521091.56646   8985809.53942  24511039.6884                   24511037.7114
 -13553622.10248 -10529335.51146  20971082.1254                   20971080.5944
   1514414.00446   1206201.94243  24638053.7894                   24638055.6844
  -1886458.95748  -1454448.19746  20595984.2344                   20595983.0474
  -7957810.41048  -6180387.36246  21076178.1094                   21076174.7234
   3610042.23447   2822872.48944  23337110.0864                   23337110.5204
   9744986.51648   7603219.98745  22111676.0394                   22111674.2034
 -10994470.26247  -8558070.97145  22527966.7734                   22527966.7624
   2947523.55547   2329687.07544  23198601.0474                   23198600.7974
 11  8 13 17 34 30.0000000  0 10G03G06G07G10G13G19G28G23G08G11
   6883381.12147   5376527.91444  22497413.3134                   22497412.8404
  11497265.81646   8967243.98842  24506506.6414                   24506505.1414
 -13721176.22348 -10659897.15346  20939197.8134                   20939195.6604
   1445369.50446   1152400.91543  24624914.9384                   24624917.6914
  -1948447.67248  -1502751.12746  20584187.9694                   20584187.1174
  -8045936.82048  -6249057.30146  21059408.1334                   21059405.2074
   3436432.16447   2687591.99044  23304072.9384                   23304073.0314
   9723509.16447   7586484.30645  22107589.1804                   22107587.1564
 -11189417.39847  -8709977.82144  22490869.9534                   22490869.3634
   2748493.02747   2174598.42044  23160726.8134                   23160727.2894
 11  8 13 17 35  0.0000000  0 10G03G06G07G10G13G19G28G23G08G11
   6854675.34447   5354159.72344  22491951.1724                   22491951.1174
  11473619.45746   8948818.14542  24502006.4774                   24502006.9384
 -13888544.48448 -10790313.96246  20907348.2814                   20907346.8674
   1376518.61347   1098750.76443  24611813.9454                   24611815.0944
  -2009907.56648  -1550641.98046  20572492.7584                   20572491.6174
  -8133469.76648  -6317264.80846  21042750.9924                   21042748.0514
   3263036.75047   2552478.69544  23271077.5944                   23271076.7854
   9702321.07448   7569974.00545  22103557.6484                   22103555.2274
 -11384352.23047  -8861875.07745  22453774.9454                   22453774.3284
   2549603.53547   2019619.67944  23122879.1644                   23122879.3284
 11  8 13 17 35 30.0000000  0 10G03G06G07G10G13G19G28G23G08G11
   6826291.76247   5332042.61244  22486549.8444                   22486550.3714
  11450147.62946   8930528.28043  24497540.4614                   24497541.5554
 -14055727.63348 -10920586.54446  20875534.1954                   20875532.8954
   1307855.85247   1045247.23044  24598747.6804                   24598748.8634
  -2070842.86348  -1598124.05046  20560897.0554                   20560895.6954
  -8220412.86748  -6385012.68746  21026206.5634                   21026203.1804
   3089853.22347   2417530.54544  23238121.6094                   23238121.2504
   9681416.90647   7553684.96645  22099579.5234                   22099577.4384
 -11579275.84847  -9013763.58645  22416682.4064                   22416681.5864
   2350855.78547   1864751.37744  23085059.0864                   23085059.2344
 11  8 13 17 36  0.0000000  0 10G03G06G07G10G13G19G28G23G08G11
   6798227.43047   5310174.26444  22481209.1954                   22481209.0824
  11426847.39146   8912372.19343  24493106.8204                   24493108.5944
 -14222724.09048 -11050713.64446  20843756.0314                   20843754.2504
   1239378.19147    991887.91144  24585716.3914                   24585719.8914
  -2131255.77348  -1645199.08146  20549401.0474                   20549399.9924
  -8306768.18048  -6452302.54946  21009773.8204                   21009770.4534
   2916881.12947   2282747.13844  23205206.3594                   23205205.9064
   9660793.85247   7537614.92745  22095654.5554                   22095653.4574
 -11774187.71547  -9165642.93645  22379591.4614                   22379591.0514
   2152252.33247   1709995.52044  23047266.2734                   23047266.1954
 11  8 13 17 36 30.0000000  0 10G03G06G07G10G13G19G28G23G08G11
   8345901.95746   6516154.36544  22775721.5004                   22775721.3794
  12979138.74646  10121949.77843  24788498.0704                   24788499.2624
 -12814105.18448  -9953088.52646  21111807.4844                   21111805.6214
   2746506.91047   2166273.82843  24872513.7584                   24872516.2584
   -615724.48848   -464265.64746  20837797.1804                   20837796.2114
  -6817112.58648  -5291531.97146  21293245.7194                   21293242.8134
   4319546.52747   3375733.23544  23472124.8364                   23472123.9884
  11215871.11347   8749363.34545  22391576.3834                   22391574.9574
 -10393658.38747  -8089905.80445  22642298.0394                   22642297.0864
   3529224.75447   2782961.09444  23309295.6484                   23309295.2734
 11  8 13 17 37  0.0000000  0 10G03G06G07G10G13G19G28G23G08G11
   8318469.66447   6494778.46944  22770501.7814                   22770500.9024
  12956176.85246  10104057.34643  24784128.5084                   24784129.7704
 -12980720.94548 -10082918.98946  21080101.2034                   21080099.6604
   2678393.86347   2113198.61544  24859552.1414                   24859553.7304
   -675095.24648   -510528.60546  20826499.1884                   20826498.3674
  -6902293.72748  -5357906.90646  21277036.2894                   21277033.7194
   4146997.33247   3241279.33344  23439289.2894                   23439288.5904
  11195803.69947   8733726.27645  22387758.0554                   22387756.2854
 -10588540.07447  -8241761.63645  22605213.3284                   22605212.2894
   3330921.64547   2628439.24844  23271559.0944                   23271558.6374
 11  8 13 17 37 30.0000000  0 10G03G06G07G10G13G19G28G23G08G11
   8291354.34046   6473649.59844  22765342.0554                   22765341.3834
  12933385.82846  10086298.05243  24779790.8914                   24779791.6604
 -13147138.30148 -10212594.84446  21048433.1254                   21048431.4184
   2610464.09446   2060266.25843  24846625.1174                   24846627.2274
   -733942.68448   -556383.78246  20815300.6254                   20815300.0274
  -6986884.41048  -5423821.73646  21260939.2194                   21260936.4804
   3974664.11747   3106993.79044  23406495.1254                   23406495.4534
  11176015.35947   8718306.71045  22383992.0084                   22383990.5904
 -10783399.21547  -8393599.90145  22568132.7814                   22568131.8134
   3132778.52046   2474042.10144  23233853.7504                   23233853.9574
 11  8 13 17 38  0.0000000  0 10G03G06G07G10G13G19G28G23G08G11
   8264554.89847   6452766.85544  22760241.8674                   22760241.7424
  12910764.67246  10068671.11744  24775486.2034                   24775487.4494
 -13313354.06648 -10342113.61046  21016803.4694                   21016801.7934
   2542716.61746   2007475.92443  24833733.2114                   24833735.9654
   -792267.80548   -601831.95546  20804202.1334                   20804200.9964
  -7070884.83648  -5489276.62246  21244954.2814                   21244951.3674
   3802547.98447   2972877.35944  23373742.9064                   23373741.9844
  11156504.68047   8703103.46845  22380280.1174                   22380277.4534
 -10978233.50447  -8545418.79645  22531057.1414                   22531056.1844
   2934800.12147   2319773.27344  23196180.1174                   23196179.2384
 11  8 13 17 38 30.0000000  0 10G03G06G07G10G13G19G28G23G08G11
   8238065.93047   6432126.02744  22755201.0394                   22755201.2734
  12888308.87546  10051173.11243  24771212.7894                   24771214.6094
 -13479368.94548 -10471475.87146  20985211.8674                   20985210.4654
   2475146.30546   1954823.66543  24820874.5004                   24820877.2774
   -850074.14148   -646875.88846  20793201.8674                   20793200.6564
  -7154298.75848  -5554274.49346  21229081.3054                   21229078.3054
   3630646.15647   2838927.91144  23341030.7194                   23341030.1994
  11137266.66047   8688112.70445  22376619.3594                   22376617.1214
 -11173043.59847  -8697218.86645  22493985.5784                   22493984.9774
   2736987.29747   2165633.46744  23158537.5004                   23158537.1764
 11  8 13 17 39  0.0000000  0 10G03G06G07G10G13G19G28G23G08G11
   8211884.61746   6411724.91244  22750219.3054                   22750219.1174
  12866015.22346  10033801.34444  24766971.8674                   24766972.0904
 -13645181.30548 -10600680.30346  20953658.5394                   20953657.0124
   2407749.83246   1902306.78843  24808050.3054                   24808051.4344
   -907364.41848   -691517.68046  20782299.9534                   20782298.8754
  -7237128.27048  -5618816.99046  21213319.2274                   21213316.4574
   3458957.71147   2705144.71744  23308359.4224                   23308359.0864
  11118298.21947   8673332.00345  22373009.5704                   22373007.3404
 -11367828.75047  -8848999.48045  22456919.3914                   22456918.4384
   2539342.50847   2011624.61444  23120926.9694                   23120926.9774
 11  8 13 17 39 30.0000000  0 10G03G06G07G10G13G19G28G23G08G11
   8186000.51247   6391555.45144  22745294.1254                   22745293.6174
  12843874.03146  10016548.33743  24762757.8984                   24762758.8554
 -13810797.00048 -10729731.48946  20922143.2424                   20922141.5554
   2340517.13746   1849917.55344  24795256.7194                   24795259.0984
   -964147.85548   -735764.54446  20771494.3364                   20771493.2734
  -7319382.55948  -5682911.24446  21197667.2424                   21197664.0084
   3287474.75847   2571521.71344  23275727.7274                   23275726.7074
  11099588.66047   8658753.03945  22369449.5704                   22369447.6804
 -11562595.08247  -9000765.42545  22419856.8134                   22419855.4384
   2341861.47747   1857743.33144  23083347.2194                   23083347.7814
 11  8 13 17 40  0.0000000  0 10G03G06G07G10G13G19G28G23G08G11
   8160411.83247   6371616.14844  22740425.1484                   22740424.6764
  12821884.07046   9999413.17843  24758573.8674                   24758574.0434
 -13976213.09048 -10858627.14846  20890665.5634                   20890663.8874
   2273446.40646   1797654.61843  24782493.4144                   24782496.0704
  -1020425.27748   -779617.11746  20760785.3364                   20760784.4304
  -7401061.55548  -5746557.21546  21182123.5394                   21182120.6564
   3116197.62947   2438059.02144  23243134.0944                   23243134.5164
  11081136.38747   8644374.52545  22365938.2344                   22365935.9844
 -11757339.76247  -9152514.49345  22382798.1024                   22382797.0784
   2144548.43047   1703992.97644  23045799.5784                   23045799.7934
 11  8 13 17 40 30.0000000  0 10G03G06G07G10G13G19G28G23G08G11
   8135116.44947   6351905.43844  22735611.6174                   22735611.5234
  12800043.84046   9982394.73343  24754417.8524                   24754417.7154
 -14141426.73048 -10987365.05046  20859226.2664                   20859224.6564
   2206536.14846   1745516.59743  24769761.4924                   24769762.4454
  -1076198.25848   -823076.61746  20750172.0164                   20750170.9384
  -7482165.82848  -5809755.36146  21166690.3204                   21166687.2304
   2945127.08247   2304757.33244  23210580.9064                   23210579.9224
  11062939.80147   8630195.27045  22362475.8984                   22362473.8404
 -11952060.57847  -9304244.97945  22345743.7734                   22345742.7854
   1947407.46946   1550376.68544  23008284.8444                   23008284.0554
 11  8 13 17 41  0.0000000  0 10G03G06G07G10G13G19G28G23G08G11
   8110109.47347   6332419.43944  22730852.4534                   22730853.1374
  12778348.93046   9965489.65943  24750288.7734                   24750289.1374
 -14306438.20348 -11115945.40746  20827825.8444                   20827824.1604
   2139781.66046   1693500.03143  24757058.5944                   24757058.7624
  -1131470.52348   -866145.93146  20739654.4224                   20739652.9224
  -7562699.44148  -5872508.83446  21151365.2734                   21151362.1294
   2774260.50447   2171614.59844  23178065.9384                   23178064.7624
  11044993.98047   8616211.39745  22359060.5864                   22359058.9264
 -12146758.49247  -9455957.62545  22308694.2734                   22308693.1884
   1750439.61746   1396895.30844  22970803.6484                   22970803.2424
 11  8 13 17 41 30.0000000  0 10G03G06G07G10G13G19G28G23G08G11
   8085390.12946   6313157.59644  22726148.4694                   22726148.5944
  12756798.91445   9948697.28542  24746187.4614                   24746189.2854
 -14471243.69948 -11244365.27246  20796464.5004                   20796462.6994
   2073181.79746   1641603.93043  24744385.0784                   24744386.3164
  -1186242.19548   -908825.19146  20729231.4534                   20729230.2584
  -7642662.06648  -5934817.38046  21136148.8594                   21136145.7854
   2603599.30547   2038631.90544  23145590.3914                   23145588.5474
  11027297.83647   8602422.09745  22355692.8594                   22355691.0744
 -12341430.37147  -9607649.96645  22271648.8364                   22271648.2974
   1553649.93047   1243552.74444  22933355.5944                   22933354.9964
 11  8 13 17 42  0.0000000  0 10G03G06G07G10G13G19G28G23G08G11
   8060954.94946   6294117.10944  22721498.2734                   22721498.4494
  12735390.34446   9932015.21142  24742114.5394                   24742115.7584
 -14635842.66848 -11372624.21646  20765142.3984                   20765140.7074
   2006732.77346   1589825.33843  24731740.3984                   24731742.4264
  -1240516.25048   -951116.69046  20718903.6564                   20718902.6174
  -7722056.39847  -5996683.11246  21121040.7424                   21121037.6564
   2433141.46547   1905807.61444  23113154.0004                   23113153.0634
  11009847.59847   8588824.36545  22352372.2584                   22352371.1954
 -12536075.75847  -9759321.65745  22234609.1804                   22234608.4304
   1357040.47746   1090350.63944  22895942.0394                   22895941.5984
 11  8 13 17 42 30.0000000  0 10G03G06G07G10G13G19G28G23G08G11
   8036799.78946   6275294.81544  22716902.2504                   22716902.0664
  12714119.87546   9915440.84442  24738066.7504                   24738068.4024
 -14800233.82448 -11500721.22346  20733859.5004                   20733858.0784
   1940431.01646   1538161.56843  24719122.1724                   24719124.8324
  -1294295.67248   -993022.76546  20708669.7194                   20708668.5704
  -7800884.71948  -6058107.77446  21106039.8984                   21106036.9534
   2262886.01247   1773141.05544  23080754.4224                   23080754.4964
  10992639.64147   8575415.45745  22349098.3524                   22349096.3674
 -12730693.81247  -9910972.05445  22197574.7114                   22197573.7344
   1160613.66446    937290.81944  22858563.0704                   22858562.3014
 11  8 13 17 43  0.0000000  0  9G03G07G10G13G19G28G23G08G11
   9588338.02046   7484285.60744  23012149.9384                   23012150.5824
 -13388994.39548 -10401054.11846  21002409.7344                   21002407.9104
   3449691.29746   2714208.48843  25006325.2664                   25006326.8834
    227834.34448    193052.52446  20998321.6484                   20998320.3714
  -6303730.75448  -4891494.31946  21390938.8594                   21390935.3794
   3668253.57047   2868232.69444  23348186.7034                   23348186.6804
  12551087.00847   9789789.92945  22645660.9534                   22645658.7274
 -11349861.40647  -8834998.73145  22460338.6174                   22460337.1884
   2539794.52047   2011977.22944  23121013.0314                   23121011.5784
 11  8 13 17 43 30.0000000  0  9G03G07G10G13G19G28G23G08G11
   9564725.96946   7465886.50844  23007656.6644                   23007657.1524
 -13552973.49648 -10528830.03346  20971205.0784                   20971203.6764
   3383666.81346   2662760.68842  24993761.7034                   24993763.5314
    175028.35548    151904.97446  20988272.8364                   20988271.5634
  -6381441.14547  -4952047.88846  21376151.0634                   21376148.0984
   3498392.63347   2735873.53444  23315863.8054                   23315863.3984
  12534346.15247   9776744.99945  22642475.0784                   22642473.6294
 -11544429.69947  -8986610.37945  22423312.9614                   22423311.7194
   2343733.35246   1859202.32244  23083703.0084                   23083702.7304
 11  8 13 17 44  0.0000000  0  9G03G07G10G13G19G28G23G08G11
   9541396.38346   7447707.52744  23003217.4614                   23003218.2424
 -13716728.71148 -10656431.48646  20940043.7504                   20940041.8674
   3317792.29346   2611429.80142  24981226.0784                   24981227.9184
    122721.39148    111146.27046  20978319.5314                   20978318.1414
  -6458579.63748  -5012155.82246  21361472.3204                   21361469.3054
   3328743.07047   2603679.09544  23283580.3674                   23283580.2074
  12517849.88747   9763890.64145  22639336.1954                   22639334.8874
 -11738955.65647  -9138189.02145  22386296.1174                   22386294.6294
   2147874.69146   1706585.23844  23046432.0314                   23046431.5124
 11  8 13 17 44 30.0000000  0  9G03G07G10G13G19G28G23G08G11
   9518341.25846   7429742.46944  22998830.9694                   22998830.8794
 -13880262.86748 -10783860.69546  20908924.0004                   20908922.2664
   3252060.19146   2560209.81543  24968717.4774                   24968719.1414
     70906.39148     70770.92446  20968459.1414                   20968458.0434
  -6535153.16448  -5071823.51946  21346900.6094                   21346897.7074
   3159299.51647   2471645.17844  23251336.5474                   23251335.7154
  12501590.42247   9751220.80545  22636242.1024                   22636240.6914
 -11933442.88747  -9289737.48845  22349286.2274                   22349285.6334
   1952216.84847   1554124.64044  23009199.5234                   23009199.0744
 11  8 13 17 45  0.0000000  0  9G03G07G10G13G19G28G23G08G11
   9495553.14547   7411985.42844  22994494.2664                   22994494.6334
 -14043579.37148 -10911120.32046  20877846.1254                   20877844.2974
   3186462.30145   2509094.46542  24956234.7504                   24956234.9964
     19575.89848     30773.08846  20958691.1254                   20958689.9964
  -6611168.71548  -5131056.43546  21332435.4774                   21332432.2974
   2990056.40647   2339767.43844  23219130.6024                   23219130.2034
  12485559.86347   9738729.35545  22633191.9144                   22633190.4104
 -12127894.96147  -9441258.56045  22312283.6484                   22312282.8874
   1756758.14846   1401819.21444  22972005.1254                   22972004.6644
 11  8 13 17 45 30.0000000  0  8G03G07G13G19G28G23G08G11
   9473022.21547   7394428.83244  22990205.9224                   22990206.9104
 -14206683.55948 -11038214.48046  20846808.2584                   20846806.7074
    -31279.43448     -8854.46646  20949014.0634                   20949012.4264
  -6686635.46548  -5189861.70746  21318074.6414                   21318071.8284
   2821005.66847   2208039.60344  23186962.0164                   23186960.9024
  12469747.85247   9726408.17044  22630183.1174                   22630181.8364
 -12322317.73847  -9592756.81345  22275285.7894                   22275284.9964
   1561494.03547   1249665.41944  22934848.1254                   22934847.0434
 11  8 13 17 46  0.0000000  0  8G03G07G13G19G28G23G08G11
   9450743.82447   7377068.95744  22985967.3754                   22985967.7544
 -14369574.79747 -11165142.70446  20815811.2974                   20815809.5394
    -81663.00448    -48114.42346  20939426.2814                   20939425.1604
  -6761556.01647  -5248241.37646  21303817.8524                   21303814.7504
   2652145.38747   2076460.19244  23154828.3054                   23154827.6414
  12454150.50447   9714254.27145  22627215.1484                   22627213.8014
 -12516710.57447  -9744231.73745  22238294.5314                   22238293.1024
   1366426.41847   1097664.69744  22897728.1024                   22897726.8364
 11  8 13 17 46 30.0000000  0  8G03G07G13G19G28G23G08G11
   9428728.27047   7359913.93144  22981778.0234                   22981778.2424
 -14532237.93447 -11291893.19846  20784857.6094                   20784855.5164
   -131564.34848    -86998.63746  20929929.8674                   20929929.1214
  -6835919.50447  -5306186.96446  21289667.0784                   21289664.5434
   2483488.06347   1945038.93544  23122733.8444                   23122732.4734
  12438778.00447   9702275.58645  22624289.6254                   22624288.2584
 -12711059.08247  -9895672.11345  22201310.7974                   22201309.8364
   1171571.67647    945829.88244  22860648.1414                   22860647.4184
 11  8 13 17 47  0.0000000  0  8G03G07G13G19G28G23G08G11
   9406974.61747   7342962.98643  22977638.3674                   22977638.3244
 -14694669.71147 -11418463.40146  20753947.8754                   20753946.2074
   -180983.82448   -125507.36346  20920526.2584                   20920525.1994
  -6909725.93747  -5363698.49946  21275622.0634                   21275619.0314
   2315035.31347   1813777.07644  23090678.4534                   23090677.0904
  12423629.40247   9690471.32745  22621407.2584                   22621406.1214
 -12905360.22747 -10047075.58645  22164336.6414                   22164335.7424
    976934.52346    794164.62044  22823609.9224                   22823609.3164
 11  8 13 17 47 30.0000000  0  8G03G07G13G19G28G23G08G11
   9385469.35247   7326205.59044  22973546.0704                   22973546.1254
 -14856878.86747 -11544860.17146  20723080.2504                   20723078.4264
   -229934.30148   -163650.62446  20911211.3754                   20911210.1134
  -6982987.49647  -5420785.43846  21261681.0164                   21261677.8204
   2146775.57447   1682665.62944  23058659.5474                   23058658.0234
  12408691.12147   9678830.99844  22618564.8284                   22618562.4104
 -13099622.98847 -10198449.14645  22127369.7344                   22127368.8834
    782507.27346    642662.92444  22786611.1484                   22786610.8094
 11  8 13 17 48  0.0000000  0  9G03G24G07G13G19G28G23G08G11
   9364202.27047   7309633.74543  22969498.7814                   22969498.8014
  26468326.19956  20634741.98353  24263983.5394                   24263987.4144
 -15018871.14548 -11671087.90646  20692254.5394                   20692252.3634
   -278425.53948   -201436.04646  20901983.5944                   20901982.5204
  -7055713.77347  -5477455.28646  21247841.1954                   21247838.2814
   1978700.82047   1551698.30344  23026675.8524                   23026674.7074
  12393952.65647   9667346.34644  22615760.1254                   22615758.0664
 -13293853.14147 -10349797.28445  22090408.5704                   22090408.5084
    588286.05547    491321.75844  22749652.1024                   22749651.6134
 11  8 13 17 48 30.0000000  0  9G03G24G07G13G19G28G23G08G11
   9343147.02347   7293227.04643  22965492.5944                   22965491.7774
  26272164.24646  20481888.77843  24226654.3284                   24226659.5984
 -15180668.14148 -11797163.45446  20661465.2974                   20661463.7304
   -326483.30548   -238883.70246  20892838.2664                   20892837.4264
  -7127930.67647  -5533728.21146  21234098.8444                   21234096.1094
   1810786.51247   1420856.01944  22994722.5474                   22994721.9344
  12379387.65247   9655996.86744  22612988.6024                   22612986.6644
 -13488073.18447 -10501137.55445  22053449.9064                   22053449.5164
    394249.77347    340124.69344  22712728.3054                   22712727.1844
 11  8 13 17 49  0.0000000  0  9G03G24G07G13G19G28G23G08G11
   9322296.91447   7276980.13844  22961524.9534                   22961524.3834
  26075907.81646  20328961.83743  24189308.4454                   24189313.3364
 -15342271.41448 -11923088.09146  20630713.2114                   20630711.6294
   -374113.71548   -275998.35446  20883774.7974                   20883773.9304
  -7199643.44548  -5589608.32446  21220452.7974                   21220449.7734
   1643028.73047   1290135.67444  22962799.4384                   22962799.2464
  12364989.51647   9644777.41444  22610249.1884                   22610247.5274
 -13682285.02047 -10652471.43545  22016492.6954                   22016492.4144
    200398.28546    189071.60044  22675839.3524                   22675838.8554
 11  8 13 17 49 30.0000000  0  9G03G24G07G13G19G28G23G08G11
  10877071.17247   8488492.49244  23257388.7424                   23257388.6024
  27454987.43846  21403569.53043  24451737.7894                   24451743.3284
 -13928252.62948 -10821255.27646  20899792.0944                   20899790.5394
   1154103.59048    914820.27346  21174585.1414                   21174584.3014
  -5695430.23848  -4417494.14946  21506695.2504                   21506691.9774
   3050853.70347   2387142.17244  23230699.6564                   23230698.9224
  13926177.47747  10861287.34544  22907332.6724                   22907331.9924
 -12301059.01647  -9576191.39045  22279331.4454                   22279330.5004
   1582162.40247   1265770.96244  22938779.8444                   22938780.2544
 11  8 13 17 50  0.0000000  0  9G03G24G07G13G19G28G23G08G11
  10856627.19147   8472562.04144  23253498.3444                   23253498.9184
  27258554.09046  21250504.83543  24414359.1334                   24414362.2854
 -14089459.25048 -10946870.82446  20869115.3204                   20869113.8094
   1107324.93448    878369.32546  21165683.3054                   21165681.8834
  -5766136.49647  -4472589.94946  21493239.8834                   21493236.8484
   2883410.89547   2256667.27144  23198836.2274                   23198835.8014
  13912108.81647  10850324.61344  22904655.7974                   22904654.9844
 -12495245.40247  -9727505.45845  22242378.9534                   22242378.2504
   1388693.85947   1115016.29344  22901964.8834                   22901964.1564
 11  8 13 17 50 30.0000000  0  9G03G24G07G13G19G28G23G08G11
  10836390.29347   8456792.94344  23249647.3054                   23249648.0514
  27062044.66046  21097380.69643  24376963.8834                   24376967.6524
 -14250456.34448 -11072323.09946  20838478.8284                   20838477.1804
   1060976.48448    842253.60146  21156863.7504                   21156862.3674
  -5836334.58647  -4527289.78746  21479881.8674                   21479878.8204
   2716132.84847   2126320.73044  23167004.7344                   23167003.6644
  13898208.63347  10839493.15144  22902010.9304                   22902009.9414
 -12689408.97347  -9878801.71645  22205430.8834                   22205429.6764
   1195429.34446    964420.62044  22865187.3914                   22865186.9104
 11  8 13 17 51  0.0000000  0  9G03G24G07G13G19G28G23G08G11
  10816358.38747   8441183.58744  23245835.3524                   23245836.5124
  26865462.96546  20944200.30043  24339555.0234                   24339558.9694
 -14411241.34448 -11197610.10746  20807882.2664                   20807880.6724
   1015056.92648    806472.06346  21148125.2114                   21148124.7424
  -5906025.42247  -4581594.34846  21466619.6954                   21466616.9344
   2549019.57847   1996102.65144  23135203.5864                   23135202.9344
  13884474.96547  10828791.45644  22899397.5084                   22899396.9104
 -12883547.06647 -10030078.12945  22168487.3364                   22168486.1844
   1002372.87147    813987.04144  22828450.3984                   22828449.5394
 11  8 13 17 51 30.0000000  0  9G03G24G07G13G19G28G23G08G11
  10796538.69146   8425739.63544  23242063.4144                   23242064.8444
  26668821.35246  20790973.24843  24302135.1334                   24302139.5474
 -14571802.73848 -11322722.89046  20777328.6484                   20777327.0984
    969573.67647    771030.52246  21139470.5554                   21139469.4804
  -5975201.18047  -4635497.55246  21453456.4454                   21453453.2344
   2382080.30547   1866020.12644  23103436.2034                   23103435.3054
  13870914.62547  10818224.80044  22896817.1564                   22896816.3594
 -13077648.19547 -10181325.76245  22131550.8444                   22131550.1844
    809537.48447    663725.74844  22791754.8364                   22791754.8914
 11  8 13 17 52  0.0000000  0  9G03G24G07G13G19G28G23G08G11
  10776934.63346   8410463.66743  23238332.6414                   23238334.0514
  26472129.28546  20637706.87843  24264706.4694                   24264710.9224
 -14732132.05548 -11447654.82646  20746818.7504                   20746817.3984
    924530.81648    735932.13846  21130898.9694                   21130898.1684
  -6043857.71147  -4688996.16246  21440391.2664                   21440388.8484
   2215320.86347   1736077.73044  23071702.9694                   23071702.6994
  13857531.23447  10807796.05244  22894270.7424                   22894269.3634
 -13271704.19947 -10332538.22445  22094623.6174                   22094622.8984
    616932.48847    513643.95444  22755102.9454                   22755102.3874
 11  8 13 17 52 30.0000000  0  9G03G24G07G13G19G28G23G08G11
  10757546.40646   8395355.88543  23234643.5704                   23234643.9694
  26275392.71946  20484405.89943  24227268.5234                   24227272.1644
 -14892224.48448 -11572402.17646  20716354.4694                   20716352.5394
    879928.76648    701177.25546  21122411.3754                   21122410.5474
  -6111994.01248  -4742089.40046  21427425.4454                   21427422.6454
   2048743.27747   1606277.06344  23040004.1334                   23040003.8524
  13844324.69947  10797505.11544  22891757.9384                   22891756.1644
 -13465710.61747 -10483712.02445  22057705.0634                   22057704.5004
    424563.88747    363746.39444  22718496.4064                   22718495.4774
 11  8 13 17 53  0.0000000  0  9G03G24G07G13G19G28G23G08G11
  10738373.37547   8380415.78043  23230995.4534                   23230995.6604
  26078616.79746  20331074.09443  24189823.5004                   24189826.2424
 -15052075.71948 -11696961.58746  20685935.6484                   20685933.9344
    835767.14848    666765.55846  21114007.8444                   21114006.7234
  -6179609.75848  -4794777.01046  21414558.7584                   21414555.6914
   1882349.51647   1476619.62745  23008340.8834                   23008340.2774
  13831294.82447  10787351.82344  22889278.3054                   22889276.7734
 -13659663.69147 -10634844.27445  22020797.3054                   22020796.6524
    232437.29746    214037.41844  22681936.0394                   22681935.4104
 11  8 13 17 53 30.0000000  0  9G03G24G07G13G19G28G23G08G11
  10719416.30147   8365644.01843  23227388.5084                   23227388.6294
  25881807.50446  20177716.39043  24152371.2344                   24152374.6804
 -15211680.44148 -11821328.90446  20655563.9774                   20655562.2194
    792047.29748    632698.10246  21105688.1334                   21105687.3324
  -6246704.02348  -4847058.27346  21401791.0084                   21401787.9104
   1716142.07047   1347107.32545  22976712.5164                   22976711.8164
  13818441.80147  10777336.34944  22886832.3984                   22886831.0204
 -13853558.19547 -10785930.87345  21983900.4694                   21983899.4884
     40559.10247     64521.97944  22645423.2504                   22645422.3094
 11  8 13 17 54  0.0000000  0  9G03G24G07G13G19G28G23G08G11
  10700673.32447   8351039.03243  23223821.9614                   23223822.1454
  25684968.34446  20024335.43643  24114913.5314                   24114917.8634
 -15371036.40248 -11945502.37846  20625239.4304                   20625238.1174
    748767.04748    598973.17546  21097452.4224                   21097451.8714
  -6313278.13348  -4898934.21846  21389122.4534                   21389119.6804
   1550120.72747   1217740.07045  22945119.7894                   22945119.1914
  13805763.47747  10767456.98844  22884419.8754                   22884418.9384
 -14047392.25447 -10936970.38345  21947015.1724                   21947014.1334
   -151067.18747    -84797.18044  22608957.6564                   22608956.7304
 11  8 13 17 54 30.0000000  0  9G03G24G07G13G19G28G23G08G11
  10682142.75847   8336599.54243  23220295.7814                   23220295.4574
  25488103.48846  19870934.39543  24077451.6414                   24077455.1994
 -15530140.25448 -12069479.40246  20594962.8524                   20594961.5474
    705925.24648    565589.90146  21089299.7894                   21089299.3834
  -6379332.65248  -4950405.28946  21376553.1254                   21376549.9144
   1384286.21947   1088518.40245  22913562.4844                   22913562.0394
  13793258.20346  10757712.44944  22882040.3054                   22882039.5824
 -14241162.69147 -11087960.31545  21910141.5474                   21910140.7584
   -342437.08247   -233916.52044  22572540.7424                   22572540.3134
 11  8 13 17 55  0.0000000  0  9G03G24G07G13G19G28G23G08G11
  10663829.29347   8322329.22344  23216810.3984                   23216810.6954
  25291223.66046  19717521.61643  24039986.0704                   24039990.8054
 -15688982.40248 -12193252.51446  20564736.3914                   20564735.0554
    663527.40648    532552.58746  21081232.0084                   21081230.7504
  -6444862.25448  -5001467.33846  21364082.8524                   21364080.0044
   1218645.94547    959448.05545  22882042.2974                   22882042.0474
  13780931.05546  10748106.73944  22879695.1094                   22879694.1134
 -14434859.62547 -11238892.97045  21873282.3674                   21873281.5234
   -533539.51247   -382827.46444  22536175.9144                   22536175.2274
 11  8 13 17 55 30.0000000  0  9G03G24G07G13G19G28G23G08G11
  10645729.96147   8308225.83344  23213366.3984                   23213366.6684
  25094331.17646  19564099.12543  24002519.2504                   24002522.6294
 -15847561.44148 -12316820.59746  20534559.8284                   20534558.0664
    621570.28948    499858.68246  21073247.4924                   21073247.0744
  -6509869.52747  -5052122.37746  21351712.4614                   21351709.6174
   1053198.40247    830527.93044  22850558.3594                   22850558.2584
  13768778.34846  10738636.92844  22877382.0004                   22877381.2034
 -14628482.35947 -11389767.81045  21836437.1254                   21836436.2544
   -724372.15647   -531528.17044  22499861.2974                   22499860.8674
 11  8 13 17 56  0.0000000  0  9G03G24G07G13G19G28G23G08G11
  12203268.73446   9521892.35843  23509756.2504   23509756.7464   26472861.66846
  20638278.93043                  24264844.7584                   24264847.3914
 -14430443.84448 -11212573.12046  20804228.2584                   20804226.7114
   2155478.69547   1695111.92246  21365140.7274                   21365140.1134
  -4998928.53948  -3874765.76346  21639235.1024                   21639231.9104
   2463374.26247   1929366.28544  23118905.8524                   23118905.6884
  15332223.77346  11956905.90944  23174896.3594                   23174895.4774
 -13246596.63747 -10312973.71745  22099401.2194                   22099400.2774
    660500.44147    547593.37144  22763393.2584                   22763393.4264
 11  8 13 17 56 30.0000000  0  9G03G24G07G13G19G28G23G08G11
  12185605.98846   9508129.12143  23506394.9224   23506395.6294   26275969.10246
  20484856.29342                  24227376.7664                   24227380.2194
 -14588474.14548 -11335713.61646  20774155.8444                   20774154.5824
   2114411.77048   1663111.66546  21357325.7734                   21357325.4454
  -5062881.73448  -3924599.43946  21627065.1024                   21627062.1524
   2298326.18047   1800757.44045  23087498.3054                   23087497.7664
  15320427.98846  11947714.22744  23172652.2274                   23172651.4064
 -13440049.20347 -10463715.95145  22062588.2424                   22062587.3054
    470232.71147    399332.85044  22727187.0164                   22727186.5984
 11  8 13 17 57  0.0000000  0  9G03G24G07G13G19G28G23G08G11
  12168161.25846   9494535.73043  23503075.3914   23503076.9614   26079084.82846
  20331440.16243                  24189911.4924                   24189913.8554
 -14746223.30148 -11458635.02846  20744137.4614                   20744135.8674
   2073790.22348   1631458.44946  21349595.7424                   21349594.9654
  -5126307.09047  -3974021.80646  21614995.6884                   21614992.8244
   2133481.16847   1672306.78245  23056129.7814                   23056129.1484
  15308810.53146  11938661.48244  23170440.8524                   23170440.2384
 -13633409.71147 -10614386.45645  22025792.7194                   22025792.0234
    280256.62947    251299.57045  22691035.3834                   22691034.6844
 11  8 13 17 57 30.0000000  0  9G03G24G07G13G19G28G23G08G11
  12150941.40247   9481117.58544  23499798.7974   23499799.8204   25882221.16846
  20178039.85743                  24152449.1334                   24152451.6644
 -14903679.64848 -11581328.29246  20714174.3524                   20714173.0084
   2033620.92648   1600157.64845  21341951.7734                   21341950.9804
  -5189196.80148  -4023026.80446  21603027.8984                   21603025.2384
   1968847.69147   1544021.00045  23024800.2734                   23024800.3204
  15297377.87146  11929752.78244  23168265.7584                   23168264.8244
 -13826667.44947 -10764976.90045  21989017.0164                   21989016.2234
     90584.46547    103503.13144  22654942.3914                   22654941.5274
 11  8 13 17 58  0.0000000  0  9G03G24G07G13G19G28G23G08G11
  12133946.23447   9467874.50744  23496565.0864   23496565.5704   25685384.00046
  20024660.46343                  24114992.0314                   24114995.9384
 -15060838.78548 -11703789.94346  20684268.1094                   20684266.6884
   1993903.96148   1569209.30546  21334394.1884                   21334393.4964
  -5251550.84047  -4071614.38046  21591162.5554                   21591159.4774
   1804427.91047   1415901.73545  22993512.7194                   22993511.7234
  15286130.05146  11920988.08043  23166125.1414                   23166124.2704
 -14019817.75447 -10915483.60345  21952261.8204                   21952260.7974
    -98778.15647    -44052.13345  22618907.6094                   22618907.7034
 11  8 13 17 58 30.0000000  0  9G03G24G07G13G19G28G23G08G11
  12117178.52747   9454808.70043  23493374.6334   23493374.4024   25488581.46547
  19871308.02843                  24077541.8364                   24077544.4694
 -15217693.83648 -11826014.65646  20654419.3284                   20654418.1214
   1954642.00448   1538615.51346  21326922.9844                   21326922.1214
  -5313366.17247  -4119782.19446  21579399.6804                   21579396.6174
   1640226.49247   1287952.58945  22962266.2344                   22962265.9924
  15275069.43447  11912369.23544  23164020.8204                   23164020.1644
 -14212853.74247 -11065901.25445  21915528.7114                   21915527.4064
   -287822.87147   -191359.66645  22582933.6724                   22582933.2464
 11  8 13 17 59  0.0000000  0  9G03G24G07G13G19G28G23G08G11
  12100635.77747   9441918.19143  23490226.1644   23490225.9384   25291816.98047
  19717985.16043                  24040098.6644                   24040101.7114
 -15374242.09848 -11948000.30546  20624629.4224                   20624627.6524
   1915833.13348   1508374.79445  21319538.0634                   21319537.5474
  -5374644.77047  -4167531.75946  21567738.6804                   21567735.5314
   1476242.75847   1160173.09945  22931060.9454                   22931059.7974
  15264193.32846  11903894.17244  23161951.4614                   23161950.7274
 -14405773.02748 -11216227.95645  21878817.1564                   21878816.3134
   -476546.43447   -338416.94945  22547020.3524                   22547020.5944
 11  8 13 17 59 30.0000000  0  9G03G24G07G13G19G28G23G08G11
  12084315.96547   9429201.40643  23487120.3284   23487120.1844   25095093.75047
  19564694.52643                  24002663.3204                   24002666.5784
 -15530481.19548 -12069745.06146  20594897.6804                   20594896.4064
   1877474.99647   1478485.27145  21312238.4844                   21312237.9384
  -5435388.34847  -4214864.44046  21556179.5634                   21556176.6684
   1312476.78147   1032563.26745  22899897.4224                   22899896.3634
  15253499.28547  11895560.97844  23159916.9144                   23159916.3714
 -14598573.55148 -11366462.11645  21842128.3674                   21842127.7154
   -664945.02347   -485221.01145  22511169.5084                   22511168.8754
 11  8 13 18  0  0.0000000  0  9G03G24G07G13G19G28G23G08G11
  12068212.37547   9416653.08043  23484056.3134   23484056.1524   24898411.40647
  19411435.67943                  23965235.8054                   23965238.8794
 -15686412.88348 -12191250.26246  20565225.4064                   20565223.6374
   1839561.28147   1448942.06945  21305023.9384                   21305023.5704
  -5495602.72747  -4261784.75446  21544720.8984                   21544718.1884
   1148924.09047    905119.66045  22868774.1884                   22868772.9494
  15242980.98847  11887364.71444  23157915.0004                   23157914.3984
 -14791256.88348 -11516604.96345  21805461.8284                   21805461.1764
   -853019.25047   -631772.32245  22475380.4614                   22475379.8134
 11  8 13 18  0 30.0000000  0  9G03G24G07G13G19G28G23G08G11
  12052319.26646   9404268.76743  23481031.2194   23481031.8874   24701769.19547
  19258208.14543                  23927815.6254                   23927819.0784
 -15842038.57848 -12312517.06546  20535610.6414                   20535609.2234
   1802085.95748   1419740.46145  21297892.3594                   21297891.7624
  -5555293.88747  -4308297.36646  21533362.2504                   21533359.5394
    985580.31347    777838.84745  22837690.5704                   22837690.7344
  15232632.02747  11879300.37944  23155945.7894                   23155944.9224
 -14983824.88747 -11666657.94546  21768817.4224                   21768816.9264
  -1040769.36747   -778071.08745  22439652.7894                   22439652.2034
 11  8 13 18  1  0.0000000  0  9G03G24G07G13G19G28G23G08G11
  12036632.55146   9392045.31643  23478046.5704   23478047.0274   24505169.18446
  19105013.47143                  23890403.3444                   23890406.9774
 -15997357.36347 -12433544.68946  20506054.2344                   20506052.6094
   1765045.41447   1390877.65245  21290844.2974                   21290843.5354
  -5614465.09848  -4354404.82446  21522102.1804                   21522099.6024
    822443.80947    650719.53745  22806647.0004                   22806646.0824
  15222448.76247  11871365.19244  23154007.9694                   23154007.2704
 -15176276.71147 -11816620.38645  21732194.9614                   21732194.3984
  -1228193.85547   -924116.09845  22403986.8284                   22403986.6094
 11  8 13 18  1 30.0000000  0  9G03G24G07G13G19G28G23G08G11
  12021147.38346   9379978.86243  23475099.9224   23475100.5474   24308611.89546
  18951852.13743                  23853000.8204                   23853003.4414
 -16152369.93048 -12554333.70146  20476556.7034                   20476554.9734
   1728434.29747   1362349.45645  21283877.4384                   21283876.3984
  -5673120.88748  -4400110.64946  21510940.3594                   21510937.8404
    659511.32447    523759.17445  22775641.6094                   22775641.0904
  15212425.91847  11863554.98544  23152101.0394                   23152100.3444
 -15368612.89548 -11966492.72345  21695594.8984                   21695594.3954
  -1415291.79747  -1069906.66645  22368383.3674                   22368382.8984
 11  8 13 18  2  0.0000000  0  9G03G24G07G13G19G28G23G08G11
  13581278.57446  10595665.41443  23771982.6804   23771983.3634   25687523.86746
  20026329.16643                  24115397.6954                   24115401.7704
 -14731652.22747 -11447280.93146  20746910.4534                   20746908.8094
   3267668.27347   2561752.50445  21576783.7814                   21576782.8754
  -4155845.09448  -3217817.84346  21799668.4534                   21799665.7234
   2072204.66047   1624559.18245  23044468.2344                   23044467.5124
  16777977.66447  13083465.26144  23450016.0784                   23450015.1804
 -13985408.58648 -10888671.14345  21958809.7274                   21958809.5084
    -26637.05547     12161.99545  22632635.2814                   22632634.5274
 11  8 13 18  2 30.0000000  0  9G03G24G07G13G19G28G23G08G11
  13566180.14546  10583900.35243  23769110.4694   23769110.5234   25491052.96146
  19873235.07543                  24078011.1564                   24078014.8754
 -14886054.68748 -11567594.52146  20717528.1884                   20717526.6994
   3231900.14548   2533881.17445  21569977.4224                   21569976.4144
  -4213486.34448  -3262733.11346  21788700.0634                   21788697.3204
   1909669.92247   1497908.76645  23013538.9694                   23013538.1764
  16768258.22347  13075891.52043  23448166.5784                   23448165.5474
 -14177516.69148 -11038365.75845  21922252.4774                   21922252.2664
   -213081.06247   -133119.01045  22597156.2734                   22597155.3134
 11  8 13 18  3  0.0000000  0  9G03G24G07G13G19G28G23G08G11
  13551266.32446  10572279.06843  23766272.0394   23766272.7664   25294625.03146
  19720174.52343                  24040631.2114                   24040635.3244
 -15040153.88347 -11687671.82446  20688204.3984                   20688202.7664
   3196544.75447   2506331.47345  21563249.8524                   21563248.8014
  -4270628.14148  -3307259.21946  21777826.3204                   21777823.0314
   1747328.31347   1371408.83545  22982646.5394                   22982646.0634
  16758681.46547  13068428.93843  23446343.9304                   23446343.8244
 -14369512.64148 -11187972.96045  21885717.0164                   21885716.7584
   -399198.45747   -278145.50245  22561739.2584                   22561739.1884
 11  8 13 18  3 30.0000000  0  9G03G24G07G13G19G28G23G08G11
  13536530.01246  10560796.15643  23763467.7584   23763468.6484   25098238.79346
  19567146.43143                  24003260.6334                   24003263.5204
 -15193952.10247 -11807514.59346  20658937.5084                   20658936.1484
   3161595.17247   2479097.98445  21556599.0944                   21556598.2734
  -4327277.32848  -3351401.45646  21767046.1724                   21767043.3324
   1585174.58247   1245055.30245  22951789.7814                   22951788.7194
  16749240.73847  13061072.30543  23444548.0084                   23444547.9844
 -14561398.45748 -11337494.36245  21849202.3444                   21849201.9494
   -584990.25447   -422918.29145  22526384.3364                   22526384.0824
 11  8 13 18  4  0.0000000  0  9G03G24G07G13G19G28G23G08G11
  13521968.29747  10549449.29544  23760697.3364   23760698.1764   24901896.39846
  19414152.45543                  23965898.0864                   23965901.4024
 -15347448.00847 -11927121.78946  20629728.3284                   20629726.5744
   3127048.32447   2452178.31145  21550024.7274                   21550024.5704
  -4383436.75048  -3395162.04946  21756359.3984                   21756356.8404
   1423207.35947   1118847.10545  22920967.9224                   22920967.6334
  16739932.46947  13053818.89844  23442776.6564                   23442776.7154
 -14753173.20348 -11486929.20546  21812708.8364                   21812708.4694
   -770454.32847   -567435.71445  22491091.7424                   22491090.7114
 11  8 13 18  4 30.0000000  0  9G03G24G07G13G19G28G23G08G11
  13507572.42647  10538231.62744  23757957.7034   23757958.9494   24705595.00046
  19261190.52443                  23928542.2114                   23928545.7894
 -15500645.50447 -12046496.46346  20600575.6254                   20600574.3484
   3092895.12147   2425565.36245  21543525.7734                   21543525.2114
  -4439114.93048  -3438547.66546  21745764.2814                   21745761.7384
   1261420.15647    992779.15745  22890181.3834                   22890180.4494
  16730747.60547  13046661.62743  23441028.5704                   23441029.0824
 -14944840.94548 -11636280.67346  21776235.6094                   21776235.2934
   -955593.48047   -711699.95244  22455860.7504                   22455859.6684
 11  8 13 18  5  0.0000000  0  9G03G24G07G13G19G28G23G08G11
  13493337.53547  10527139.43343  23755249.1644   23755249.4884   24509335.28946
  19108261.04043                  23891195.1484                   23891198.3634
 -15653545.18447 -12165639.07246  20571479.5474                   20571478.2854
   3059130.30547   2399255.05945  21537100.4774                   21537100.2774
  -4494316.75448  -3481562.09946  21735259.5784                   21735256.9144
   1099809.77347    866849.00845  22859428.3364                   22859427.3364
  16721680.98047  13039596.52943  23439303.8204                   23439303.7854
 -15136401.94548 -11785548.95646  21739782.7114                   21739782.1644
  -1140406.97747   -855710.43045  22420692.2734                   22420690.8834
 11  8 13 18  5 30.0000000  0  9G03G24G07G13G19G28G23G08G11
  13479258.62147  10516168.79043  23752569.9774   23752570.6684   24313117.89846
  18955364.41543                  23853856.3594                   23853858.8524
 -15806147.32047 -12284549.82446  20542440.5394                   20542439.2734
   3025749.10947   2373243.66545  21530748.5394                   21530748.0554
  -4549046.88748  -3524208.97446  21724845.1564                   21724841.9924
    938373.11747    741054.22545  22828707.2734                   22828706.6804
  16712727.25046  13032619.40543  23437599.9844                   23437600.0864
 -15327856.33248 -11934734.17146  21703350.2894                   21703349.8284
  -1324894.28547   -999466.74545  22385584.9064                   22385584.4414
 11  8 13 18  6  0.0000000  0  9G03G24G07G13G19G28G23G08G11
  13465331.55146  10505316.44243  23749920.1414   23749920.1844   24116944.78146
  18802502.38143                  23816526.2894                   23816529.5474
 -15958451.47348 -12403228.39146  20513458.2114                   20513456.5314
   2992747.75447   2347528.26745  21524468.0314                   21524468.1094
  -4603309.03548  -3566491.19046  21714518.9844                   21714516.1524
    777108.12547    615393.20945  22798019.6724                   22798018.9964
  16703882.98446  13025727.55043  23435916.8594                   23435917.1564
 -15519203.84848 -12083836.11645  21666937.8524                   21666936.8794
  -1509053.73847  -1142967.56045  22350540.6254                   22350540.7194
 11  8 13 18  6 30.0000000  0  9G03G24G07G13G19G28G23G08G11
  13451549.45746  10494577.06342  23747296.9454   23747297.2584   23920814.67647
  18649673.89543                  23779204.6724                   23779206.5434
 -16110459.74647 -12521676.40846  20484531.4844                   20484530.2304
   2960119.02047   2322103.20545  21518259.8594                   21518259.0904
  -4657109.83648  -3608413.90946  21704281.1884                   21704277.9304
    616009.80147    489862.09045  22767363.6254                   22767362.4734
  16695140.29746  13018914.86943  23434253.8754                   23434254.0084
 -15710446.93448 -12232856.70146  21630545.7194                   21630544.9224
  -1692886.53147  -1286213.85745  22315558.1644                   22315558.0984
 11  8 13 18  7  0.0000000  0  9G03G24G07G13G19G28G23G08G11
  13437910.75846  10483949.47342  23744702.0474   23744700.2424   23724731.21547
  18496881.68243                  23741890.6334                   23741893.0784
 -16262169.65648 -12639891.92246  20455662.5004                   20455660.7274
   2927860.71147   2296966.83045  21512121.0234                   21512119.8244
  -4710451.22348  -3649978.65146  21694130.7274                   21694127.7624
    455078.03147    364460.73345  22736739.1414                   22736738.4184
  16686497.27347  13012179.79943  23432609.9924                   23432609.9924
 -15901583.07848 -12381793.93646  21594173.4694                   21594172.8914
  -1876389.11347  -1429202.82445  22280639.1414                   22280638.4144
 11  8 13 18  7 30.0000000  0  9G03G24G07G13G19G28G23G08G11
  13424409.95746  10473429.30142  23742132.8594   23742130.6764   23528694.78947
  18344126.15043                  23704585.7424                   23704588.1254
 -16413581.71147 -12757875.34946  20426849.4224                   20426847.8324
   2895967.14847   2272114.64545  21506052.1484                   21506051.0744
  -4763338.50848  -3691189.53846  21684066.4064                   21684064.0084
    294309.25847    239186.38944  22706145.8914                   22706144.9884
  16677948.59047  13005518.25343  23430983.0394                   23430983.4924
 -16092612.67648 -12530648.14146  21557821.8914                   21557821.1604
  -2059561.02747  -1571934.14045  22245782.9064                   22245782.0474
 11  8 13 18  8  0.0000000  0  9G03G24G07G13G19G28G23G08G11
  13411042.52745  10463013.05542  23739588.0164   23739588.4304   23332706.49247
  18191408.12143                  23667290.4454                   23667292.2114
 -16564695.98847 -12875626.73546  20398093.5704                   20398092.0704
   2864433.95347   2247543.26145  21500051.7424                   21500051.0594
  -4815775.98448  -3732049.92546  21674088.2274                   21674085.4734
    133700.91447    114037.08245  22675583.4384                   22675582.0514
  16669489.69546  12998926.69043  23429373.5004                   23429373.9144
 -16283535.89848 -12679419.47245  21521490.7274                   21521489.5744
  -2242401.31247  -1714407.05845  22210989.2114                   22210988.0164
 11  8 13 18  8 30.0000000  0  9G03G24G07G13G19G28G23G08G11
  14973222.84446  11680296.26843  24036862.2814   24036862.6994   24712192.41047
  19266332.27843                  23929797.6334                   23929799.6524
 -15140089.40247 -11765543.69146  20669187.3524                   20669185.5704
   4408675.76247   3450848.50345  21793911.2344                   21793910.5234
  -3292347.75048  -2544963.01646  21963987.0084                   21963984.1454
   1548673.78547   1216613.35145  22944843.6334                   22944842.8164
  18236534.05946  14220000.00343  23727571.6644                   23727572.1254
 -14898927.79348 -11600504.04846  21784972.6644                   21784971.7664
   -849484.66847   -629017.43445  22476052.6334                   22476051.1054
 11  8 13 18  9  0.0000000  0  9G03G24G07G13G19G28G23G08G11
  14960106.23446  11670075.45643  24034366.4534   24034367.1484   24516301.64847
  19113690.27243                  23892521.5474                   23892522.7034
 -15290610.86347 -11882833.12846  20640543.8914                   20640542.3014
   4377846.55147   3426825.68645  21788044.5554                   21788044.3164
  -3343900.96948  -2585134.37946  21954176.5554                   21954173.6914
   1388375.66447   1091705.78545  22914339.8134                   22914339.0234
  18228237.27746  14213534.75243  23725993.2584                   23725993.8134
 -15089640.46948 -11749111.31846  21748681.2274                   21748680.6524
  -1031661.03547   -770972.98445  22441385.3204                   22441384.4144
 11  8 13 18  9 30.0000000  0  9G03G24G07G13G19G28G23G08G11
  14947113.82046  11659951.48543  24031894.3444   24031895.5124   24320466.91447
  18961091.85643                  23855255.0784                   23855257.5594
 -15440830.24247 -11999887.19846  20611958.3204                   20611956.4304
   4347368.60547   3403076.57045  21782244.4144                   21782244.3134
  -3395013.17648  -2624962.09846  21944450.2894                   21944447.5784
   1228234.27347    966920.30745  22883865.7894                   22883864.9104
  18220020.40246  14207131.77543  23724429.8984                   23724429.8554
 -15280241.81648 -11897631.82346  21712411.1564                   21712410.6564
  -1213498.41847   -912664.41145  22406782.9144                   22406782.4224
 11  8 13 18 10  0.0000000  0  9G03G24G07G13G19G28G23G08G11
  14934239.32846  11649919.31343  24029443.9924   24029445.0274   24124687.66447
  18808536.66643                  23817998.5704                   23818001.8284
 -15590749.37948 -12116707.30346  20583429.7034                   20583427.8984
   4317234.28947   3379595.23145  21776510.2894                   21776509.9064
  -3445690.78948  -2664451.16945  21934806.4614                   21934803.8404
   1068244.91447    842253.30745  22853420.7114                   22853419.8594
  18211876.59046  14200785.67243  23722879.7734                   23722881.0204
 -15470733.74648 -12046067.07846  21676161.5394                   21676160.7894
  -1394997.55547  -1054092.25645  22372244.8134                   22372244.4494
 11  8 13 18 10 30.0000000  0  9G03G24G07G13G19G28G23G08G11
  14921475.04747  11639973.09844  24027015.3524   24027016.4414   23928961.79347
  18656023.11943                  23780753.3834                   23780756.0744
 -15740371.12948 -12233295.68946  20554957.2504                   20554955.9304
   4287435.83247   3356375.58545  21770839.4384                   21770839.4774
  -3495941.33248  -2703607.46146  21925244.2814                   21925241.5314
    908401.77747    717700.23945  22823003.5784                   22823002.8524
  18203797.97346  14194490.47843  23721343.1564                   23721342.3484
 -15661119.35548 -12194419.48046  21639932.2814                   21639932.1804
  -1576160.80547  -1195258.37945  22337770.6094                   22337769.8634
 11  8 13 18 11  0.0000000  0  9G03G24G07G13G19G28G23G08G11
  14908821.33247  11630112.95144  24024607.7424   24024608.4844   23733295.22747
  18503555.79643                  23743519.2034                   23743521.3984
 -15889690.99248 -12349648.82446  20526542.5394                   20526541.1564
   4257973.56647   3333417.92045  21765233.3984                   21765232.5044
  -3545764.54748  -2742430.76845  21915763.4064                   21915760.5554
    748706.81347    593262.63345  22792614.3444                   22792613.8404
  18195784.86746  14188246.25643  23719818.1414                   23719817.9924
 -15851393.91048 -12342685.34946  21603724.2734                   21603723.7894
  -1756982.21147  -1336158.12445  22303361.0314                   22303360.3674
 11  8 13 18 11 30.0000000  0  9G03G24G07G13G19G28G23G08G11
  14896277.23847  11620338.23143  24022221.4924   24022221.1564   23537692.41447
  18351138.11743                  23706297.4304                   23706300.0274
 -16038705.54348 -12465764.05446  20498186.2664                   20498184.9064
   4228845.89547   3310720.96845  21759690.7894                   21759690.4384
  -3595161.55148  -2780921.97646  21906363.4694                   21906360.8204
    589160.85247    468941.11345  22762254.4224                   22762253.2584
  18187835.52346  14182051.69843  23718305.6884                   23718305.0944
 -16041553.91848 -12490861.96946  21567538.0394                   21567537.6094
  -1937457.69547  -1476788.35245  22269017.9924                   22269017.2344
 11  8 13 18 12  0.0000000  0  9G03G24G07G13G19G28G23G08G11
  14883835.75847  11610643.51544  24019853.6174   24019854.3674   23342152.14846
  18198769.21743                  23669087.0784                   23669090.5744
 -16187417.28548 -12581643.33147  20469887.5634                   20469885.7114
   4200045.63747   3288279.15845  21754209.8204                   21754210.0594
  -3644139.31248  -2819086.48846  21897043.5164                   21897040.2894
    429758.70747    344731.68645  22731921.4844                   22731920.0204
  18179943.07046  14175901.52643  23716804.3594                   23716803.8634
 -16231601.60948 -12638951.05946  21531373.3134                   21531372.6604
  -2117588.36347  -1617149.87345  22234740.2974                   22234739.0234
 11  8 13 18 12 30.0000000  0  9G03G24G07G13G19G28G23G08G11
  14871498.10246  11601029.54943  24017505.6804   24017506.8874   23146681.02747
  18046454.17743                  23631890.0554                   23631892.2584
 -16335820.68448 -12697282.33346  20441647.2274                   20441645.6254
   4171573.90247   3266093.32545  21748792.2274                   21748792.3094
  -3692696.73448  -2856923.46346  21887803.0234                   21887800.2974
    270503.07447    220636.39245  22701615.5634                   22701614.9104
  18172108.28946  14169796.35043  23715313.5944                   23715313.2424
 -16421531.30948 -12786948.21946  21495230.8914                   21495230.0394
  -2297367.85947  -1757237.75645  22200528.8834                   22200527.9734
 11  8 13 18 13  0.0000000  0  9G03G24G07G13G19G28G23G08G11
  14859252.30546  11591487.28143  24015175.7194   24015176.8164   22951273.08646
  17894188.38743                  23594705.0314                   23594707.3674
 -16483922.72348 -12812686.51846  20413464.5084                   20413462.6724
   4143418.10947   3244153.68845  21743433.9454                   21743434.2504
  -3740845.48048  -2894442.00646  21878640.8204                   21878638.3754
    111384.09047     96647.62545  22671336.1884                   22671335.1914
  18164318.99246  14163726.49443  23713831.7194                   23713831.6914
 -16611350.01648 -12934858.87446  21459109.6564                   21459108.5044
  -2476802.63747  -1897057.03345  22166383.8754                   22166383.2234
 11  8 13 18 13 30.0000000  0  9G03G24G07G13G19G28G23G08G11
  14847097.19146  11582015.71643  24012863.1094   24012863.9574   22755932.30546
  17741974.88043                  23557532.3284                   23557535.0744
 -16631720.79748 -12927853.84446  20385339.2814                   20385337.3794
   4115576.60947   3222458.92545  21738136.7814                   21738136.3794
  -3788587.38348  -2931643.51346  21869555.6804                   21869553.2814
    -47598.04347    -27234.55845  22641082.7344                   22641081.7854
  18156573.43446  14157690.76843  23712357.8834                   23712357.6414
 -16801054.51248 -13082680.54546  21423009.9064                   21423008.8754
  -2655888.59047  -2036604.51345  22132304.8834                   22132304.4344
 11  8 13 18 14  0.0000000  0  9G03G24G07G13G19G28G23G08G11
  14835026.38346  11572609.83242  24010564.0084   24010566.6644   22560658.59447
  17589813.71844                  23520373.7584                   23520376.0824
 -16779216.45348 -13042785.53246  20357271.7814                   20357270.0274
   4088042.94547   3201004.05945  21732896.9844                   21732896.6024
  -3835928.37948  -2968532.63346  21860547.4064                   21860544.3404
   -206447.78147   -151013.55545  22610854.6254                   22610854.0274
  18148865.64546  14151684.43143  23710891.2424                   23710891.7854
 -16990646.29748 -13230414.37546  21386931.8134                   21386931.2584
  -2834626.39147  -2175880.67745  22098292.2114                   22098291.4614
 11  8 13 18 14 30.0000000  0  9G03G24G07G13G19G28G23G08G11
  14823031.53946  11563263.15642  24008281.6644   24008284.1454   22365448.73446
  17437702.25044                  23483224.9534                   23483229.0744
 -16926413.77348 -13157484.74246  20329260.9844                   20329259.4884
   4060808.25847   3179782.16145  21727714.5314                   21727714.1764
  -3882877.15648  -3005116.10646  21851612.9774                   21851609.9654
   -365172.16047   -274694.87245  22580650.3284                   22580649.8794
  18141186.26646  14145700.22243  23709429.4224                   23709430.4774
 -17180129.96948 -13378063.96446  21350873.8134                   21350873.4144
  -3013019.42347  -2314888.15745  22064344.8444                   22064344.6484
 11  8 13 18 15  0.0000000  0  9G03G24G07G13G19G28G23G08G11
  16386527.50046  12781571.60542  24305805.6484   24305808.3324   23745729.42646
  18513245.79243                  23745884.6564                   23745887.8674
 -15497888.83248 -12044348.43146  20601100.5394                   20601098.8094
   5609287.43847   4386389.24745  22022380.6174                   22022379.9884
  -2354018.05948  -1813797.35646  22142545.4534                   22142542.1414
   1051650.63347    829322.92445  22850262.7734   22850261.7894   19708949.95346
  15367333.96643                  24007765.5084                   24007766.0004
 -15794079.85248 -12298024.88746  21614630.7664                   21614630.0474
  -1615641.94947  -1226022.60045  22330257.0704                   22330256.0634
 11  8 13 18 15 30.0000000  0  8G24G07G13G19G28G23G08G11
  23550648.71147  18361234.91644  23708762.2894                   23708764.4964
 -15644492.04748 -12158584.69946  20573202.1564                   20573201.0234
   5582634.11347   4365620.34845  22017309.2894                   22017308.2464
  -2400198.62547  -1849782.23646  22133757.3834                   22133754.5514
    893166.99647    705829.20545  22820104.2974   22820103.1564   19701311.46146
  15361381.65043                  24006311.9534                   24006312.7424
 -15983348.26648 -12445506.75946  21578614.1484                   21578613.3794
  -1793345.00847  -1364492.48845  22296441.0314                   22296439.6884
 11  8 13 18 16  0.0000000  0  8G24G07G13G19G28G23G08G11
  23355632.80147  18209274.58844  23671651.8834                   23671654.6334
 -15790799.50048 -12272590.51647  20545361.4614                   20545359.5744
   5556262.80547   4345071.23145  22012289.9694                   22012289.6374
  -2446003.15647  -1885474.10246  22125040.8674                   22125038.8014
    734798.28547    582425.03445  22789968.1724   22789966.9734   19693685.44146
  15355438.98743                  24004861.2974                   24004861.7034
 -16172510.32448 -12592905.74246  21542617.8204                   21542617.1254
  -1970702.80947  -1502693.34345  22262691.0704                   22262689.6454
 11  8 13 18 16 30.0000000  0  8G24G07G13G19G28G23G08G11
  23160695.57447  18057375.55444  23634556.5784                   23634558.9574
 -15936798.85948 -12386356.26547  20517578.4144                   20517576.7624
   5530180.75847   4324747.48645  22007327.0004                   22007326.5864
  -2491423.97747  -1920866.96546  22116398.0004                   22116395.1054
    576554.02047    459117.83945  22759855.3674   22759853.7194   19686079.11746
  15349511.81443                  24003414.1414                   24003415.1604
 -16361553.08248 -12740211.76246  21506644.1024                   21506643.6214
  -2147702.65647  -1640615.25645  22229009.3984                   22229007.8834
 11  8 13 18 17  0.0000000  0  8G24G07G13G19G28G23G08G11
  22965838.94947  17905539.28943  23597476.3674                   23597478.3054
 -16082489.14848 -12499881.16546  20489854.4844                   20489852.8754
   5504384.22747   4304646.23445  22002418.1644                   22002417.5594
  -2536464.72747  -1955963.66146  22107826.7504                   22107824.4614
    418432.43447    335906.23545  22729765.8594   22729764.4264   19678488.54346
  15343596.74843                  24001969.3594                   24001971.4184
 -16550475.42648 -12887423.96446  21470693.5554                   21470692.5904
  -2324342.59447  -1778256.74345  22195395.7894                   22195394.9614
 11  8 13 18 17 30.0000000  0  8G24G07G13G19G28G23G08G11
  22771060.43447  17753763.92743  23560411.0234                   23560412.9574
 -16227874.55548 -12613168.50247  20462188.7194                   20462187.0474
   5478864.55547   4284760.70045  21997561.9144                   21997561.4304
  -2581133.74248  -1990770.70945  22099326.7114                   22099324.0704
    260426.82447    212784.98545  22699697.9694   22699697.2154   19670905.24646
  15337687.48442                  24000527.1414                   24000528.3404
 -16739281.07048 -13034545.21946  21434765.3984                   21434764.1724
  -2500625.60247  -1915620.08545  22161850.6414                   22161849.6884
 11  8 13 18 18  0.0000000  0  8G24G07G13G19G28G23G08G11
  22576356.10247  17602046.33044  23523360.0554                   23523362.5234
 -16372959.91448 -12726222.03447  20434579.6884                   20434578.1684
   5453611.94147   4265083.28145  21992756.6884                   21992756.3094
  -2625440.60947  -2025295.57345  22090895.2814                   22090892.4734
    102529.33647     89748.00745  22669651.1804   22669650.2544   19663319.77746
  15331776.50442                  23999083.9064                   23999084.2194
 -16927974.68748 -13181579.19946  21398857.6094                   21398856.7894
  -2676555.59447  -2052708.36045  22128371.7114                   22128370.6564
 11  8 13 18 18 30.0000000  0  8G24G07G13G19G28G23G08G11
  22381727.41047  17450387.71844  23486323.4694                   23486325.3714
 -16517745.07448 -12839041.64046  20407028.2114                   20407026.7704
   5428621.84447   4245610.39345  21988001.0394                   21988001.0234
  -2669389.91048  -2059541.79345  22082532.2814                   22082529.4384
    -55262.28547    -33206.48045  22639624.5634   22639623.4734   19655727.77345
  15325860.45342                  23997638.1954                   23997639.6214
 -17116556.04348 -13328525.70046  21362971.6484                   21362970.7814
  -2852131.79747  -2189520.94145  22094960.4304                   22094959.2384
 11  8 13 18 19  0.0000000  0  8G24G07G13G19G28G23G08G11
  22187176.69147  17298789.84644  23449301.8834                   23449302.4264
 -16662228.94148 -12951626.47447  20379533.6484                   20379532.1214
   5403890.22347   4226338.93245  21983294.8364                   21983294.8054
  -2712985.15647  -2093512.15945  22074236.2504                   22074233.2704
   -212949.81247   -156079.86445  22609617.4454   22609616.1414   19648125.52345
  15319936.37542                  23996192.8364                   23996192.9574
 -17305024.00448 -13475383.84146  21327107.3594                   21327107.0234
  -3027352.17647  -2326056.29245  22061617.4534                   22061616.3754
 11  8 13 18 19 30.0000000  0  8G24G07G13G19G28G23G08G11
  21992714.37947  17147260.83843  23412296.6724                   23412298.0314
 -16806402.35548 -13063969.40147  20352098.2734                   20352096.7384
   5379421.34847   4207272.19045  21978638.4774                   21978638.9344
  -2756221.74247  -2127203.03545  22066008.8444                   22066006.1254
   -370526.88347   -278867.16245  22579631.2584   22579630.4694   19640517.617 5
                                  23994746.156
 -17493368.76248 -13622145.96446  21291266.4694                   21291266.1484
  -3202206.87147  -2462306.67645  22028343.4924                   22028343.0784
 11  8 13 18 20  0.0000000  0  8G24G07G13G19G28G23G08G11
  21798348.55547  16995807.01643  23375310.0314                   23375311.3524
 -16950258.76648 -13176065.30347  20324723.4384                   20324722.0704
   5355217.37947   4188411.89045  21974032.6414                   21974032.3714
  -2799097.31247  -2160612.60445  22057849.7814                   22057846.9104
   -527989.38747   -401565.19645  22549667.5634   22549666.7274   19632906.12915
                                  23993296.617
 -17681583.05148 -13768806.44646  21255450.4224                   21255449.7384
  -3376688.00847  -2598265.95745  21995140.6564                   21995140.0434
 11  8 13 18 20 30.0000000  0  8G24G07G13G19G28G23G08G11
  21604088.20347  16844435.34643  23338343.3054                   23338344.5744
 -17093789.93448 -13287907.78546  20297410.3984                   20297408.7234
   5331281.43847   4169760.41545  21969478.1884                   21969477.7504
  -2841608.25048  -2193738.05245  22049760.2504                   22049757.5204
   -685331.96947   -524169.78145  22519726.1644   22519725.5124   19625294.40215
                                  23991849.656
 -17869658.96148 -13915359.08446  21219661.0634                   21219660.2504
  -3550786.84847  -2733927.36645  21962011.2034                   21962009.7464
 11  8 13 18 21  0.0000000  0  8G24G07G13G19G28G23G08G11
  21409942.19947  16693152.81543  23301398.2424                   23301399.7504
 -17236988.55948 -13399491.12146  20270160.3134                   20270159.1054
   5307616.03547   4151319.78345  21964975.0164                   21964974.2154
  -2883752.06647  -2226577.41545  22041740.6174                   22041737.7664
   -842549.76647   -646677.13845  22489808.6024   22489807.4534   19617685.39155
  15296215.70352                  23990401.0234                   23990402.5704
 -18057588.69947 -14061797.83446  21183899.3054                   21183898.1724
  -3724495.38747  -2869284.65845  21928955.4534                   21928953.8914
 11  8 13 18 21 30.0000000  0  9G17G24G07G13G19G28G23G08G11
  35872450.18456  27964304.79253  24766986.0864                   24766990.3204
  22791342.32047  17769568.59443  23564270.5784                   23564271.9494
 -15804426.34048 -12283208.88646  20542768.1954                   20542766.5394
   6859640.96947   5360689.76845  22260315.1884                   22260315.3324
  -1350108.22747  -1031530.29945  22333583.2194                   22333580.1094
    575783.19147    458517.42145  22759708.2664   22759706.9654   21185498.38745
  16517887.88742                  24288747.0474                   24288746.7074
 -16669941.63748 -12980514.39346  21447959.6804                   21447958.8324
  -2322383.16447  -1776729.67645  22195768.6334                   22195767.5204
 11  8 13 18 22  0.0000000  0  9G17G24G07G13G19G28G23G08G11
  35645272.83246  27787283.65843  24723755.6414                   24723758.6564
  22597429.95747  17618468.13143  23527369.6484                   23527371.4344
 -15946959.31648 -12394273.55147  20515644.9144                   20515643.6764
   6836503.25447   5342660.29645  22255912.5634                   22255912.0984
  -1391530.63747  -1063807.51845  22325700.8364                   22325697.4844
    418807.23047    336198.52445  22729836.3204                   22729835.5354
  21177881.81645  16511952.61342  24287297.8914                   24287297.4844
 -16857577.10248 -13126723.81746  21412253.6804                   21412253.1994
  -2495307.37547  -1911475.76745  22162862.1094                   22162861.0314
 11  8 13 18 22 30.0000000  0  9G17G24G07G13G19G28G23G08G11
  35418179.15246  27610327.80243  24680541.2734                   24680544.1254
  22403634.44147  17467458.75443  23490491.6334                   23490494.0594
 -16089160.79748 -12505079.91847  20488585.1804                   20488583.5904
   6813620.36347   5324829.40745  22251558.0164                   22251557.8674
  -1432600.62547  -1095810.13845  22317885.5554                   22317882.9224
    261946.74647    213969.59445  22699986.8524                   22699985.8674
                                  21170253.10215                  24285844.797
 -17045066.35248 -13272819.31346  21376575.6334                   21376574.8954
  -2667839.82847  -2045916.61045  22130030.3444                   22130029.7384
 11  8 13 18 23  0.0000000  0  9G17G24G07G13G19G28G23G08G11
  35191181.10946  27433446.45143  24637344.2344                   24637347.0744
  22209968.82446  17316550.52043  23453638.1094                   23453640.8204
 -16231019.50048 -12615619.13947  20461590.3674                   20461588.6724
   6790999.03947   5307202.32145  22247253.4844                   22247253.2704
  -1473311.23447  -1127532.71645  22310138.4924                   22310136.3984
    105210.59447     91837.59145  22670161.2034                   22670160.5164
                                  21162618.910 4                  24284393.328
 -17232397.38748 -13418791.54046  21340927.5004                   21340926.8834
  -2839968.35547  -2180042.72445  22097275.0084                   22097274.5704
 11  8 13 18 23 30.0000000  0  9G17G24G07G13G19G28G23G08G11
  34964284.82046  27256644.43343  24594167.2114                   24594171.0784
  22016440.32047  17165749.12544  23416810.9384                   23416813.3444
 -16372529.39148 -12725886.60047  20434661.6024                   20434660.1454
   6768640.50847   5289780.01145  22242999.0474                   22242998.6374
  -1513661.37547  -1158974.40145  22302460.5084                   22302457.6024
    -51398.19147    -30195.19645  22640359.2814                   22640358.3954
                                                                  24282939.445
 -17419563.87948 -13564635.55146  21305311.0314                   21305310.3984
  -3011686.02747  -2313848.67245  22064598.6024                   22064597.5904
 11  8 13 18 24  0.0000000  0  8G17G24G07G13G19G28G08G11
  34737493.34446  27079924.04943  24551010.3754                   24551013.7854
  21823053.42247  17015058.15543  23380010.6884                   23380012.2624
 -16513687.53148 -12835879.94946  20407800.2584                   20407798.9064
   6746542.94547   5272561.03945  22238794.1564                   22238793.7734
  -1553652.59847  -1190136.41445  22294850.0554                   22294847.2934
   -207879.10947   -152128.33545  22610581.6174                   22610581.1954
 -17606562.60248 -13710348.82546  21269726.3284                   21269725.9694
  -3182989.11747  -2447331.56845  22032000.7194                   22031999.3204
 11  8 13 18 24 30.0000000  0  8G17G24G07G13G19G28G08G11
  34510807.27046  26903285.79643  24507873.1724                   24507877.0944
  21629809.52347  16864478.58544  23343237.4534                   23343239.3754
 -16654493.51648 -12945598.88746  20381005.6564                   20381004.5164
   6724701.68047   5255541.79445  22234637.4774                   22234637.9304
  -1593288.89547  -1221021.85145  22287307.6174                   22287304.6484
   -364234.64147   -273963.79245  22580828.7424                   22580827.0164
 -17793392.89848 -13855930.87046  21234174.1484                   21234173.3524
  -3353876.46947  -2580490.54045  21999481.9454                   21999480.6884
 11  8 13 18 25  0.0000000  0  8G17G24G07G13G19G28G08G11
  34284230.59046  26726732.83943  24464756.0004                   24464760.6334
  21436713.59447  16714014.28544  23306492.4384                   23306494.9224
 -16794944.05148 -13055040.87347  20354279.0634                   20354277.4804
   6703115.81347   5238721.54845  22230530.2584                   22230530.1174
  -1632571.19947  -1251631.46245  22279832.2974                   22279829.5204
   -520463.77348   -395700.73545  22551099.2894                   22551097.6644
 -17980050.33648 -14001378.22346  21198653.9384                   21198653.2934
  -3524343.74647  -2713322.14645  21967042.0554                   21967041.4654
 11  8 13 18 25 30.0000000  0  8G17G24G07G13G19G28G08G11
  34057764.24246  26550265.79143  24421660.7664                   24421664.5784
  21243767.69547  16563666.88344  23269776.1804                   23269778.4344
 -16935038.43048 -13164205.33446  20327619.7194                   20327618.6994
   6681780.69547   5222096.71045  22226470.5314                   22226469.9224
  -1671503.88347  -1281968.63845  22272423.6094                   22272421.1994
   -676568.87147   -517341.02445  22521393.6094                   22521392.0554
 -18166533.87548 -14146690.05146  21163167.5784                   21163166.5664
  -3694390.13347  -2845825.80445  21934684.0394                   21934682.1844
 11  8 13 18 26  0.0000000  0  8G17G24G07G13G19G28G08G11
  33831407.48046  26373884.17343  24378587.3054                   24378590.2464
  21050971.91047  16413436.48644  23233088.3444                   23233090.2074
 -17074777.68048 -13273093.06646  20301028.2974                   20301026.9734
   6660690.37547   5205662.62044  22222457.2974                   22222456.9534
  -1710092.59847  -1312037.78645  22265080.3834                   22265078.1604
   -832553.19547   -638887.20845  22491710.5234                   22491709.7504
 -18352844.43748 -14291867.11046  21127713.7734                   21127712.4264
  -3864015.44147  -2978001.35345  21902405.2584                   21902404.4224
 11  8 13 18 26 30.0000000  0  8G17G24G07G13G19G28G08G11
  33605161.12946  26197588.53643  24335533.8834                   24335536.3484
  20858327.85247  16263324.28644  23196428.6484                   23196430.9024
 -17214161.49248 -13381703.84247  20274504.5554                   20274502.9144
   6639840.76247   5189416.08045  22218489.8054                   22218489.5744
  -1748341.35947  -1341842.05145  22257801.9384                   22257799.1414
   -988419.28547   -760341.26045  22462050.3914                   22462049.3364
 -18538981.43048 -14436908.91746  21092293.0784                   21092292.2934
  -4033218.59047  -3109847.93045  21870207.2504                   21870205.6724
 11  8 13 18 27  0.0000000  0  8G17G24G07G13G19G28G08G11
  33379024.43846  26021378.36443  24292500.7034                   24292503.9884
  20665836.30947  16113330.95744  23159799.6644                   23159801.0234
 -17353190.56648 -13490038.18646  20248048.0164                   20248046.6024
   6619226.22347   5173352.72945  22214566.8914                   22214566.8794
  -1786255.36747  -1371385.46045  22250587.4454                   22250584.8244
  -1144170.41447   -881705.76045  22432411.3204                   22432410.2894
 -18724944.50448 -14581815.20046  21056905.4614                   21056904.1564
  -4201999.55947  -3241365.57745  21838089.0474                   21838088.3324
 11  8 13 18 27 30.0000000  0  8G17G24G07G13G19G28G08G11
  33153001.56646  25845256.84943  24249489.8134                   24249492.9344
  20473502.19147  15963460.32044  23123199.3524                   23123201.4104
 -17491861.24648 -13598093.26447  20221659.9064                   20221658.3164
   6598845.66047   5157471.68945  22210688.2664                   22210688.4414
  -1823835.53947  -1400668.72545  22243436.3444                   22243433.8714
  -1299805.71147  -1002979.98845  22402795.0314                   22402794.2774
 -18910729.56648 -14726582.77346  21021551.5864                   21021551.1804
  -4370354.27047  -3372551.03045  21806052.3524                   21806051.8714
 11  8 13 18 28  0.0000000  0  8G17G24G07G13G19G28G08G11
  34502518.23846  26896828.45143  24506294.3594                   24506297.1764
  21856751.13347  17041316.71844  23386422.7194                   23386424.8094
 -16054751.24248 -12478267.29146  20495132.8134                   20495131.6254
   8154112.52047   6369367.83145  22506646.3284                   22506645.3284
   -285667.40247   -202096.18545  22536140.1644                   22536137.4414
    120095.31647    103436.42345  22672993.5864                   22672992.7234
 -17520912.41848 -13643608.36246  21286025.0554                   21286024.0514
  -2962858.43448  -2275801.01145  22073890.0084                   22073889.1214
 11  8 13 18 28 30.0000000  0  8G17G24G07G13G19G28G08G11
  34276724.08646  26720885.13943  24463326.3444                   24463329.6644
  21664736.03547  16891694.63244  23349882.9304                   23349885.1374
 -16192705.12948 -12585763.83447  20468880.8834                   20468879.5004
   8134185.27047   6353840.01545  22502854.1724                   22502854.1884
   -322593.62147   -230869.88745  22529112.8834                   22529110.1334
    -35316.03947    -17663.30345  22643419.4144                   22643418.2894
 -17706340.51648 -13788097.78146  21250739.3134                   21250738.1294
  -3130358.02048  -2406320.15445  22042015.4534                   22042014.3874
 11  8 13 18 29  0.0000000  0  8G17G24G07G13G19G28G08G11
  34051046.86346  26545032.97243  24420381.8444                   24420384.3054
  21472885.10947  16742200.46144  23313374.9304                   23313377.0704
 -16330298.57048 -12692979.51947  20442697.9304                   20442696.4534
   8114479.96547   6338485.13945  22499104.3054                   22499104.6604
   -359197.41447   -259392.37645  22522147.6724                   22522144.8204
   -190616.92247   -138676.95445  22613866.2894                   22613865.5204
 -17891586.60548 -13932445.38146  21215488.2344                   21215487.4964
  -3297426.57447  -2536503.41845  22010223.2894                   22010222.4414
 11  8 13 18 29 30.0000000  0  8G17G24G07G13G19G28G08G11
  33825492.43846  26369276.37043  24377460.3134                   24377463.2384
  21281204.91847  16592839.32544  23276899.5634                   23276902.0354
 -16467526.09448 -12799910.05346  20416584.4774                   20416583.0274
   8094996.85547   6323303.39344  22495397.2194                   22495397.3714
   -395477.88347   -287662.90545  22515243.4614                   22515240.7894
   -345804.60547   -259602.40045  22584335.4064                   22584334.6524
 -18076645.22348 -14076646.87246  21180272.7114                   21180272.0434
  -3464058.19947  -2666346.21145  21978514.7664                   21978513.2154
 11  8 13 18 30  0.0000000  0  8G17G24G07G13G19G28G08G11
  33600076.31346  26193627.67943  24334564.7974                   24334567.5204
  21089711.78947  16443623.99544  23240459.2894                   23240461.8054
 -16604372.59048 -12906543.69447  20390543.3914                   20390541.5744
   8075746.60548   6308303.11345  22491734.2814                   22491734.1994
   -431424.50047   -315673.28745  22508403.0394                   22508400.2424
   -500866.69947   -380429.97745  22554828.1954                   22554827.8714
 -18261500.29348 -14220689.78946  21145095.8134                   21145095.0744
  -3630237.15647  -2795836.29345  21946891.4694                   21946890.7154
 11  8 13 18 30 30.0000000  0  8G17G24G07G13G19G28G08G11
  33374808.69546  26018094.59744  24291697.8444                   24291700.8444
  20898417.11747  16294563.28944  23204057.5004                   23204058.9414
 -16740828.07848 -13012872.65847  20364576.8674                   20364575.2464
   8056734.13747   6293488.08445  22488115.8914                   22488116.5204
   -467031.89547   -343419.33845  22501627.0634                   22501624.4774
   -655795.78947   -501153.91845  22525346.2424                   22525345.5904
 -18446141.68748 -14364566.19046  21109959.9774                   21109959.0004
  -3795952.81647  -2924965.35745  21915357.1334                   21915355.9574
 11  8 13 18 31  0.0000000  0  8G17G24G07G13G19G28G08G11
  33149688.02346  25842676.04844  24248858.4774                   24248861.8874
  20707320.56347  16145656.99043  23167692.8754                   23167694.3594
 -16876894.32848 -13118898.31747  20338684.2424                   20338683.0234
   8037952.74647   6278853.16045  22484542.3054                   22484542.1134
   -502306.48847   -370906.06445  22494914.8524                   22494912.5124
   -810596.20747   -621777.60345  22495888.2114                   22495887.6254
 -18630570.44548 -14508276.89846  21074863.9064                   21074863.3284
  -3961206.20747  -3053734.21245  21883910.5004                   21883909.6764
 11  8 13 18 31 30.0000000  0  8G17G24G07G13G19G28G08G11
  32924715.42246  25667372.86244  24206047.7584                   24206050.1484
  20516424.28546  15996906.71443  23131366.2114                   23131368.3204
 -17012570.48848 -13224620.02146  20312865.7194                   20312864.6844
   8019398.78147   6264395.42145  22481011.3134                   22481011.4494
   -537252.06647   -398136.40745  22488264.8834                   22488261.9064
   -965269.93747   -742302.55445  22466455.0234                   22466454.3244
 -18814784.85948 -14651820.59646  21039809.2274                   21039808.2854
  -4125996.24647  -3182141.99645  21852551.8834                   21852550.7274
 11  8 13 18 32  0.0000000  0  9G17G24G07G26G13G19G28G08G11
  32699888.08646  25492182.86644  24163264.5944                   24163266.8324
  20325726.67247  15848311.26643  23095077.7974                   23095079.2734
 -17147860.22748 -13330040.59047  20287121.3594                   20287119.7154
  37493770.87156  29239786.04753  24184487.0004                   24184487.4344
   8001064.25047   6250108.64644  22477522.4534                   22477522.8244
   -571876.08647   -425116.19645  22481676.1564                   22481673.5124
  -1119822.41447   -862733.03645  22437044.8444                   22437043.8014
 -18998788.12547 -14795199.74346  21004794.5704                   21004793.7584
  -4290325.16847  -3310190.48045  21821281.2504                   21821280.1174
 11  8 13 18 32 30.0000000  0  9G17G24G07G26G13G19G28G08G11
  32475199.02746  25317100.64844  24120507.6804                   24120510.4104
  20135221.82447  15699866.00044  23058825.8834                   23058826.9804
 -17282770.77748 -13435165.70646  20261448.4534                   20261447.1764
  37282711.29746  29075324.08743  24144323.7894                   24144324.6334
   7982936.99247   6235983.40445  22474073.1024                   22474073.4534
   -606190.54747   -451854.77845  22475146.8134                   22475143.9224
  -1274263.60947   -983076.80945  22407655.6724                   22407654.3874
 -19182586.45348 -14938419.20846  20969818.9614                   20969817.9344
  -4454199.50447  -3437884.75645  21790096.5704                   21790096.2624
 11  8 13 18 33  0.0000000  0  9G17G24G07G26G13G19G28G08G11
  32250644.48846  25142123.22944  24077775.8834                   24077778.5314
  19944906.55947  15551568.45844  23022609.9774                   23022611.5664
 -17417306.31248 -13539998.60946  20235847.1884                   20235845.7544
  37072019.60546  28911148.84943  24104230.3594                   24104232.6334
   7965008.09847   6222012.73244  22470661.2034                   22470662.0164
   -640204.16447   -478358.91145  22468673.9924                   22468671.0744
  -1428600.74647  -1103339.48445  22378286.4614                   22378284.9144
 -19366183.60248 -15081481.91446  20934881.5394                   20934880.5744
  -4617623.29347  -3565227.93145  21758998.2424                   21758997.0044
 11  8 13 18 33 30.0000000  0  9G17G24G07G26G13G19G28G08G11
  32026233.75446  24967257.87344  24035072.1334                   24035074.7584
  19754791.65647  15403427.06144  22986432.7194                   22986434.8014
 -17551457.59048 -13644532.09047  20210318.8834                   20210317.5044
  36861706.35946  28747268.47543  24064208.9614                   24064210.6484
   7947281.73047   6208199.85844  22467288.1724                   22467289.2544
   -673912.24647   -504624.97345  22462259.1334                   22462256.7774
  -1582826.86747  -1223515.65345  22348937.8364                   22348936.3524
 -19549569.57048 -15224380.06346  20899984.4144                   20899983.8244
  -4780586.91047  -3692212.55645  21727987.4614                   21727986.1254
 11  8 13 18 34  0.0000000  0  9G17G24G07G26G13G19G28G08G11
  31801972.98046  24792509.34444  23992396.8134                   23992398.4614
  19564884.25447  15255447.33744  22950293.4304                   22950295.3634
 -17685219.06248 -13748761.83746  20184865.1724                   20184863.8444
  36651778.50846  28583688.38643  24024261.4304                   24024262.1134
   7929758.72347   6194545.43244  22463953.9224                   22463954.5274
   -707313.70747   -530652.12845  22455903.5084                   22455900.9844
  -1736939.14847  -1343603.12345  22319611.0394                   22319610.4614
 -19732738.21948 -15367108.87446  20865128.6644                   20865128.0004
  -4943083.69147  -3818833.40645  21697064.9924                   21697064.1134
 11  8 13 18 34 30.0000000  0  9G17G24G07G26G13G19G28G08G11
  33153296.20746  25845488.63344  24249544.5634                   24249546.4774
  20950618.18447  16335240.07544  23213990.4774                   23213991.5274
 -16243160.23448 -12625079.65047  20459279.8364                   20459278.4144
  38017670.19946  29648019.58444  24284181.4534                   24284182.5514
   9487861.25047   7408651.16745  22760451.5084                   22760451.6884
    835014.25847    671161.84245  22749398.9144                   22749396.6994
   -315508.26247   -235994.62345  22590100.3594                   22590099.7464
 -18340256.82048 -14282058.42646  21130109.1024                   21130108.3914
  -3529681.38747  -2717480.93445  21966026.5704                   21966025.4494
 11  8 13 18 35  0.0000000  0  9G17G24G07G26G13G19G28G08G11
  32929352.83246  25670987.50043  24206928.2424                   24206931.3164
  20761146.50047  16187599.86844  23177935.1644                   23177937.0784
 -16376125.67248 -12728689.08247  20433977.2814                   20433976.2664
  37808532.78946  29485055.40544  24244384.0084                   24244385.0474
   9470747.75047   7395315.85744  22757194.7974                   22757195.3164
    802228.99247    645614.85145  22743160.3914                   22743158.2624
   -469382.99647   -355896.97845  22560818.8134                   22560818.1884
 -18522972.39148 -14424434.18846  21095339.6954                   21095338.4884
  -3691226.44947  -2843360.18045  21935285.8204                   21935284.3284
 11  8 13 18 35 30.0000000  0  9G17G24G07G26G13G19G28G08G11
  32705573.19546  25496613.92143  24164344.6564                   24164347.0824
  20571899.10947  16040134.46044  23141921.6254                   23141924.0234
 -16508688.62148 -12831984.88047  20408751.5234                   20408750.1884
  37599796.56347  29322403.85144  24204662.8594                   24204663.8244
   9453836.25847   7382137.96744  22753976.3594                   22753977.0824
    769749.75447    620306.33745  22736979.6804                   22736977.2624
   -623138.60947   -475706.52345  22531560.3134                   22531559.3054
 -18705455.64548 -14566628.93446  21060614.1334                   21060612.9614
  -3852290.39847  -2968864.55645  21904636.3914                   21904635.3954
 11  8 13 18 36  0.0000000  0  9G17G24G07G26G13G19G28G08G11
  32481958.28146  25322368.66743  24121791.4384                   24121794.9884
  20382878.37547  15892845.61744  23105953.0634                   23105954.5984
 -16640848.37148 -12934966.51147  20383602.4694                   20383601.0784
  37391463.50447  29160066.38444  24165018.5084                   24165018.9264
   9437123.08247   7369114.58544  22750795.8444                   22750795.7774
    737572.75447    595233.32245  22730855.7734                   22730854.0554
   -776776.84447   -595424.61945  22502323.9384                   22502322.5314
 -18887704.97747 -14708641.40946  21025933.1414                   21025931.9734
  -4012871.62547  -3093992.74845  21874078.2274                   21874077.7074
 11  8 13 18 36 30.0000000  0  9G17G24G07G26G13G19G28G08G11
  32258510.07446  25148253.32343  24079271.6254                   24079274.0234
  20194087.66846  15745736.04544  23070027.1804                   23070029.1884
 -16772603.44148 -13037632.80147  20358530.0474                   20358528.8444
  37183536.72347  28998045.59643  24125450.9774                   24125452.1134
   9420605.15247   7356243.33744  22747652.8054                   22747652.9614
    705695.27347    570393.68045  22724790.4064                   22724787.6254
   -930298.23447   -715051.63445  22473109.8984                   22473108.3634
 -19069718.21548 -14850469.88646  20991297.2034                   20991296.5314
  -4172968.00447  -3218743.15245  21843613.1414                   21843612.2304
 11  8 13 18 37  0.0000000  0  9G17G24G07G26G13G19G28G08G11
  32035233.68046  24974271.85743  24036783.1024                   24036785.8984
  20005532.85247  15598810.27444  23034146.5004                   23034148.1954
 -16903949.14148 -13139980.09947  20333536.0164                   20333534.7154
  36976021.57447  28836345.53844  24085961.6644                   24085963.4494
   9404281.98447   7343523.87044  22744546.6094                   22744547.2384
    674117.24247    545787.38245  22718780.9064                   22718778.6454
  -1083700.66847   -834585.98345  22443917.9144                   22443916.6024
 -19251490.14548 -14992110.34246  20956707.0634                   20956706.6724
  -4332574.77047  -3343112.05145  21813241.3674                   21813240.1684
 11  8 13 18 37 30.0000000  0  9G17G24G07G26G13G19G28G08G11
  31812132.09847  24800426.59843  23994328.6024                   23994331.3054
  19817217.88347  15452071.41144  22998311.5554                   22998313.0514
 -17034882.94548 -13242006.44247  20308620.0864                   20308618.8244
  36768921.85247  28674969.17943  24046552.7814                   24046553.4654
   9388151.65247   7330954.66344  22741477.6094                   22741478.3484
    642836.72347    521412.92445  22712828.4844                   22712826.6414
  -1236984.32047   -954027.75445  22414749.0944                   22414747.9884
 -19433017.03147 -15133559.85946  20922163.5784                   20922162.9924
  -4491688.71547  -3467096.91145  21782962.9774                   21782962.1174
 11  8 13 18 38  0.0000000  0  9G17G24G07G26G13G19G28G08G11
  31589210.22347  24626721.35043  23951908.4454                   23951910.2234
  19629149.06347  15305524.34444  22962522.6024                   22962524.0904
 -17165400.49248 -13343708.42747  20283783.4384                   20283782.0984
  36562243.23047  28513920.94743  24007222.9064                   24007223.0434
   9372214.13747   7318535.68244  22738444.8364                   22738445.4384
    611854.19547    497270.64545  22706933.1334                   22706930.5434
  -1390146.70347  -1073375.04445  22385603.6564                   22385602.3834
 -19614293.75447 -15274814.44246  20887667.8914                   20887666.9264
  -4650304.41447  -3590693.53445  21752779.2344                   21752778.4304
 11  8 13 18 38 30.0000000  0  9G17G24G07G26G13G19G28G08G11
  31366468.01647  24453156.08243  23909521.2664                   23909522.2234
  19441327.22747  15159169.74344  22926781.8754                   22926783.0784
 -17295502.23848 -13445086.39846  20259025.9064                   20259024.4144
  36355986.60546  28353201.50543  23967974.1954                   23967973.5394
   9356464.44547   7306263.07144  22735448.1414                   22735449.0204
    581164.65647    473356.68045  22701092.7274                   22701090.8164
  -1543191.22747  -1192630.48045  22356479.7894                   22356478.4414
 -19795319.85548 -15415873.73146  20853219.7274                   20853218.5824
  -4808421.87947  -3713901.91645  21722690.3054                   21722689.3134
 11  8 13 18 39  0.0000000  0  9G17G24G07G26G13G19G28G08G11
  31143912.28947  24279736.21044  23867170.7194                   23867171.4964
  19253760.04747  15013013.52344  22891088.5864                   22891090.5904
 -17425182.10248 -13546135.66047  20234348.4694                   20234347.1844
  36150159.05946  28192816.50243  23928806.2814                   23928805.6214
   9340903.72347   7294137.69644  22732486.9924                   22732487.9574
    550769.72347    449672.28145  22695309.5084                   22695307.1414
  -1696113.87147  -1311790.96145  22327379.4614                   22327378.8874
 -19976088.35948 -15556732.28346  20818820.4844                   20818819.0434
  -4966034.82847  -3836717.15645  21692697.5084                   21692696.5904
 11  8 13 18 39 30.0000000  0  9G17G24G07G26G13G19G28G08G11
  30921546.94947  24106464.65244  23824855.6564                   23824857.3834
  19066453.22747  14867060.27444  22855445.2734                   22855446.5554
 -17554435.66848 -13646852.71947  20209752.8834                   20209751.1604
  35944765.88746  28032769.85243  23889721.0864                   23889719.9964
   9325531.48047   7282159.18744  22729561.6484                   22729562.3364
    520669.00047    426217.11745  22689581.5084                   22689578.4414
  -1848913.14147  -1430855.30045  22298302.7894                   22298301.8954
 -20156594.52348 -15697386.42846  20784471.4304                   20784470.2544
  -5123138.42647  -3959135.52345  21662801.7584                   21662800.5394
 11  8 13 18 40  0.0000000  0  9G17G24G07G26G13G19G28G08G11
  30699374.89847  23933343.71844  23782577.9144                   23782579.4574
  18879410.42247  14721312.66044  22819851.8984                   22819853.9384
 -17683260.96148 -13747236.07547  20185237.8444                   20185236.5204
  35739810.33246  27873064.35443  23850718.5944                   23850718.2704
   9310345.59047   7270325.91444  22726671.8134                   22726672.0634
    490860.57047    402989.73245  22683908.9534                   22683906.2234
  -2001589.06647  -1549823.54645  22269249.6884                   22269248.3554
 -20336835.56248 -15837833.98246  20750172.5864                   20750171.5634
  -5279730.00847  -4081154.91345  21633003.4924                   21633002.4964
 11  8 13 18 40 30.0000000  0  9G17G24G07G26G13G19G28G08G11
  30477396.16846  23760373.43544  23740336.3284                   23740338.8874
  18692632.74646  14575771.69944  22784309.5784                   22784311.5744
 -17811658.38748 -13847286.02747  20160804.6724                   20160803.3444
  35535293.21946  27713700.35843  23811800.3054                   23811800.7894
   9295340.85547   7258633.75944  22723816.9614                   22723817.0314
    461339.66047    379986.40645  22678291.6954                   22678289.2814
  -2154144.34447  -1668697.76945  22240219.4534                   22240218.1844
 -20516810.78548 -15978074.41746  20715924.1884                   20715924.2544
  -5435809.42247  -4202775.20145  21603302.3834                   21603301.5984
 11  8 13 18 41  0.0000000  0  9G17G24G07G26G13G19G28G08G11
  31831044.61746  24815164.61844  23997927.2424                   23997929.2584
  20081554.30947  15658048.29344  23048612.3204                   23048614.3484
 -16364197.48448 -12719394.42047  20436247.4844                   20436245.8444
  36906648.70346  28782289.17343  24072760.9064                   24072761.0784
  10855939.31347   8474684.39444  23020788.5864                   23020789.2624
   2007529.17247   1584809.37645  22972521.2664                   22972519.2934
   -731150.33247   -559871.24945  22511006.1644                   22511004.9024
 -19121086.88748 -14890497.35546  20981521.8914                   20981521.0824
  -4015944.67248  -3096387.04945  21873493.6414                   21873492.9304
 11  8 13 18 41 30.0000000  0  9G17G24G07G26G13G19G28G08G11
  31609472.50046  24642511.18844  23955763.0474                   23955765.2274
  19895330.36746  15512938.79244  23013175.5634                   23013176.6054
 -16491720.71548 -12818763.18947  20411980.2814                   20411979.0124
  36703030.51246  28623625.70343  24034013.9454                   24034013.6804
  10841301.78547   8463278.37644  23018003.9694                   23018004.2114
   1978588.76647   1562258.37245  22967013.9304                   22967011.9964
   -883452.94947   -678548.60045  22482023.9064                   22482022.8754
 -19300508.68748 -15030306.55646  20947379.3914                   20947378.0164
  -4170979.64148  -3217193.49945  21843991.5944                   21843990.3914
 11  8 13 18 42  0.0000000  0  9G17G24G07G26G13G19G28G08G11
  31388107.58246  24470019.20644  23913638.1804                   23913640.8954
  19709389.02047  15368049.48844  22977791.5634                   22977792.7934
 -16618803.34048 -12917788.62047  20387797.3134                   20387795.9414
  36499867.06346  28465316.56743  23995352.4774                   23995352.7504
  10826844.62147   8452012.92844  23015252.6954                   23015252.7114
   1949935.58647   1539931.17145  22961561.6334                   22961559.3484
  -1035629.36347   -797127.60645  22453065.9384                   22453064.2304
 -19479648.90648 -15169896.33646  20913289.8364                   20913288.9304
  -4325488.25847  -3337589.79345  21814589.6094                   21814588.2344
 11  8 13 18 42 30.0000000  0  9G17G24G07G26G13G19G28G08G11
  31166957.02346  24297694.24044  23871554.2664                   23871557.0044
  19523738.05946  15223386.46844  22942463.2344                   22942465.6414
 -16745439.12548 -13016465.85747  20363699.3674                   20363698.1174
  36297165.69947  28307367.54443  23956780.0004                   23956780.1024
  10812569.44947   8440889.26544  23012536.1564                   23012537.8594
   1921571.42247   1517829.18645  22956164.4144                   22956161.8014
  -1187675.52047   -915605.11145  22424132.0554                   22424130.8714
 -19658500.67648 -15309261.34646  20879255.3364                   20879254.4494
  -4479463.78147  -3457570.68945  21785288.6094                   21785288.2384
 11  8 13 18 43  0.0000000  0  9G17G24G07G26G13G19G28G08G11
  30946024.36346  24125539.11244  23829512.6884                   23829515.0234
  19338382.53547  15078953.66144  22907191.5394                   22907192.8594
 -16871624.80148 -13114792.37147  20339687.3284                   20339685.7854
  36094930.98847  28149782.09143  23918296.5164                   23918296.2304
  10798475.13347   8429906.49144  23009854.1094                   23009855.5204
   1893496.03147   1495952.22945  22950821.9924                   22950819.5434
  -1339590.34847  -1033980.28945  22395223.7034                   22395222.9304
 -19837059.25848 -15448397.89046  20845276.8054                   20845275.9454
  -4632902.27047  -3577133.12645  21756090.6884                   21756089.7344
 11  8 13 18 43 30.0000000  0  9G17G24G07G26G13G19G28G08G11
  30725314.09446  23953557.26644  23787512.4844                   23787515.0594
  19153327.75447  14934755.21544  22871976.5784                   22871977.7274
 -16997356.48448 -13212765.11447  20315761.6024                   20315760.0474
  35893168.15247  27992564.37243  23879901.8984                   23879901.6954
  10784560.95347   8419064.13344  23007206.2734                   23007208.3364
   1865708.69947   1474299.72945  22945534.1334                   22945531.8284
  -1491372.38747  -1152251.99945  22366340.6414                   22366339.4304
 -20015319.75448 -15587302.17746  20811355.0864                   20811354.4534
  -4785799.33647  -3696273.66945  21726995.0314                   21726994.4654
 11  8 13 18 44  0.0000000  0  9G17G24G07G26G13G19G28G08G11
  30504831.54747  23781752.82244  23745556.2194                   23745558.6134
  18968580.43447  14790796.33444  22836820.3134                   22836821.6994
 -17122628.98048 -13310380.07447  20291922.9774                   20291921.4494
  35691882.90647  27835718.76744  23841598.5784                   23841598.6374
  10770827.40647   8408362.53544  23004592.8444                   23004594.1844
   1838209.85547   1452872.00945  22940301.1484                   22940299.4884
  -1643018.87947  -1270418.05445  22337483.4144                   22337482.1844
 -20193276.31648 -15725969.61946  20777491.2194                   20777490.1484
  -4938149.98047  -3814988.44745  21698003.6414                   21698002.8284
 11  8 13 18 44 30.0000000  0  9G17G24G07G26G13G19G28G08G11
  30284580.03947  23610128.42844  23703643.0474                   23703646.1994
  18784145.05547  14647080.52044  22801722.8364                   22801725.0004
 -17247439.44148 -13407635.00047  20268172.4454                   20268170.9304
  35491079.47347  27679248.59243  23803386.1804                   23803387.1454
  10757272.63347   8397800.18944  23002013.4694                   23002015.0944
   1810998.18447   1431668.04145  22935122.9224                   22935121.0904
  -1794528.89147  -1388477.80345  22308651.9224                   22308651.1454
 -20370925.35248 -15864397.43546  20743685.4064                   20743684.5664
  -5089950.46547  -3933274.50846  21669117.0234                   21669116.1134
 11  8 13 18 45  0.0000000  0  9G17G24G07G26G13G19G28G08G11
  30064563.91847  23438687.41644  23661775.2894                   23661779.0204
  18600027.09446  14503612.03744  22766686.4924                   22766688.3634
 -17371784.43048 -13504527.21947  20244510.2034                   20244508.5124
  35290762.80547  27523157.74843  23765268.0234                   23765268.4144
  10743896.12947   8387376.78144  22999469.3524                   22999469.5944
   1784073.33247   1410687.60745  22929998.7344                   22929997.4344
  -1945901.41047  -1506430.39445  22279846.6174                   22279845.4384
 -20548261.89848 -16002581.74846  20709939.5864                   20709938.2814
  -5241196.87547  -4051128.85045  21640335.8134                   21640334.9924
 11  8 13 18 45 30.0000000  0  9G17G24G07G26G13G19G28G08G11
  29844779.47747  23267426.96544  23619951.9224                   23619954.3484
  18416223.96947  14360388.89544  22731709.8204                   22731711.8054
 -17495667.92648 -13601059.81047  20220935.7114                   20220934.4264
  35090930.00047  27367443.91443  23727240.7504                   23727241.2934
  10730689.36747   8377085.64144  22996956.1954                   22996957.1844
   1757427.07847   1389924.25845  22924928.7344                   22924926.5744
  -2097142.43047  -1624280.52245  22251066.3284                   22251064.9844
 -20725288.82848 -16140524.81246  20676252.3444                   20676251.3914
  -5391892.51247  -4168553.99145  21611659.3134                   21611658.5004
 11  8 13 18 46  0.0000000  0  9G17G24G07G26G13G19G28G08G11
  29625227.97747  23096347.99344  23578172.7274                   23578174.6844
  18232737.98446  14217412.89444  22696793.6884                   22696795.4734
 -17619089.32448 -13697232.33847  20197449.3134                   20197448.4734
  34891582.66847  27212108.38844  23689306.4304                   23689307.2584
  10717648.69947   8366923.91444  22994474.3984                   22994475.9694
   1731055.98446   1369375.32045  22919910.5704                   22919908.2234
  -2248253.57047  -1742029.45845  22222311.2194                   22222309.3714
 -20902004.46148 -16278225.28846  20642624.1954                   20642623.2154
  -5542036.59447  -4285549.36245  21583088.1484                   21583087.2504
 11  8 13 18 46 30.0000000  0  9G17G24G07G26G13G19G28G08G11
  29405906.19147  22925448.03644  23536437.1094                   23536438.2974
  18049566.85946  14074682.19644  22661937.5314                   22661939.4964
 -17742052.28948 -13793047.63847  20174050.4064                   20174049.3014
  34692718.50847  27057149.34743  23651463.7344                   23651463.9264
  10704765.80147   8356885.15344  22992022.8364                   22992024.7344
   1704951.87547   1349034.39645  22914942.8524                   22914941.0124
  -2399240.84047  -1859681.85645  22193578.9774                   22193577.2664
 -21078411.81248 -16415685.56646  20609055.3284                   20609054.1884
  -5691632.23848  -4402117.36945  21554620.5084                   21554619.6954
 11  8 13 18 47  0.0000000  0  9G17G24G07G26G13G19G28G08G11
  29186811.44547  22754724.97144  23494745.2584                   23494745.9184
  17866709.18846  13932195.75244  22627141.2034                   22627142.4384
 -17864559.77048 -13888508.03447  20150738.1414                   20150736.7114
  34494335.43847  26902565.22644  23613712.7194                   23613712.9144
  10692033.19147   8346963.45443  22989600.5234                   22989601.6994
   1679107.72347   1328896.05445  22910025.0314                   22910022.7034
  -2550109.27347  -1977241.65945  22164869.7734                   22164868.4884
 -21254512.54348 -16552906.90546  20575544.5084                   20575543.6844
  -5840682.45347  -4518260.38245  21526257.8754                   21526256.5124
 11  8 13 18 47 30.0000000  0  9G17G24G07G26G13G19G28G08G11
  30543367.94147  23811782.12944  23752888.8984   23752889.5314   19259589.27346
  15017556.93244                  22892197.1334                   22892198.1054
 -16411191.21548 -12756013.07147  20427304.6724                   20427303.6334
  35871857.65647  27975959.20243  23875845.8834                   23875846.7074
  12254863.32047   9564753.02943  23286996.3594                   23286997.9384
   3228936.43447   2536554.75345  23204947.9534                   23204945.2974
  -1125439.75847   -867109.54245  22435975.3284                   22435974.3054
 -19854883.52348 -15462286.87746  20841885.0004                   20841884.0434
  -4413765.45347  -3406376.99845  21797790.5704                   21797789.6294
 11  8 13 18 48  0.0000000  0  9G17G24G07G26G13G19G28G08G11
  30324717.19147  23641405.03044  23711281.3134   23711282.0354   19077352.03946
  14875553.93744                  22857518.4534                   22857519.2974
 -16532799.65247 -12850772.89747  20404163.5704                   20404161.8714
  35674428.63346  27822118.43043  23838276.6254                   23838277.2624
  12242406.32047   9555046.10843  23284626.5234                   23284628.1564
   3203587.87947   2516802.58745  23200124.4844                   23200121.9614
  -1276089.04747   -984498.58745  22407307.6724                   22407306.2304
 -20030379.63748 -15599037.09446  20808488.9924                   20808488.0984
  -4561735.06648  -3521677.96845  21769633.0164                   21769631.9494
 11  8 13 18 48 30.0000000  0  9G17G24G07G26G13G19G28G08G11
  30106286.49647  23471199.43344  23669714.2344   23669716.6414   18895424.69146
  14733792.43944                  22822898.7194                   22822899.6684
 -16653961.44948 -12945184.69247  20381107.2424                   20381105.9614
  35477475.59046  27668648.59443  23800797.5864                   23800797.9144
  12230077.97347   9545439.41944  23282279.9384                   23282281.9024
   3178477.91047   2497236.33845  23195346.6024                   23195344.6214
  -1426634.81247  -1101806.95345  22378659.6334                   22378658.3014
 -20205574.43448 -15735552.51646  20775150.7034                   20775149.4304
  -4709166.57847  -3636559.64745  21741577.8284                   21741576.6254
 11  8 13 18 49  0.0000000  0  9G17G24G07G26G13G19G28G08G11
  29888075.33247  23301164.88844  23628190.7814   23628192.5124   18713807.69546
  14592272.76844                  22788337.6644                   22788339.9304
 -16774677.21948 -13039248.93347  20358135.9304                   20358134.5274
  35280998.82446  27515549.86543  23763408.7584                   23763409.5394
  12217873.01247   9535928.92243  23279958.5084                   23279959.1914
   3153601.87147   2477852.33045  23190611.9304                   23190610.3364
  -1577079.96947  -1219036.91245  22350030.7274                   22350028.9414
 -20380467.58648 -15871832.88946  20741869.8054                   20741868.6094
  -4856060.53148  -3751022.46645  21713624.9304                   21713623.4144
